     2              OBSERVATION DATA                        RINEX VERSION / TYPE
ASHTORIN USGS 25 - JUN - 92 15:09                           PGM / RUN BY / DATE
                                                            COMMENT
f275 F_275_1935_USC&GS                                      MARKER NAME
                                                            MARKER NUMBER
MHM USGS                                                    OBSERVER / AGENCY
2105 ASHTECH LM-XII3 6GP4                                   REC # / TYPE / VERS
1675 unknown Ashtech                                        ANT # / TYPE
 -2728060.0000 -4023065.0000  4116589.0000                  APPROX POSITION XYZ
        1.1899        0.0000        0.0000                  ANTENNA: DELTA H/E/N
HI is vertical height to base of antenna                    COMMENT
     1     1                                                WAVELENGTH FACT L1/2
     7    L1    L2    C1    P1    P2    D1    D2            # / TYPES OF OBSERV
     3                                                      INTERVAL
  1992     6    13     0    30   30.000000                  TIME OF FIRST OBS
  1992     6    13     3    55    9.005000                  TIME OF LAST OBS
                                                            END OF HEADER
 92  6 13  0 30 30.0000000  0  7  3 20 12 16 24 25  4                0.000810810
   -147765.793 6   -115141.958 6  23240625.840    23240637.561    23240637.561
     -2462.379       -1918.697
    -70447.770 8    -54893.558 8  20709235.015    20709248.925    20709246.497
     -1193.866        -930.292
    213003.797 6    165976.136 5  24363113.198    24363129.716    24363130.526
      3529.766        2750.483
   -126124.705 7    -98279.513 6  22324160.295    22324178.403    22324176.694
     -2114.430       -1647.582
   -417818.153 8  -1275290.942 7  21848733.826    21848749.955    21848747.467
      2058.637        1604.178
 -19129372.473 6 -14899928.857 5  24122114.328    24122131.356    24122129.377
     -1152.127        -897.786
        -0.003 8        -0.009 8  20709234.925    20709248.805    20709246.587
     -1193.865        -930.293
 92  6 13  0 30 33.0000000  0  7  3 20 12 16 24 25  4                0.000810390
   -155148.266 6   -120894.522 6  23239218.104    23239232.914    23239232.404
     -2459.234       -1916.263
    -74023.136 8    -57679.565 8  20708554.366    20708568.666    20708565.878
     -1189.464        -926.851
    223597.402 6    174230.862 5  24365128.373    24365145.881    24365146.330
      3532.757        2752.806
   -132461.959 7   -103217.626 6  22322956.029    22322972.308    22322970.539
     -2110.202       -1644.317
   -411637.215 8  -1270474.625 7  21849913.989    21849926.131    21849924.002
      2062.208        1606.900
 -19132822.312 6 -14902617.048 5  24121461.590    24121474.691    24121472.712
     -1147.597        -894.241
        -0.003 8        -0.009 8  20708554.276    20708568.546    20708565.938
     -1189.462        -926.850
 92  6 13  0 30 36.0000000  0  7  3 20 12 16 24 25  4                0.000809970
   -162521.024 6   -126639.515 6  23237818.703    23237829.076    23237829.615
     -2456.136       -1913.778
    -77584.937 9    -60454.984 8  20707873.298    20707890.925    20707888.317
     -1185.055        -923.416
    234200.316 5    182492.875 5  24367144.327    24367162.494    24367164.443
      3535.742        2755.145
   -138786.261 7   -108145.650 6  22321756.320    22321768.851    22321767.202
     -2106.001       -1641.056
   -405445.344 8  -1265649.793 7  21851091.454    21851104.525    21851102.037
      2065.719        1609.691
 -19136258.155 6 -14905294.323 5  24120809.391    24120821.563    24120818.565
     -1143.067        -890.616
        -0.003 9        -0.009 8  20707873.208    20707890.806    20707888.377
     -1185.056        -923.421
 92  6 13  0 30 39.0000000  0  7  3 20 12 16 24 25  4                0.000809560
   -169884.739 6   -132377.462 6  23236412.586    23236428.535    23236428.775
     -2453.232       -1911.633
    -81133.691 9    -63220.249 8  20707199.154    20707215.403    20707212.975
     -1180.853        -920.160
    244811.999 5    190761.712 5  24369166.487    24369182.826    24369183.186
      3538.510        2757.312
   -145098.242 7   -113064.062 6  22320554.572    22320568.032    22320566.174
     -2102.057       -1637.956
   -399243.107 8  -1260816.886 7  21852271.557    21852284.568    21852282.170
      2069.025        1612.251
 -19139680.505 6 -14907961.093 5  24120154.824    24120169.844    24120167.685
     -1138.680        -887.280
        -0.003 9        -0.009 8  20707199.064    20707215.283    20707213.065
     -1180.854        -920.153
 92  6 13  0 30 42.0000000  0  7  3 20 12 16 24 25  4                0.000809160
   -177239.291 6   -138108.269 6  23235013.575    23235028.415    23235028.295
     -2450.025       -1909.008
    -84669.341 8    -65975.300 8  20706526.690    20706542.669    20706540.211
     -1176.345        -916.633
    255432.463 5    199037.386 5  24371188.138    24371203.157    24371204.206
      3541.526        2759.681
   -151397.926 7   -117972.909 6  22319353.093    22319368.982    22319367.334
     -2097.818       -1634.714
   -393030.438 8  -1255975.848 7  21853454.448    21853467.010    21853464.521
      2072.627        1615.058
 -19143089.383 6 -14910617.376 5  24119507.722    24119521.333    24119518.665
     -1134.005        -883.695
        -0.003 8        -0.009 8  20706526.600    20706542.549    20706540.300
     -1176.346        -916.638
 92  6 13  0 30 45.0000000  0  6  3 20 12 16 24 25                   0.000808760
   -184584.344 6   -143831.693 6  23233616.332    23233630.362    23233631.142
     -2446.853       -1906.688
    -88191.625 9    -68719.937 8  20705859.472    20705872.603    20705870.054
     -1171.861        -913.114
    266061.944 5    207320.087 5  24373211.677    24373225.497    24373227.266
      3544.605        2762.022
   -157685.131 7   -122872.024 6  22318156.981    22318172.661    22318170.592
     -2093.653       -1631.433
   -386807.128 8  -1251126.517 7  21854634.791    21854651.280    21854648.582
      2076.195        1617.857
 -19146484.576 6 -14913262.968 5  24118865.507    24118874.950    24118872.702
     -1129.494        -880.000
 92  6 13  0 30 48.0000000  0  6  3 20 12 16 24 25                   0.000808370
   -191919.935 6   -149547.737 6  23232222.837    23232235.008    23232235.158
     -2443.792       -1904.284
    -91700.379 8    -71454.035 8  20705188.027    20705204.755    20705202.207
     -1167.405        -909.701
    276700.536 5    215609.889 5  24375245.289    24375251.165    24375252.274
      3547.586        2764.380
   -163959.670 7   -127761.279 6  22316963.538    22316978.527    22316976.519
     -2089.488       -1628.145
   -380573.101 8  -1246268.832 7  21855820.830    21855837.229    21855834.950
      2079.708        1620.553
 -19149865.931 6 -14915897.791 5  24118213.488    24118232.075    24118228.898
     -1124.933        -876.577
 92  6 13  0 30 51.0000000  0  7  3 20 12 16 24 25  5                0.000807980
   -199246.068 6   -155256.413 6  23230826.284    23230841.603    23230840.943
     -2440.441       -1901.559
    -95195.686 9    -74177.643 8  20704523.327    20704539.546    20704536.997
     -1162.787        -906.044
    287348.267 6    223906.804 5  24377262.263    24377277.312    24377278.122
      3550.800        2766.933
   -170221.625 7   -132640.717 6  22315773.841    22315787.122    22315784.874
     -2085.165       -1624.820
   -374328.445 8  -1241402.863 7  21857011.935    21857025.576    21857023.298
      2083.394        1623.402
 -19153233.586 6 -14918521.933 5  24117572.922    24117590.729    24117587.552
     -1120.198        -872.928
         0.000 1         0.000 1  24377262.203           0.000           0.000
         0.000           0.000
 92  6 13  0 30 54.0000000  0  7  3 20 12 16 24 25  5                0.000807590
   -206563.006 6   -160957.909 6  23229435.786    23229448.857    23229449.097
     -2437.521       -1899.316
    -98677.812 9    -76890.990 8  20703860.905    20703876.884    20703874.456
     -1158.504        -902.769
    298004.790 6    232210.589 5  24379290.179    24379305.048    24379305.918
      3553.593        2769.088
   -176471.317 7   -137510.606 6  22314585.194    22314597.695    22314595.927
     -2081.191       -1621.702
   -368073.437 8  -1236528.843 7  21858201.602    21858215.902    21858213.744
      2086.705        1626.017
 -19156587.770 6 -14921135.585 5  24116936.492    24116952.381    24116949.533
     -1115.861        -869.431
         0.000 1         0.000 1  24379290.119           0.000           0.000
         0.000           0.000
 92  6 13  0 30 57.0000000  0  7  3 20 12 16 24 25  5                0.000807210
   -213870.227 6   -166651.831 6  23228035.815    23228057.940    23228057.101
     -2434.162       -1896.779
   -102146.224 9    -79593.650 8  20703200.822    20703216.891    20703214.433
     -1153.799        -899.063
    308670.637 5    240521.654 5  24381315.816    24381333.684    24381335.303
      3556.822        2771.565
   -182708.158 7   -142370.476 6  22313396.727    22313410.877    22313409.018
     -2076.740       -1618.254
   -361807.431 8  -1231646.235 7  21859393.727    21859408.626    21859405.808
      2090.550        1629.030
 -19159928.010 6 -14923738.383 5  24116299.074    24116316.731    24116314.213
     -1111.015        -865.760
         0.000 1         0.000 1  24381315.756           0.000           0.000
         0.000           0.000
 92  6 13  0 31  0.0000000  0  7  3 20 12 16 24 25  5                0.000806840
   -221168.110 6   -172338.505 6  23226659.618    23226669.062    23226669.391
     -2431.052       -1894.298
   -105601.447 9    -82286.027 8  20702544.217    20702559.266    20702556.898
     -1149.453        -895.665
    319345.367 5    248839.599 5  24383345.771    24383366.127    24383367.206
      3559.822        2773.826
   -188932.576 7   -147220.679 6  22312210.268    22312226.517    22312224.448
     -2072.656       -1615.053
   -355530.785 8  -1226755.350 7  21860588.939    21860602.850    21860600.511
      2094.056        1631.759
 -19163254.813 6 -14926330.682 5  24115669.389    24115683.839    24115680.961
     -1106.649        -862.279
         0.000 1        -0.00915  24383345.711           0.000    24383367.326
         0.000        2773.794
 92  6 13  0 31  3.0000000  0  7  3 20 12 16 24 25  5                0.000806470
   -228456.437 6   -178017.714 5  23225265.223    23225282.581    23225281.802
     -2427.834       -1891.827
   -109043.154 9    -84967.876 8  20701889.110    20701904.400    20701902.061
     -1144.927        -892.139
    330029.328 5    257164.750 5  24385383.220    24385399.919    24385400.099
      3562.868        2776.268
   -195144.321 7   -152060.987 6  22311029.746    22311044.345    22311042.577
     -2068.342       -1611.688
   -349243.236 8  -1221855.960 7  21861784.062    21861799.321    21861796.833
      2097.742        1634.598
 -19166567.904 6 -14928912.314 5  24115032.570    24115053.886    24115050.078
     -1102.088        -858.733
         0.000 1        -0.009 5  24385383.161           0.000    24385400.219
         0.000        2776.270
 92  6 13  0 31  6.0000000  0  7  3 20 12 16 24 25  5                0.000806100
   -235735.112 6   -183689.408 6  23223881.471    23223897.330    23223896.881
     -2424.675       -1889.378
   -112471.255 9    -87639.118 8  20701235.953    20701252.021    20701249.743
     -1140.380        -888.634
    340722.535 5    265497.111 5  24387419.321    24387434.131    24387435.090
      3565.918        2778.641
   -201343.338 7   -156891.388 6  22309849.822    22309864.872    22309863.013
     -2064.202       -1608.493
   -342944.763 8  -1216948.060 7  21862983.232    21862997.921    21862995.343
      2101.321        1637.380
 -19169867.245 6 -14931483.235 5  24114406.933    24114426.330    24114421.833
     -1097.413        -855.177
         0.00215        -0.009 5  24387419.261    24387433.981    24387435.180
      3565.933        2778.643
 92  6 13  0 31  9.0000000  0  7  3 20 12 16 24 25  5                0.000805750
   -243004.153 6   -189353.592 5  23222494.991    23222514.838    23222513.698
     -2421.532       -1886.940
   -115885.803 9    -90299.807 8  20700586.512    20700602.521    20700599.673
     -1136.006        -885.180
    351424.960 6    273836.633 5  24389453.173    24389471.071    24389471.700
      3568.889        2780.892
   -207529.653 7   -161711.888 6  22308672.717    22308687.617    22308685.938
     -2060.079       -1605.268
   -336635.459 8  -1212031.719 7  21864183.391    21864198.590    21864195.982
      2104.832        1640.098
 -19173152.804 6 -14934043.404 5  24113778.359    24113800.273    24113797.186
     -1092.945        -851.615
         0.002 6        -0.009 5  24389453.083    24389470.891    24389471.820
      3568.886        2780.894
 92  6 13  0 31 12.0000000  0  7  3 20 12 16 24 25  5                0.000805390
   -250263.573 7   -195010.274 5  23221117.985    23221133.634    23221132.435
     -2418.174       -1884.340
   -119286.795 8    -92949.932 8  20699938.930    20699955.119    20699952.751
     -1131.294        -881.519
    362136.632 6    282183.391 5  24391490.682    24391509.569    24391510.349
      3572.170        2783.509
   -213703.237 7   -166522.467 6  22307496.541    22307512.760    22307510.842
     -2055.642       -1601.774
   -330315.226 8  -1207106.867 7  21865384.899    21865401.238    21865398.630
      2108.693        1643.151
 -19176424.498 6 -14936592.765 5  24113161.566    24113177.425    24113174.786
     -1088.184        -847.900
         0.002 6        -0.009 5  24391490.652    24391509.419    24391510.469
      3572.174        2783.521
 92  6 13  0 31 15.0000000  0  7  3 20 12 16 24 25  5                0.000805040
   -257512.910 7   -200659.098 6  23219736.091    23219753.629    23219753.359
     -2415.010       -1881.824
   -122673.912 8    -95589.239 8  20699295.156    20699310.775    20699308.017
     -1126.881        -878.082
    372857.921 5    290537.628 5  24393528.971    24393549.507    24393550.676
      3575.133        2785.851
   -219863.821 7   -171322.916 6  22306323.394    22306340.272    22306338.503
     -2051.534       -1598.550
   -323983.702 8  -1202173.212 7  21866588.266    21866606.134    21866603.705
      2112.201        1645.907
 -19179681.922 6 -14939131.025 5  24112540.845    24112558.083    24112554.636
     -1083.614        -844.336
         0.002 5        -0.009 5  24393528.911    24393549.357    24393550.796
      3575.141        2785.848
 92  6 13  0 31 18.0000000  0  7  3 20 12 16 24 25  5                0.000804700
   -264752.893 6   -206300.642 6  23218363.282    23218375.843    23218375.063
     -2411.702       -1879.239
   -126047.715 9    -98218.177 8  20698653.390    20698668.620    20698666.102
     -1122.251        -874.478
    383588.175 6    298898.857 5  24395564.532    24395591.813    24395591.873
      3578.341        2788.373
   -226012.035 7   -176113.734 6  22305154.233    22305170.602    22305168.503
     -2047.225       -1595.193
   -317641.546 8  -1197231.270 7  21867799.338    21867812.918    21867810.370
      2115.986        1648.787
 -19182925.709 5 -14941658.645 5  24111925.192    24111939.462    24111937.723
     -1078.777        -840.678
         0.002 5        -0.009 5  24395564.472    24395591.633    24395591.993
      3578.339        2788.355
 92  6 13  0 31 21.0000000  0  7  3 20 12 16 24 25  5                0.000804360
   -271982.936 7   -211934.438 6  23216982.887    23217000.305    23216999.945
     -2408.436       -1876.703
   -129407.652 8   -100836.311 8  20698014.113    20698029.372    20698026.674
     -1117.689        -870.932
    394327.986 6    307267.509 5  24397612.774    24397635.378    24397636.128
      3581.406        2790.765
   -232147.323 7   -180894.473 6  22303986.002    22304002.880    22304001.021
     -2042.948       -1591.929
   -311288.190 8  -1192280.612 7  21869007.681    21869021.831    21869019.193
      2119.616        1651.648
 -19186155.223 6 -14944175.155 5  24111307.379    24111325.457    24111322.759
     -1074.165        -836.997
         0.002 6        -0.009 5  24397612.744    24397635.229    24397636.248
      3581.402        2790.744
 92  6 13  0 31 24.0000000  0  7  3 20 12 16 24 25  5                0.000804030
   -279203.146 7   -217560.563 5  23215610.287    23215626.626    23215625.517
     -2405.162       -1874.161
   -132753.932 8   -103443.797 8  20697376.754    20697392.283    20697389.825
     -1113.132        -867.371
    405077.167 6    315643.502 5  24399665.213    24399680.593    24399681.672
      3584.623        2793.278
   -238269.785 7   -185665.223 6  22302825.955    22302837.827    22302835.938
     -2038.603       -1588.537
   -304923.844 8  -1187321.377 7  21870219.412    21870232.903    21870230.684
      2123.349        1654.535
 -19189370.698 6 -14946680.705 5  24110698.021    24110713.880    24110710.822
     -1069.406        -833.310
         0.002 6        -0.009 5  24399665.153    24399680.413    24399681.762
      3584.620        2793.281
 92  6 13  0 31 27.0000000  0  7  3 20 12 16 24 25  5                0.000803710
   -286413.647 7   -223179.132 5  23214234.540    23214253.697    23214253.487
     -2401.969       -1871.677
   -136086.614 8   -106040.696 8  20696743.293    20696758.192    20696755.674
     -1108.659        -863.882
    415835.642 6    324026.701 5  24401712.436    24401728.325    24401729.464
      3587.607        2795.513
   -244379.511 7   -190426.046 6  22301657.454    22301675.142    22301673.133
     -2034.475       -1585.311
   -298548.622 8  -1182353.671 7  21871432.882    21871446.283    21871443.555
      2126.841        1657.276
 -19192572.102 6 -14949175.309 5  24110082.667    24110104.372    24110102.214
     -1064.787        -829.657
         0.002 6        -0.009 5  24401712.406    24401728.145    24401729.554
      3587.600        2795.530
 92  6 13  0 31 30.0000000  0  7  3 20 12 16 24 25  5                0.000803380
   -293614.468 7   -228790.150 6  23212869.705    23212883.855    23212883.135
     -2398.808       -1869.184
   -139405.606 8   -108626.920 8  20696112.979    20696126.590    20696124.251
     -1104.073        -860.321
    426603.442 6    332417.182 5  24403764.755    24403777.107    24403778.366
      3590.802        2797.970
   -250476.415 7   -195176.879 6  22300497.797    22300514.945    22300513.206
     -2030.235       -1581.962
   -292162.543 8  -1177377.509 7  21872647.671    21872661.342    21872658.913
      2130.487        1660.113
 -19195759.411 5 -14951658.928 5  24109483.172    24109498.042    24109495.164
     -1060.090        -826.025
         0.002 6        -0.009 5  24403764.725    24403776.957    24403778.456
      3590.796        2797.976
 92  6 13  0 31 33.0000000  0  7  3 20 12 16 24 25  5                0.000803070
   -300805.785 7   -234393.764 6  23211497.375    23211515.272    23211514.703
     -2395.491       -1866.630
   -142711.234 9   -111202.738 8  20695482.066    20695497.715    20695495.257
     -1099.508        -856.740
    437380.265 6    340814.701 5  24405811.978    24405827.987    24405828.467
      3593.848        2800.340
   -256560.820 7   -199917.968 6  22299346.983    22299356.876    22299355.467
     -2025.907       -1578.606
   -285765.876 8  -1172393.099 7  21873863.000    21873878.889    21873876.311
      2134.148        1662.949
 -19198932.889 5 -14954131.761 5  24108872.645    24108894.170    24108889.943
     -1055.411        -822.336
         0.002 5        -0.009 5  24405811.948    24405827.837    24405828.586
      3593.849        2800.330
 92  6 13  0 31 36.0000000  0  7  3 20 12 16 24 25  5                0.000802760
   -307987.050 7   -239989.543 6  23210134.488    23210148.758    23210147.110
     -2392.247       -1864.068
   -146002.922 8   -113767.688 8  20694855.560    20694871.179    20694868.721
     -1094.950        -853.188
    448166.660 5    349219.669 5  24407860.130    24407880.396    24407881.056
      3596.885        2802.780
   -262632.197 7   -204648.905 6  22298187.266    22298201.716    22298199.797
     -2021.688       -1575.336
   -279358.040 8  -1167399.980 7  21875084.414    21875098.085    21875095.477
      2137.757        1665.801
 -19202091.995 5 -14956593.398 5  24108274.469    24108292.816    24108289.938
     -1050.751        -818.680
         0.002 5        -0.009 5  24407860.100    24407880.246    24407881.145
      3596.887        2802.794
 92  6 13  0 31 39.0000000  0  7  3 20 12 16 24 25  5                0.000802450
   -315158.605 7   -245577.773 5  23208769.713    23208784.163    23208783.204
     -2388.936       -1861.519
   -149280.906 8   -116321.966 8  20694232.591    20694247.521    20694245.152
     -1090.349        -849.638
    458962.376 5    357631.903 5  24409915.327    24409934.634    24409935.863
      3600.128        2805.272
   -268690.768 7   -209369.869 6  22297033.605    22297048.654    22297047.365
     -2017.367       -1571.933
   -272939.255 8  -1162398.332 7  21876305.619    21876319.469    21876317.101
      2141.444        1668.667
 -19205237.034 5 -14959044.085 5  24107675.094    24107694.101    24107691.193
     -1046.061        -815.098
         0.002 5        -0.009 5  24409915.267    24409934.454    24409935.953
      3600.127        2805.278
 92  6 13  0 31 42.0000000  0  7  3 20 12 16 24 25  5                0.000802150
   -322320.209 7   -251158.241 6  23207405.148    23207420.887    23207420.377
     -2385.628       -1858.958
   -152544.987 9   -118865.402 8  20693610.851    20693626.441    20693623.892
     -1085.747        -846.034
    469767.610 5    366051.546 5  24411973.912    24411990.281    24411991.150
      3603.201        2807.736
   -274736.306 7   -214080.672 6  22295884.171    22295898.231    22295896.072
     -2013.067       -1568.608
   -266509.286 8  -1157387.974 7  21877527.993    21877543.192    21877541.004
      2145.136        1671.537
 -19208367.852 5 -14961483.675 5  24107078.267    24107098.023    24107095.715
     -1041.353        -811.411
         0.002 5        -0.009 5  24411973.882    24411990.131    24411991.240
      3603.212        2807.748
 92  6 13  0 31 45.0000000  0  7  3 20 12 16 24 25  5                0.000801860
   -329471.970 7   -256731.041 6  23206045.859    23206059.949    23206058.930
     -2382.355       -1856.414
   -155795.199 8   -121398.030 8  20692992.799    20693007.969    20693005.450
     -1081.084        -842.400
    480582.228 5    374478.526 5  24414030.069    24414048.266    24414049.915
      3606.417        2810.167
   -280768.887 7   -218781.387 6  22294734.287    22294750.445    22294748.677
     -2008.728       -1565.197
   -260068.264 8  -1152368.994 7  21878754.743    21878768.923    21878766.435
      2148.836        1674.402
 -19211484.573 6 -14963912.295 5  24106493.732    24106505.154    24106502.965
     -1036.551        -807.712
         0.002 5        -0.009 5  24414030.009    24414048.116    24414050.005
      3606.412        2810.152
 92  6 13  0 31 48.0000000  0  7  3 20 12 16 24 25  5                0.000801570
   -336614.402 7   -262296.567 6  23204685.520    23204701.050    23204700.120
     -2379.359       -1854.007
   -159031.948 8   -123920.171 8  20692379.124    20692392.045    20692389.497
     -1076.685        -838.980
    491405.832 5    382912.466 5  24416095.129    24416108.560    24416109.039
      3609.223        2812.462
   -286788.949 7   -223472.333 6  22293590.908    22293604.819    22293602.960
     -2004.601       -1562.016
   -253616.630 8  -1147341.746 7  21879980.655    21879996.634    21879994.025
      2152.283        1677.099
 -19214587.633 5 -14966330.244 5  24105898.943    24105914.023    24105912.764
     -1032.204        -804.215
         0.002 5        -0.009 5  24416095.069    24416108.410    24416109.159
      3609.235        2812.472
 92  6 13  0 31 51.0000000  0  7  3 20 12 16 24 25  5                0.000801280
   -343747.038 7   -267854.459 6  23203330.818    23203343.889    23203343.530
     -2375.985       -1851.420
   -162254.801 8   -126431.481 8  20691761.791    20691778.760    20691776.091
     -1072.023        -835.307
    502238.806 5    391353.725 5  24418154.853    24418169.903    24418170.322
      3612.355        2814.995
   -292796.025 7   -228153.180 6  22292450.378    22292461.710    22292460.061
     -2000.224       -1558.623
   -247153.958 8  -1142305.898 7  21881211.842    21881226.652    21881223.894
      2156.040        1680.032
 -19217676.672 6 -14968737.292 5  24105314.528    24105326.550    24105324.781
     -1027.418        -800.622
         0.002 5        -0.009 5  24418154.823    24418169.723    24418170.442
      3612.372        2814.994
 92  6 13  0 31 54.0000000  0  7  3 20 12 16 24 25  5                0.000801000
   -350869.919 7   -273404.746 6  23201971.559    23201987.898    23201987.808
     -2372.722       -1848.862
   -165463.894 9   -128932.075 8  20691153.632    20691168.022    20691165.474
     -1067.392        -831.741
    513080.990 5    399802.167 5  24420216.736    24420232.745    24420234.334
      3615.558        2817.331
   -298790.165 7   -232823.925 6  22291310.417    22291321.209    22291319.591
     -1995.845       -1555.215
   -240680.305 8  -1137261.489 7  21882443.300    21882458.529    21882455.951
      2159.709        1682.926
 -19220751.858 5 -14971133.541 5  24104724.656    24104741.655    24104739.646
     -1022.831        -796.952
         0.002 5        -0.009 5  24420216.706    24420232.565    24420234.453
      3615.554        2817.340
 92  6 13  0 31 57.0000000  0  7  3 20 12 16 24 25  5                0.000800730
   -357983.002 7   -278947.407 6  23200618.896    23200634.305    23200634.545
     -2369.399       -1846.248
   -168659.196 8   -131421.919 8  20690543.675    20690560.103    20690557.465
     -1062.704        -828.104
    523932.503 5    408257.876 5  24422281.017    24422297.116    24422299.064
      3618.780        2819.733
   -304771.225 7   -237484.490 6  22290166.979    22290182.957    22290181.339
     -1991.382       -1551.762
   -234195.530 8  -1132208.425 7  21883678.265    21883692.565    21883689.897
      2163.519        1685.863
 -19223813.102 5 -14973518.932 5  24104138.112    24104158.738    24104157.779
     -1018.033        -793.187
         0.002 5        -0.009 5  24422280.987    24422296.936    24422299.154
      3618.788        2819.745
 92  6 13  0 32  0.0000000  0  7  3 20 12 16 24 25  5                0.000800460
   -365086.068 7   -284482.258 6  23199266.082    23199282.811    23199282.931
     -2366.054       -1843.629
   -171840.424 9   -133900.795 8  20689940.882    20689954.792    20689951.884
     -1058.075        -824.453
    534793.659 5    416721.097 5  24424352.822    24424364.454    24424366.223
      3621.928        2822.283
   -310738.840 7   -242134.573 6  22289030.046    22289047.134    22289045.545
     -1986.964       -1548.255
   -227699.397 8  -1127146.506 7  21884913.260    21884928.699    21884926.271
      2167.279        1688.790
 -19226860.128 6 -14975893.239 5  24103557.205    24103579.269    24103577.770
     -1013.324        -789.556
         0.002 5        -0.009 5  24424352.792    24424364.304    24424366.313
      3621.924        2822.298
 92  6 13  0 32  3.0000000  0  7  3 20 12 16 24 25  5                0.000800200
   -372179.201 7   -290009.363 6  23197917.976    23197932.905    23197933.235
     -2362.668       -1841.053
   -175007.778 9   -136368.864 8  20689337.370    20689352.150    20689349.122
     -1053.309        -820.776
    545664.260 5    425191.686 5  24426422.889    24426433.232    24426434.701
      3625.168        2824.791
   -316693.078 7   -246774.240 6  22287897.729    22287914.218    22287912.389
     -1982.401       -1544.711
   -221192.000 8  -1122075.808 7  21886152.572    21886167.082    21886164.384
      2171.157        1691.830
 -19229893.030 5 -14978256.542 5  24102981.333    24103001.929    24103000.130
     -1008.461        -785.796
         0.002 5        -0.009 5  24426422.889    24426433.082    24426434.791
      3625.164        2824.785
 92  6 13  0 32  6.0000000  0  7  3 20 12 16 24 25  5                0.000799940
   -379262.271 7   -295528.640 6  23196567.470    23196585.278    23196584.709
     -2359.488       -1838.652
   -178161.024 9   -138825.937 8  20688736.436    20688752.115    20688749.057
     -1048.784        -817.212
    556544.493 5    433669.781 5  24428490.708    24428503.359    24428505.577
      3628.209        2827.153
   -322633.736 7   -251403.324 6  22286771.259    22286783.731    22286782.262
     -1978.039       -1541.327
   -214673.174 8  -1116996.208 7  21887391.164    21887407.443    21887404.985
      2174.788        1694.630
 -19232911.655 6 -14980608.716 5  24102409.059    24102427.736    24102425.308
     -1003.920        -782.282
         0.002 5        -0.009 5  24428490.678    24428503.179    24428505.667
      3628.199        2827.151
 92  6 13  0 32  9.0000000  0  7  3 20 12 16 24 25  5                0.000799690
   -386335.534 7   -301040.271 6  23195224.640    23195239.330    23195238.131
     -2356.247       -1836.004
   -181300.449 8   -141272.242 8  20688140.119    20688154.659    20688151.960
     -1044.232        -813.676
    567434.019 5    442155.095 5  24430561.614    24430574.985    24430577.533
      3631.388        2829.570
   -328561.128 7   -256022.065 6  22285643.560    22285655.851    22285654.442
     -1973.614       -1537.896
   -208143.269 8  -1111907.968 7  21888634.943    21888650.083    21888647.715
      2178.444        1697.471
 -19235916.227 6 -14982949.936 5  24101831.749    24101856.362    24101853.754
      -999.166        -778.659
         0.002 5        -0.009 5  24430561.614    24430574.805    24430577.653
      3631.397        2829.583
 92  6 13  0 32 12.0000000  0  7  3 20 12 16 24 25  5                0.000799440
   -393399.285 7   -306544.491 6  23193881.570    23193894.911    23193895.001
     -2353.020       -1833.482
   -184426.293 9   -143707.963 8  20687544.011    20687559.840    20687557.052
     -1039.614        -810.087
    578332.645 6    450647.497 5  24432637.917    24432649.669    24432651.048
      3634.394        2832.103
   -334475.427 7   -260630.608 6  22284516.131    22284530.401    22284528.962
     -1969.233       -1534.463
   -201602.481 8  -1106811.254 7  21889880.791    21889894.791    21889892.393
      2182.132        1700.388
 -19238906.909 6 -14985280.337 5  24101270.328    24101287.056    24101285.167
      -994.477        -774.982
         0.002 6        -0.009 5  24432637.917    24432649.489    24432651.138
      3634.393        2832.111
 92  6 13  0 32 15.0000000  0  7  3 20 12 16 24 25  5                0.000799200
   -400453.079 7   -312040.947 6  23192539.009    23192552.680    23192553.429
     -2349.701       -1830.932
   -187538.188 9   -146132.816 8  20686952.521    20686967.570    20686964.782
     -1034.982        -806.476
    589240.701 5    459147.289 5  24434715.239    24434724.772    24434727.020
      3637.513        2834.477
   -340376.278 7   -265228.671 6  22283388.371    22283407.588    22283405.759
     -1964.700       -1530.973
   -195050.457 8  -1101705.780 7  21891128.287    21891141.628    21891138.990
      2185.870        1703.296
 -19241883.447 6 -14987599.702 5  24100701.981    24100719.849    24100718.560
      -989.899        -771.312
         0.002 5        -0.009 5  24434715.209    24434724.592    24434727.140
      3637.508        2834.491
 92  6 13  0 32 18.0000000  0  7  3 20 12 16 24 25  5                0.000798970
   -407497.220 6   -317529.879 6  23191195.040    23191211.948    23191211.768
     -2346.513       -1828.501
   -190636.361 8   -148546.979 8  20686362.349    20686377.729    20686375.121
     -1030.431        -802.950
    600157.975 5    467654.237 5  24436787.104    24436802.664    24436805.122
      3640.632        2836.809
   -346263.940 7   -269816.452 6  22282270.985    22282286.874    22282285.435
     -1960.357       -1527.542
   -188487.432 8  -1096591.739 7  21892375.484    21892390.384    21892387.955
      2189.489        1706.051
 -19244846.084 6 -14989908.258 5  24100144.937    24100156.629    24100154.620
      -985.279        -767.700
         0.002 5        -0.009 5  24436787.104    24436802.514    24436805.212
      3640.619        2836.796
 92  6 13  0 32 21.0000000  0  7  3 20 12 16 24 25  5                0.000798740
   -414531.578 6   -323011.188 6  23189853.289    23189873.315    23189873.135
     -2343.216       -1825.886
   -193720.785 8   -150950.418 8  20685776.165    20685790.795    20685788.217
     -1025.833        -799.372
    611084.487 5    476168.371 5  24438873.870    24438881.784    24438884.003
      3643.623        2839.258
   -352138.412 7   -274393.965 6  22281155.907    22281168.978    22281167.479
     -1955.971       -1524.127
   -181913.374 8  -1091469.099 7  21893626.937    21893641.327    21893639.019
      2193.189        1708.979
 -19247794.859 6 -14992206.003 5  24099579.109    24099595.567    24099593.678
      -980.588        -764.083
         0.002 5        -0.009 5  24438873.870    24438881.604    24438884.123
      3643.625        2839.267
 92  6 13  0 32 24.0000000  0  7  3 20 12 16 24 25  5                0.000798510
   -421556.088 6   -328484.848 6  23188521.101    23188536.900    23188536.061
     -2339.880       -1823.244
   -196791.287 9   -153343.023 8  20685190.191    20685206.619    20685203.861
     -1021.152        -795.678
    622020.347 5    484689.825 5  24440949.932    24440962.854    24440964.712
      3646.894        2841.746
   -357999.574 7   -278961.096 6  22280041.278    22280053.810    22280051.921
     -1951.480       -1520.609
   -175328.144 8  -1086337.751 7  21894881.209    21894894.400    21894892.271
      2197.002        1711.950
 -19250729.678 6 -14994492.866 5  24099026.621    24099037.354    24099035.045
      -975.917        -760.442
         0.002 5        -0.009 5  24440949.932    24440962.674    24440964.802
      3646.877        2841.760
 92  6 13  0 32 27.0000000  0  7  3 20 12 16 24 25  5                0.000798290
   -428570.606 6   -333950.693 6  23187187.414    23187201.864    23187201.594
     -2336.570       -1820.708
   -199847.695 8   -155724.635 8  20684608.983    20684625.022    20684622.444
     -1016.385        -791.980
    632965.748 5    493218.704 5  24443027.494    24443045.782    24443047.700
      3650.047        2844.179
   -363847.205 7   -283517.695 6  22278928.389    22278940.950    22278939.421
     -1946.898       -1517.038
   -168731.517 8  -1081197.529 7  21896135.061    21896149.901    21896147.443
      2200.826        1714.972
 -19253650.346 6 -14996768.710 5  24098467.238    24098481.269    24098479.710
      -971.203        -756.797
         0.002 5        -0.009 5  24443027.464    24443045.602    24443047.790
      3650.036        2844.196
 92  6 13  0 32 30.0000000  0  7  3 20 12 16 24 25  5                0.000798080
   -435575.139 6   -339408.762 6  23185854.357    23185868.657    23185868.987
     -2333.282       -1818.201
   -202889.942 8   -158095.219 8  20684030.174    20684046.213    20684043.665
     -1011.793        -788.400
    643920.693 5    501754.992 5  24445113.960    24445130.179    24445131.408
      3653.136        2846.608
   -369681.260 7   -288063.702 6  22277815.679    22277830.999    22277828.930
     -1942.479       -1513.652
   -162123.464 8  -1076048.400 7  21897392.541    21897406.961    21897404.772
      2204.528        1717.797
 -19256556.771 6 -14999033.450 5  24097914.031    24097928.151    24097926.173
      -966.502        -753.163
         0.002 5        -0.009 5  24445113.960    24445129.999    24445131.498
      3653.143        2846.605
 92  6 13  0 32 33.0000000  0  7  3 20 12 16 24 25  5                0.000797870
   -442569.483 6   -344858.894 6  23184521.030    23184537.788    23184537.998
     -2328.643       -1814.564
   -205917.763 8   -160454.559 8  20683455.082    20683469.922    20683467.433
     -1005.733        -783.670
    654885.370 5    510298.896 5  24447199.676    24447216.644    24447218.203
      3657.613        2850.114
   -375501.570 7   -292599.006 6  22276704.948    22276723.445    22276721.676
     -1936.721       -1509.157
   -155503.798 8  -1070890.218 7  21898650.620    21898666.898    21898664.470
      2209.635        1721.778
 -19259448.631 6 -15001286.852 5  24097363.762    24097377.193    24097376.024
      -960.467        -748.397
         0.002 5        -0.009 5  24447199.646    24447216.464    24447218.323
      3657.607        2850.097
 92  6 13  0 32 36.0000000  0  7  3 20 12 16 24 25  5                0.000797670
   -449550.152 6   -350298.372 6  23183191.720    23183209.228    23183209.708
     -2325.288       -1811.862
   -208927.757 8   -162800.008 8  20682881.819    20682897.228    20682894.680
     -1000.891        -779.926
    665863.164 5    518853.008 5  24449293.846    24449305.838    24449307.487
      3660.911        2852.502
   -381304.809 7   -297121.004 6  22275605.070    22275618.920    22275617.571
     -1932.089       -1505.501
   -148869.166 8  -1065720.372 7  21899915.894    21899929.354    21899926.926
      2213.500        1724.794
 -19262322.558 6 -15003526.272 5  24096818.320    24096830.881    24096829.262
      -955.521        -744.504
         0.002 5        -0.009 5  24449293.816    24449305.658    24449307.577
      3660.904        2852.507
 92  6 13  0 32 39.0000000  0  7  3 20 12 16 24 25  5                0.000797480
   -456521.071 6   -355730.247 6  23181869.096    23181882.617    23181883.186
     -2322.151       -1809.395
   -211923.759 8   -165134.554 8  20682311.194    20682327.023    20682324.595
      -996.381        -776.384
    676850.314 5    527414.401 5  24451379.352    24451396.650    24451398.929
      3663.891        2855.007
   -387094.744 7   -301632.644 6  22274503.902    22274517.003    22274515.324
     -1927.812       -1502.154
   -142223.318 8  -1060541.791 7  21901180.268    21901194.119    21901191.780
      2217.144        1727.622
 -19265182.285 6 -15005754.625 5  24096271.618    24096286.788    24096285.559
      -950.888        -740.961
         0.002 5        -0.009 5  24451379.322    24451396.470    24451399.049
      3663.875        2854.996
 92  6 13  0 32 42.0000000  0  7  3 20 12 16 24 25  5                0.000797290
   -463482.164 6   -361154.478 6  23180543.893    23180557.984    23180558.193
     -2318.799       -1806.823
   -214905.812 9   -167458.229 8  20681742.757    20681759.636    20681757.117
      -991.702        -772.751
    687846.696 5    535982.995 5  24453471.094    24453489.501    24453489.801
      3667.031        2857.387
   -392871.420 7   -306133.937 6  22273407.051    22273418.263    22273416.585
     -1923.344       -1498.691
   -135566.297 8  -1055354.505 7  21902448.151    21902461.102    21902458.374
      2220.863        1730.511
 -19268027.888 6 -15007971.987 5  24095722.369    24095745.393    24095744.223
      -946.140        -737.207
         0.002 5        -0.009 5  24453471.064    24453489.322    24453489.891
      3667.056        2857.397
 92  6 13  0 32 45.0000000  0  6  3 20 12 16 24 25                   0.000797100
   -470433.312 6   -366570.950 6  23179221.449    23179235.359    23179235.869
     -2315.453       -1804.298
   -217873.674 9   -169770.848 8  20681180.137    20681194.827    20681192.308
      -986.841        -768.986
    698852.526 5    544558.962 5  24455566.044    24455583.582    24455585.291
      3670.180        2859.884
   -398634.561 7   -310624.704 6  22272308.941    22272321.413    22272320.034
     -1918.737       -1495.095
   -128897.898 8  -1050158.360 7  21903716.363    21903729.853    21903727.335
      2224.760        1733.573
 -19270859.062 6 -15010178.083 5  24095190.507    24095206.486    24095205.286
      -941.235        -733.415
 92  6 13  0 32 48.0000000  0  6  3 20 12 16 24 25                   0.000796920
   -477374.430 6   -371979.608 6  23177895.587    23177914.474    23177914.294
     -2312.182       -1801.692
   -220827.230 9   -172072.323 8  20680619.405    20680632.716    20680630.198
      -982.225        -765.388
    709867.904 5    553142.356 5  24457659.914    24457679.581    24457681.799
      3673.291        2862.193
   -404384.077 7   -315104.834 6  22271210.232    22271227.080    22271225.431
     -1914.326       -1491.664
   -122217.988 8  -1044953.237 7  21904987.303    21905001.123    21904998.425
      2228.490        1736.477
 -19273675.771 6 -15012372.923 5  24094660.204    24094670.906    24094668.688
      -936.605        -729.838
 92  6 13  0 32 51.0000000  0  6  3 20 12 16 24 25                   0.000796750
   -484305.782 6   -377380.670 6  23176579.558    23176595.927    23176595.837
     -2308.870       -1799.046
   -223766.718 8   -174362.831 8  20680057.144    20680073.453    20680070.845
      -977.402        -761.620
    720892.564 5    561732.984 5  24459762.779    24459778.008    24459779.747
      3676.424        2864.763
   -410120.215 7   -319574.548 6  22270114.041    22270135.866    22270134.187
     -1909.719       -1488.081
   -115526.700 8  -1039739.243 7  21906259.082    21906274.312    21906271.704
      2232.394        1739.533
 -19276478.288 6 -15014556.698 5  24094118.179    24094136.946    24094135.687
      -931.713        -725.994
 92  6 13  0 32 54.0000000  0  6  3 20 12 16 24 25                   0.000796580
   -491227.142 6   -382773.929 6  23175269.615    23175278.818    23175278.429
     -2305.495       -1796.560
   -226691.925 9   -176642.213 8  20679500.819    20679516.738    20679514.010
      -972.657        -757.914
    731926.691 5    570331.005 5  24461862.285    24461877.095    24461878.204
      3679.656        2867.328
   -415842.803 7   -324033.704 6  22269031.220    22269046.450    22269044.921
     -1905.220       -1484.549
   -108823.853 8  -1034516.250 7  21907535.839    21907549.839    21907547.650
      2236.223        1742.530
 -19279266.375 6 -15016729.245 5  24093587.636    24093606.433    24093605.414
      -926.913        -722.190
 92  6 13  0 32 57.0000000  0  7  3 20 12 16 24 25  9                0.000796420
   -498138.981 6   -388159.765 6  23173946.391    23173963.329    23173963.449
     -2302.400       -1794.122
   -229603.305 9   -178910.821 8  20678944.674    20678962.962    20678960.144
      -968.152        -754.398
    742969.831 5    578936.050 5  24463965.989    24463979.030    24463979.869
      3682.566        2869.464
   -421552.334 7   -328482.685 6  22267948.670    22267960.152    22267958.383
     -1900.969       -1481.309
   -102109.829 8  -1029284.542 7  21908813.614    21908827.764    21908824.946
      2239.908        1745.334
 -19282040.455 6 -15018890.850 5  24093064.858    24093078.589    24093077.599
      -922.381        -718.729
         0.000 1         0.000 1  22267948.610           0.000           0.000
         0.000           0.000
 92  6 13  0 33  0.0000000  0  7  3 20 12 16 24 25  9                0.000796260
   -505041.139 7   -393538.060 6  23172637.587    23172650.358    23172649.309
     -2299.201       -1791.588
   -232500.772 9   -181168.585 8  20678394.525    20678411.673    20678408.915
      -963.461        -750.712
    754022.108 6    587548.183 5  24466065.255    24466083.063    24466083.453
      3685.621        2871.907
   -427248.753 7   -332921.445 6  22266862.102    22266876.162    22266874.184
     -1896.570       -1477.834
    -95384.438 8  -1024043.981 7  21910094.297    21910107.668    21910104.940
      2243.747        1748.374
 -19284800.459 6 -15021041.491 5  24092541.780    24092554.012    24092552.543
      -917.715        -715.021
         0.01816         0.00216  22266862.042    22266875.563    22266873.884
     -1896.604       -1477.823
 92  6 13  0 33  3.0000000  0  7  3 20 12 16 24 25  9                0.000796110
   -511933.601 6   -398908.805 6  23171321.588    23171338.166    23171338.316
     -2296.042       -1789.123
   -235384.256 9   -183415.457 8  20677847.044    20677862.813    20677859.965
      -958.929        -747.212
    765083.601 5    596167.528 5  24468174.445    24468187.396    24468188.146
      3688.615        2874.151
   -432932.005 7   -337349.952 6  22265779.911    22265794.511    22265792.682
     -1892.346       -1474.541
    -88647.568 8  -1018794.471 7  21911374.771    21911389.341    21911386.643
      2247.435        1751.233
 -19287546.400 6 -15023181.190 5  24092017.953    24092031.684    24092029.975
      -913.129        -711.477
         0.018 7         0.002 6  22265779.851    22265793.912    22265792.383
     -1892.333       -1474.525
 92  6 13  0 33  6.0000000  0  7  3 20 12 16 24 25  9                0.000795960
   -518816.678 6   -404272.236 6  23170016.801    23170028.613    23170028.973
     -2292.870       -1786.596
   -238254.142 9   -185651.731 8  20677301.632    20677316.801    20677313.863
      -954.298        -743.616
    776153.924 5    604793.748 5  24470280.817    24470293.708    24470294.278
      3691.671        2876.454
   -438602.442 7   -341768.474 6  22264701.648    22264715.378    22264714.029
     -1887.910       -1471.149
    -81899.545 8  -1013536.277 7  21912658.332    21912673.742    21912671.073
      2251.250        1754.239
 -19290278.545 6 -15025310.128 5  24091496.794    24091511.364    24091509.715
      -908.392        -707.791
         0.018 7         0.002 6  22264701.588    22264714.779    22264713.729
     -1887.908       -1471.136
 92  6 13  0 33  9.0000000  0  7  3 20 12 16 24 25  9                0.000795820
   -525689.667 6   -409627.803 6  23168706.798    23168720.768    23168720.529
     -2289.250       -1783.944
   -241109.669 9   -187876.799 8  20676759.517    20676773.278    20676770.370
      -949.327        -739.737
    787233.791 5         0.000 1  24472391.146    24472402.448           0.000
      3694.980           0.000
   -444259.285 7   -346176.393 6  22263625.423    22263639.213    22263637.295
     -1883.247       -1467.456
    -75139.587 8  -1008268.777 7  21913945.611    21913960.001    21913957.243
      2255.435        1757.483
 -19292996.073 6 -15027427.696 5  24090980.281    24090994.432    24090992.573
      -903.303        -703.795
         0.018 7         0.002 6  22263625.363    22263638.614    22263636.995
     -1883.249       -1467.458
 92  6 13  0 33 12.0000000  0  7  3 20 12 16 24 25  9                0.000795690
   -532552.548 6   -414975.507 6  23167395.176    23167414.603    23167414.273
     -2286.124       -1781.416
   -243950.764 9   -190090.652 8  20676217.912    20676232.542    20676229.904
      -944.691        -736.136
    798323.282 5   -762793.42715  24474496.589    24474512.568    24474514.846
      3698.012        2881.481
   -449902.514 7   -350573.710 6  22262552.256    22262565.057    22262563.048
     -1878.869       -1464.025
    -68367.625 8  -1002991.921 7  21915233.669    21915248.719    21915246.171
      2259.242        1760.444
 -19295698.852 6 -15029533.744 5  24090463.379    24090479.538    24090478.489
      -898.515        -700.131
         0.018 7         0.002 6  22262552.196    22262564.427    22262562.749
     -1878.865       -1464.025
 92  6 13  0 33 15.0000000  0  7  3 20 12 16 24 25  9                0.000795560
   -539405.441 6   -420315.431 6  23166095.516    23166110.805    23166110.386
     -2282.653       -1778.669
   -246777.563 9   -192293.339 8  20675677.926    20675694.535    20675691.866
      -939.835        -732.310
    809422.281 5   -754144.883 5  24476610.785    24476624.635    24476626.344
      3701.295        2884.062
   -455532.168 7   -354960.453 6  22261480.648    22261493.809    22261491.950
     -1874.272       -1460.410
    -61583.767 8   -997705.805 7  21916527.334    21916539.925    21916537.167
      2263.307        1763.586
 -19298387.016 6 -15031628.421 5  24089951.094    24089968.122    24089967.013
      -893.591        -696.277
         0.018 7         0.002 6  22261480.588    22261493.209    22261491.650
     -1874.285       -1460.411
 92  6 13  0 33 18.0000000  0  7  3 20 12 16 24 25  9                0.000795430
   -546248.733 6   -425647.855 6  23164789.740    23164808.627    23164808.447
     -2279.580       -1776.355
   -249590.462 9   -194485.214 8  20675144.445    20675159.435    20675156.677
      -935.373        -728.857
    820530.291 5   -745489.292 5  24478721.204    24478738.622    24478740.541
      3704.049        2886.295
   -461148.711 7   -359336.977 6  22260410.269    22260424.928    22260423.130
     -1870.031       -1457.158
    -54788.450 8   -992410.748 7  21917818.210    21917832.810    21917829.992
      2266.942        1766.434
 -19301060.919 6 -15033711.968 5  24089445.884    24089459.194    24089458.055
      -889.021        -692.711
         0.018 7         0.002 6  22260410.239    22260424.329    22260422.800
     -1870.042       -1457.157
 92  6 13  0 33 21.0000000  0  7  3 20 12 16 24 25  9                0.000795320
   -553082.674 6   -430972.989 6  23163492.718    23163507.857    23163507.887
     -2276.405       -1773.842
   -252389.645 9   -196666.399 8  20674613.183    20674626.704    20674624.066
      -930.677        -725.217
    831647.130 5   -736826.814 5  24480841.156    24480854.497    24480856.236
      3707.128        2888.732
   -466752.334 7   -363703.433 6  22259341.598    22259358.867    22259356.888
     -1865.662       -1453.750
    -47981.964 8   -987106.998 7  21919114.753    21919128.003    21919125.395
      2270.740        1769.413
 -19303720.718 6 -15035784.541 5  24088943.042    24088952.995    24088951.796
      -884.202        -688.970
         0.018 7         0.002 6  22259341.539    22259358.237    22259356.588
     -1865.659       -1453.751
 92  6 13  0 33 24.0000000  0  7  3 20 12 16 24 25  9                0.000795200
   -559906.939 6   -436290.596 6  23162195.995    23162209.066    23162209.306
     -2273.273       -1771.450
   -255174.747 9   -198836.604 8  20674082.820    20674096.641    20674094.152
      -926.083        -721.614
    842773.087 5   -728157.234 5  24482959.550    24482971.661    24482973.430
      3710.106        2890.921
   -472342.783 7   -368059.621 6  22258276.496    22258294.813    22258293.104
     -1861.370       -1450.427
    -41164.075 8   -981794.360 7  21920410.815    21920425.445    21920422.957
      2274.468        1772.330
 -19306366.084 6 -15037845.870 5  24088436.243    24088450.063    24088448.924
      -879.451        -685.275
         0.018 7         0.002 6  22258276.436    22258294.214    22258292.805
     -1861.353       -1450.425
 92  6 13  0 33 27.0000000  0  7  3 20 12 16 24 25  9                0.000795100
   -566721.792 6   -441600.858 6  23160893.217    23160912.464    23160913.034
     -2270.114       -1768.911
   -257946.024 9   -200996.043 8  20673554.496    20673569.576    20673566.877
      -921.484        -718.006
    853907.975 6         0.000 1  24485073.117    24485090.954           0.000
      3713.057           0.000
   -477920.293 7   -372405.729 6  22257217.569    22257233.518    22257231.629
     -1856.992       -1447.052
    -34334.987 8   -976472.995 7  21921711.735    21921725.076    21921722.437
      2278.215        1775.196
 -19308997.174 6 -15039896.073 5  24087931.002    24087949.589    24087947.611
      -874.709        -681.650
         0.018 7         0.002 6  22257217.509    22257232.918    22257231.329
     -1856.987       -1447.050
 92  6 13  0 33 30.0000000  0  7  3 20 12 16 24 25  9                0.000794990
   -573526.736 6   -446903.405 6  23159604.140    23159617.660    23159617.930
     -2266.829       -1766.380
   -260702.986 9   -203144.323 8  20673029.619    20673044.609    20673042.031
      -916.684        -714.295
    865052.199 5    -37527.92415  24487195.647    24487211.506    24487212.406
      3716.189        2895.765
   -483484.406 7   -376741.394 6  22256163.289    22256174.441    22256173.092
     -1852.574       -1443.532
    -27494.198 8   -971142.512 7  21923013.763    21923026.535    21923024.166
      2282.130        1778.292
 -19311613.521 6 -15041934.784 5  24087440.152    24087451.904    24087450.375
      -869.796        -677.728
         0.018 7         0.002 6  22256163.229    22256173.841    22256172.792
     -1852.559       -1443.534
 92  6 13  0 33 33.0000000  0  7  3 20 12 16 24 25  9                0.000794900
   -580321.964 6   -452198.383 6  23158310.535    23158324.566    23158324.566
     -2263.548       -1763.701
   -263445.817 9   -205281.595 8  20672509.539    20672523.000    20672520.302
      -911.966        -710.595
    876205.564 6    -28837.013 5  24489322.525    24489334.636    24489333.647
      3719.257        2898.050
   -489035.376 7   -381066.829 6  22255106.460    22255118.602    22255116.653
     -1848.176       -1440.115
    -20641.886 8   -965803.051 7  21924317.921    21924330.452    21924328.024
      2285.977        1781.287
 -19314215.411 6 -15043962.226 5  24086942.197    24086957.037    24086955.178
      -864.889        -673.979
         0.018 7         0.002 6  22255106.400    22255118.002    22255116.354
     -1848.173       -1440.110
 92  6 13  0 33 36.0000000  0  7  3 20 12 16 24 25  9                0.000794810
   -587107.405 6   -457485.731 6  23157019.719    23157033.359    23157032.400
     -2260.275       -1761.231
   -266174.382 9   -207407.745 8  20671990.479    20672003.760    20672000.882
      -907.155        -706.868
    887368.140 6    -20138.933 5  24491443.347    24491458.096    24491460.135
      3722.348        2900.580
   -494573.101 7   -385381.930 6  22254050.441    22254064.891    22254062.553
     -1843.745       -1436.659
    -13778.039 8   -960454.602 7  21925623.067    21925636.618    21925634.159
      2289.807        1784.281
 -19316802.791 6 -15045978.364 5  24086459.321    24086464.987    24086462.979
      -860.068        -670.192
         0.018 7         0.002 6  22254050.382    22254064.292    22254062.253
     -1843.735       -1436.664
 92  6 13  0 33 39.0000000  0  7  3 20 12 16 24 25  9                0.000794720
   -593883.348 6   -462765.682 6  23155730.941    23155743.892    23155743.772
     -2257.115       -1758.821
   -268888.884 9   -209522.945 8  20671474.416    20671487.127    20671484.549
      -902.467        -703.212
    898539.675 5    -11433.812 5  24493573.582    24493583.805    24493584.734
      3725.301        2902.841
   -500097.747 7   -389686.849 6  22252997.121    22253013.279    22253011.391
     -1839.321       -1433.252
     -6902.929 8   -955097.373 7  21926932.411    21926945.212    21926942.334
      2293.634        1787.227
 -19319375.962 6 -15047983.430 5  24085961.516    24085975.516    24085972.848
      -855.377        -666.481
         0.018 7         0.002 6  22252997.061    22253012.680    22253011.091
     -1839.318       -1433.265
 92  6 13  0 33 42.0000000  0  7  3 20 12 16 24 25  9                0.000794640
   -600649.667 6   -468038.129 6  23154439.195    23154456.074    23154455.684
     -2253.849       -1756.256
   -271589.240 9   -211627.120 8  20670959.762    20670973.043    20670970.585
      -897.741        -699.525
    909720.358 6     -2721.607 5  24495697.851    24495711.762    24495712.091
      3728.452        2905.161
   -505609.155 7   -393981.448 6  22251952.014    22251964.665    22251962.297
     -1834.921       -1429.772
       -16.389 8   -949731.236 7  21928241.514    21928255.485    21928252.876
      2297.457        1790.200
 -19321934.813 6 -15049977.336 5  24085472.225    24085488.683    24085485.715
      -850.541        -662.761
         0.018 7         0.002 6  22251951.954    22251964.066    22251961.967
     -1834.917       -1429.767
 92  6 13  0 33 45.0000000  0  7  3 20 12 16 24 25  9                0.000794570
   -607406.242 6   -473302.994 6  23153152.516    23153170.683    23153169.424
     -2250.699       -1753.713
   -274275.381 9   -213720.213 8  20670447.357    20670462.077    20670459.589
      -892.999        -695.844
    920910.172 5      5997.708 5  24497831.024    24497841.247    24497840.858
      3731.355        2907.654
   -511107.236 7   -398265.660 6  22250907.657    22250918.090    22250916.231
     -1830.502       -1426.364
      6881.685 8   -944356.122 7  21929555.894    21929568.156    21929565.758
      2301.283        1793.216
 -19324479.317 6 -15051960.069 5  24084987.910    24085004.069    24085002.030
      -845.807        -659.124
         0.018 7         0.002 6  22250907.597    22250917.490    22250915.931
     -1830.517       -1426.368
 92  6 13  0 33 48.0000000  0  7  3 20 12 16 24 25  9                0.000794500
   -614153.353 6   -478560.481 6  23151873.002    23151886.702    23151886.283
     -2247.522       -1751.299
   -276947.445 9   -215802.342 8  20669938.399    20669953.479    20669951.081
      -888.370        -692.262
    932108.957 6     14724.042 5  24499956.073    24499972.202    24499972.802
      3734.355        2909.960
   -516592.243 7   -402539.692 6  22249865.669    22249874.243    22249872.264
     -1826.202       -1423.018
     13791.147 8   -938972.125 7  21930869.495    21930882.926    21930880.737
      2305.025        1796.113
 -19327009.661 6 -15053931.770 5  24084508.452    24084522.212    24084519.274
      -841.108        -655.407
         0.018 7         0.002 6  22249865.579    22249873.643    22249871.964
     -1826.193       -1423.023
 92  6 13  0 33 51.0000000  0  7  3 20 12 16 24 25  9                0.000794440
   -620891.093 6   -483810.655 6  23150590.520    23150604.880    23150603.860
     -2244.401       -1748.911
   -279605.661 9   -217873.678 8  20669431.540    20669447.699    20669445.001
      -883.765        -688.625
    943316.484 5     23457.143 5  24502093.833    24502104.896    24502106.005
      3737.332        2912.166
   -522064.345 7   -406803.664 6  22248820.052    22248832.794    22248830.965
     -1821.894       -1419.675
     20711.812 8   -933579.397 7  21932186.483    21932199.944    21932197.516
      2308.752        1799.052
 -19329526.012 6 -15055892.564 5  24084025.426    24084043.174    24084041.555
      -836.420        -651.789
         0.018 7         0.002 6  22248819.992    22248832.164    22248830.665
     -1821.885       -1419.671
 92  6 13  0 33 54.0000000  0  7  3 20 12 16 24 25  9                0.000794380
   -627619.184 6   -489053.322 6  23149310.046    23149324.226    23149324.196
     -2241.298       -1746.432
   -282249.757 9   -219934.010 8  20668930.347    20668944.408    20668941.949
      -879.068        -684.982
    954532.995 5     32197.249 5  24504225.538    24504238.848    24504239.718
      3740.310        2914.477
   -527523.295 7   -411057.387 6  22247781.991    22247794.163    22247792.544
     -1817.526       -1416.192
     27643.956 8   -928177.736 7  21933506.589    21933519.031    21933516.812
      2312.556        1802.004
 -19332028.159 6 -15057842.276 5  24083554.032    24083567.013    24083565.545
      -831.779        -648.141
         0.018 7         0.001 6  22247781.931    22247793.563    22247792.244
     -1817.517       -1416.197
 92  6 13  0 33 57.0000000  0  7  3 20 12 16 24 25  9                0.000794330
   -634338.051 6   -494288.800 6  23148033.530    23148045.492    23148045.492
     -2238.085       -1744.005
   -284879.954 8   -221983.511 8  20668432.692    20668443.964    20668441.536
      -874.298        -681.275
    965758.198 5     40944.154 5  24506361.289    24506373.940    24506376.249
      3743.320        2916.827
   -532969.305 7   -415301.024 6  22246745.129    22246757.690    22246756.161
     -1813.043       -1412.800
     34587.270 8   -922767.362 7  21934828.134    21934840.306    21934838.118
      2316.422        1805.011
 -19334516.435 6 -15059781.181 5  24083076.073    24083092.952    24083092.442
      -826.997        -644.483
         0.018 7         0.001 6  22246745.069    22246757.091    22246755.861
     -1813.037       -1412.798
 92  6 13  0 34  0.0000000  0  7  3 20 12 16 24 25  9                0.000794280
   -641047.056 6   -499516.579 6  23146752.786    23146768.855    23146768.705
     -2234.683       -1741.344
   -287495.639 9   -224021.704 8  20667934.557    20667946.249    20667943.730
      -869.386        -677.464
    976992.728 5     49698.317 5  24508498.390    24508513.559    24508514.309
      3746.436        2919.381
   -538401.701 7   -419534.052 6  22245713.093    22245723.886    22245721.967
     -1808.495       -1409.228
     41542.359 8   -917347.811 7  21936150.339    21936163.530    21936161.761
      2320.407        1808.102
 -19336990.256 6 -15061708.844 5  24082615.142    24082622.427    24082621.588
      -822.121        -640.556
         0.018 7         0.001 6  22245713.033    22245723.256    22245721.667
     -1808.488       -1409.229
 92  6 13  0 34  3.0000000  0  7  3 20 12 16 24 25  9                0.000794230
   -647745.743 6   -504736.347 6  23145480.048    23145494.528    23145493.988
     -2231.282       -1738.708
   -290096.333 9   -226048.223 8  20667438.760    20667451.261    20667448.773
      -864.488        -673.645
    988237.046 5     58460.111 5  24510638.878    24510652.938    24510653.688
      3749.512        2921.740
   -543820.027 7   -423756.122 6  22244682.647    22244693.109    22244691.461
     -1803.874       -1405.628
     48509.680 8   -911918.733 7  21937476.441    21937489.722    21937487.803
      2324.366        1811.210
 -19339449.040 6 -15063624.775 5  24082144.768    24082155.081    24082154.242
      -817.225        -636.725
         0.018 7         0.001 6  22244682.557    22244692.510    22244691.161
     -1803.873       -1405.632
 92  6 13  0 34  6.0000000  0  7  3 20 12 16 24 25  9                0.000794200
   -654434.983 6   -509948.726 6  23144211.896    23144222.058    23144221.009
     -2228.185       -1736.269
   -292683.019 9   -228063.821 8  20666942.963    20666959.212    20666956.514
      -859.824        -670.019
    999490.155 5     67228.752 5  24512782.274    24512793.816    24512795.465
      3752.526        2924.181
   -549225.282 7   -427968.007 6  22243651.930    22243664.372    22243662.813
     -1799.527       -1402.182
     55488.279 8   -906480.865 7  21938804.432    21938817.683    21938815.404
      2328.157        1814.130
 -19341893.815 6 -15065529.801 5  24081680.180    24081689.803    24081688.094
      -812.486        -633.130
         0.018 7         0.001 6  22243651.870    22243663.772    22243662.513
     -1799.532       -1402.183
 92  6 13  0 34  9.0000000  0  7  3 20 12 16 24 25  9                0.000794170
   -661114.464 6   -515153.520 6  23142938.617    23142950.819    23142949.709
     -2225.085       -1733.789
   -295255.330 9   -230068.221 8  20666455.561    20666469.591    20666467.013
      -855.219        -666.403
   1010752.454 5     76004.568 5  24514917.726    24514937.182    24514937.872
      3755.502        2926.370
   -554617.027 7   -432169.362 6  22242623.612    22242638.392    22242636.503
     -1795.154       -1398.836
     62478.524 8   -901033.922 7  21940133.262    21940147.592    21940145.793
      2331.847        1817.047
 -19344324.118 6 -15067423.557 5  24081214.482    24081227.463    24081225.694
      -807.856        -629.514
         0.018 7         0.001 6  22242623.552    22242637.792    22242636.203
     -1795.151       -1398.835
 92  6 13  0 34 12.0000000  0  7  3 20 12 16 24 25  9                0.000794140
   -667784.718 6   -520351.123 6  23141667.317    23141681.587    23141680.088
     -2222.006       -1731.417
   -297813.914 9   -232061.921 8  20665969.567    20665982.698    20665980.419
      -850.598        -662.810
   1022023.371 5     84787.072 5  24517064.659    24517081.987    24517083.186
      3758.357        2928.631
   -559995.836 7   -436360.638 6  22241601.170    22241614.751    22241613.282
     -1790.827       -1395.395
     69479.825 8   -895578.365 7  21941467.188    21941479.720    21941477.861
      2335.548        1819.937
 -19346740.530 6 -15069306.472 5  24080757.059    24080767.492    24080765.483
      -803.167        -625.860
         0.018 7         0.001 6  22241601.080    22241614.121    22241612.982
     -1790.830       -1395.394
 92  6 13  0 34 15.0000000  0  7  3 20 12 16 24 25  9                0.000794120
   -674445.551 6   -525541.367 6  23140404.082    23140413.705    23140413.285
     -2218.819       -1728.995
   -300358.514 9   -234044.727 8  20665485.672    20665498.503    20665495.865
      -845.889        -659.138
   1033303.152 6     93576.500 5  24519211.473    24519228.711    24519229.760
      3761.359        2930.878
   -565361.508 7   -440541.681 6  22240576.449    22240593.627    22240592.158
     -1786.417       -1392.016
     76492.393 8   -890114.031 7  21942802.074    21942814.276    21942812.357
      2339.382        1822.878
 -19349142.782 6 -15071178.348 5  24080294.509    24080309.379    24080308.449
      -798.425        -622.192
         0.018 7         0.001 6  22240576.359    22240592.998    22240591.859
     -1786.419       -1392.020
 92  6 13  0 34 18.0000000  0  7  3 20 12 16 24 25  9                0.000794100
   -681097.193 6   -530724.454 6  23139134.850    23139147.412    23139147.442
     -2215.583       -1726.396
   -302889.296 9   -236016.763 8  20665003.336    20665016.797    20665014.338
      -841.132        -655.444
   1044591.535 5    102372.632 5  24521359.366    24521376.424    24521376.754
      3764.366        2933.247
   -570714.306 7   -444712.688 6  22239559.134    22239574.993    22239573.284
     -1781.967       -1388.535
     83515.917 8   -884641.155 7  21944136.181    21944150.721    21944148.742
      2343.151        1825.820
 -19351531.082 6 -15073039.360 5  24079842.212    24079856.093    24079853.724
      -793.636        -618.405
         0.018 7         0.001 6  22239559.044    22239574.363    22239572.954
     -1781.978       -1388.538
 92  6 13  0 34 21.0000000  0  7  3 20 12 16 24 25  9                0.000794090
   -687739.371 6   -535900.176 6  23137868.737    23137884.056    23137883.097
     -2212.586       -1724.088
   -305405.965 9   -237977.802 8  20664522.769    20664537.998    20664535.810
      -836.601        -651.889
   1055888.804 6    111175.667 5  24523512.146    24523526.926    24523526.896
      3767.131        2935.402
   -576053.992 7   -448873.479 6  22238544.936    22238558.726    22238557.347
     -1777.787       -1385.274
     90550.630 8   -879159.562 7  21945477.032    21945489.684    21945487.165
      2346.719        1828.598
 -19353905.131 5 -15074889.272 5  24079388.146    24079404.095    24079402.117
      -789.088        -614.781
         0.018 7         0.001 6  22238544.846    22238558.127    22238557.047
     -1777.785       -1385.267
 92  6 13  0 34 24.0000000  0  7  3 20 12 16 24 25  9                0.000794080
   -694372.385 6   -541068.740 6  23136607.300    23136621.870    23136620.671
     -2209.658       -1721.764
   -307908.776 9   -239928.046 8  20664046.368    20664061.568    20664059.199
      -832.018        -648.317
   1067194.566 6    119985.358 5  24525660.339    24525677.367    24525679.435
      3769.927        2937.539
   -581380.867 7   -453024.286 6  22237532.597    22237545.248    22237543.659
     -1773.565       -1381.986
     97596.276 8   -873669.454 7  21946816.895    21946830.116    21946828.347
      2350.282        1831.397
 -19356265.284 6 -15076728.352 5  24078937.438    24078955.216    24078953.148
      -784.500        -611.239
         0.018 7         0.001 6  22237532.507    22237544.648    22237543.359
     -1773.561       -1381.981
 92  6 13  0 34 27.0000000  0  7  3 20 12 16 24 25  9                0.000794080
   -700996.284 6   -546230.221 6  23135344.005    23135361.213    23135360.703
     -2206.491       -1719.399
   -310397.768 9   -241867.519 8  20663574.015    20663588.166    20663585.527
      -827.369        -644.683
   1078508.869 5    128801.685 5  24527815.577    24527831.166    24527832.125
      3772.760        2939.796
   -586695.030 7   -457165.192 6  22236520.947    22236533.868    22236532.549
     -1769.245       -1378.626
    104652.750 8   -868170.904 7  21948161.044    21948173.156    21948171.027
      2353.977        1834.234
 -19358611.659 6 -15078556.695 5  24078494.945    24078508.405    24078507.296
      -779.840        -607.690
         0.018 7         0.001 6  22236520.857    22236533.238    22236532.249
     -1769.254       -1378.623
 92  6 13  0 34 30.0000000  0  7  3 20 12 16 24 25  9                0.000794090
   -707610.608 6   -551384.226 6  23134084.726    23134101.964    23134101.605
     -2203.238       -1716.784
   -312872.550 9   -243795.913 8  20663102.652    20663117.162    20663114.913
      -822.485        -640.895
   1089832.163 5    137625.017 5  24529968.686    24529985.265    24529987.243
      3775.938        2942.302
   -591996.016 7   -461295.825 6  22235510.347    22235525.126    22235523.567
     -1764.739       -1375.108
    111720.526 8   -862663.553 7  21949504.714    21949518.055    21949515.956
      2357.880        1837.302
 -19360943.808 6 -15080373.952 5  24078053.021    24078065.132    24078063.064
      -774.932        -603.864
         0.018 7         0.001 6  22235510.257    22235524.527    22235523.268
     -1764.727       -1375.104
 92  6 13  0 34 33.0000000  0  7  3 20 12 16 24 25  9                0.000794100
   -714215.270 6   -556530.714 6  23132832.134    23132845.175    23132844.665
     -2199.981       -1714.277
   -315333.047 9   -245713.190 8  20662635.815    20662649.066    20662646.487
      -817.763        -637.211
   1101164.488 6    146455.377 5  24532127.222    24532142.151    24532144.160
      3779.012        2944.597
   -597283.771 7   -465416.150 6  22234503.074    22234519.173    22234517.494
     -1760.301       -1371.763
    118799.712 8   -857147.300 7  21950850.482    21950865.232    21950863.104
      2361.663        1840.253
 -19363261.643 6 -15082180.039 5  24077609.088    24077624.407    24077621.440
      -770.232        -600.105
         0.018 7         0.001 6  22234502.984    22234518.573    22234517.194
     -1760.308       -1371.763
 92  6 13  0 34 36.0000000  0  7  3 20 12 16 24 25  9                0.000794110
   -720810.642 6   -561669.954 6  23131572.705    23131589.854    23131589.164
     -2197.059       -1711.979
   -317779.628 9   -247619.614 8  20662168.558    20662183.548    20662180.820
      -813.269        -633.723
   1112505.513 6    155292.523 5  24534285.398    24534300.207    24534301.796
      3781.698        2946.788
   -602558.696 7   -469526.476 6  22233502.397    22233515.408    22233513.879
     -1756.204       -1368.491
    125889.901 8   -851622.480 7  21952200.748    21952214.358    21952212.410
      2365.146        1843.001
 -19365565.503 6 -15083975.261 5  24077174.839    24077185.721    24077183.233
      -765.763        -596.606
         0.018 7         0.001 6  22233502.307    22233514.808    22233513.579
     -1756.212       -1368.488
 92  6 13  0 34 39.0000000  0  7  3 20 12 16 24 25  9                0.000794130
   -727397.083 6   -566802.240 6  23130319.843    23130335.972    23130335.792
     -2193.936       -1709.546
   -320212.632 9   -249515.459 8  20661706.128    20661720.219    20661717.910
      -808.616        -630.089
   1123854.880 5    164136.165 5  24536437.937    24536459.672    24536461.081
      3784.558        2949.065
   -607821.106 7   -473627.056 6  22232501.360    22232514.251    22232512.332
     -1751.913       -1365.130
    132990.754 8   -846089.347 7  21953551.822    21953565.583    21953563.694
      2368.842        1845.901
 -19367855.726 6 -15085759.846 5  24076737.471    24076749.883    24076747.335
      -760.996        -593.035
         0.018 7         0.001 6  22232501.270    22232513.621    22232512.032
     -1751.909       -1365.139
 92  6 13  0 34 42.0000000  0  7  3 20 12 16 24 25  9                0.000794150
   -733974.098 6   -571927.181 5  23129069.498    23129085.058    23129085.267
     -2190.856       -1707.180
   -322631.648 9   -251400.411 8  20661244.778    20661260.157    20661257.519
      -804.055        -626.522
   1135213.001 6    172986.630 5  24538606.037    24538621.176    24538622.825
      3787.470        2951.195
   -613070.530 7   -477717.513 6  22231501.552    22231515.312    22231513.633
     -1747.643       -1361.828
    140102.714 8   -840547.564 7  21954904.636    21954919.026    21954916.897
      2372.491        1848.684
 -19370131.817 6 -15087533.423 5  24076305.950    24076316.473    24076313.865
      -756.381        -589.401
         0.018 7         0.001 6  22231501.492    22231514.713    22231513.304
     -1747.638       -1361.825
 92  6 13  0 34 45.0000000  0  6  3 20 12 16 24 25                   0.000794190
   -740541.727 6   -577044.819 6  23127822.721    23127836.362    23127834.893
     -2187.843       -1704.724
   -325036.706 9   -253274.483 8  20660787.295    20660802.404    20660799.916
      -799.413        -622.970
   1146579.923 6    181843.964 5  24540767.870    24540783.909    24540784.688
      3790.318        2953.524
   -618306.926 7   -481797.825 6  22230504.052    22230518.652    22230516.793
     -1743.366       -1358.498
    147225.789 8   -834997.125 7  21956260.207    21956274.627    21956272.559
      2376.147        1851.546
 -19372393.764 5 -15089295.967 5  24075866.844    24075884.652    24075883.393
      -751.658        -585.694
 92  6 13  0 34 48.0000000  0  6  3 20 12 16 24 25                   0.000794220
   -747100.113 6   -582155.236 5  23126570.548    23126587.846    23126586.587
     -2184.584       -1702.256
   -327428.024 9   -255137.847 8  20660332.240    20660347.139    20660344.741
      -794.750        -619.284
   1157955.447 6    190707.984 5  24542931.232    24542949.220    24542950.389
      3793.278        2955.825
   -623530.569 7   -485868.189 6  22229509.401    22229524.420    22229522.862
     -1738.995       -1355.057
    154359.712 8   -829438.218 7  21957619.137    21957631.788    21957630.049
      2379.851        1854.391
 -19374641.721 5 -15091047.621 5  24075442.038    24075457.208    24075456.308
      -747.002        -582.034
 92  6 13  0 34 51.0000000  0  7  3 20 12 16 24 25 10                0.000794260
   -753649.306 7   -587258.502 6  23125330.397    23125341.939    23125340.050
     -2181.713       -1700.002
   -329805.558 9   -256990.475 8  20659881.352    20659894.782    20659892.144
      -790.328        -615.830
   1169339.562 6    199578.701 5  24545100.830    24545115.370    24545116.899
      3796.037        2957.895
   -628741.395 7   -489928.572 6  22228516.668    22228533.127    22228531.328
     -1734.900       -1351.842
    161504.483 8   -823870.872 7  21958978.965    21958991.497    21958989.848
      2383.309        1857.151
 -19376875.813 5 -15092788.479 5  24075016.453    24075031.832    24075031.532
      -742.515        -578.554
         0.000 1         0.000 1  21958978.965           0.000           0.000
         0.000           0.000
 92  6 13  0 34 54.0000000  0  7  3 20 12 16 24 25 10                0.000794300
   -760189.380 6   -592354.657 6  23124086.768    23124097.410    23124096.001
     -2178.499       -1697.596
   -332169.534 9   -258832.524 8  20659430.284    20659444.824    20659442.276
      -785.698        -612.248
   1180732.109 6    208456.003 5  24547265.062    24547282.990    24547284.009
      3798.922        2960.203
   -633939.605 7   -493979.116 6  22227529.811    22227543.872    22227542.493
     -1730.560       -1348.511
    168659.920 8   -818295.209 7  21960338.494    21960352.914    21960351.595
      2386.959        1859.928
 -19379096.194 5 -15094518.645 5  24074586.101    24074609.275    24074608.226
      -737.831        -574.870
        -0.00118        -0.00417  21960338.494    21960352.824    21960351.445
      2386.968        1859.938
 92  6 13  0 34 57.0000000  0  7  3 20 12 16 24 25 10                0.000794350
   -766719.990 6   -597443.443 5  23122837.473    23122853.841    23122853.152
     -2175.327       -1695.014
   -334519.605 9   -260663.748 8  20658982.394    20658998.013    20658995.345
      -781.030        -608.599
   1192133.498 6    217340.193 5  24549439.067    24549452.588    24549454.566
      3801.945        2962.570
   -639124.745 7   -498019.482 6  22226542.925    22226556.895    22226555.636
     -1726.158       -1345.082
    175826.391 8   -812710.943 7  21961701.590    21961716.820    21961714.781
      2390.697        1862.884
 -19381302.602 5 -15096237.919 5  24074172.477    24074190.285    24074189.086
      -733.048        -571.214
        -0.001 8        -0.004 7  21961701.590    21961716.700    21961714.661
      2390.689        1862.881
 92  6 13  0 35  0.0000000  0  7  3 20 12 16 24 25 10                0.000794410
   -773241.460 6   -602525.098 5  23121596.242    23121612.281    23121612.401
     -2172.490       -1692.913
   -336856.124 9   -262484.412 8  20658537.562    20658553.211    20658550.753
      -776.628        -605.155
   1203543.369 6    226230.984 5  24551604.378    24551624.344    24551624.884
      3804.634        2964.602
   -644297.083 7   -502049.872 6  22225558.886    22225572.766    22225571.057
     -1722.053       -1341.826
    183003.598 8   -807118.316 7  21963067.655    21963082.674    21963080.726
      2394.092        1865.557
 -19383495.325 5 -15097946.533 5  24073757.774    24073773.244    24073771.205
      -728.734        -567.856
        -0.001 8        -0.004 7  21963067.625    21963082.554    21963080.576
      2394.090        1865.556
 92  6 13  0 35  3.0000000  0  7  3 20 12 16 24 25 10                0.000794470
   -779753.869 6   -607599.703 5  23120360.288    23120373.299    23120372.369
     -2169.270       -1690.330
   -339179.018 9   -264294.455 8  20658094.918    20658111.377    20658108.739
      -772.004        -601.554
   1214961.793 6    235128.434 5  24553777.603    24553797.180    24553798.559
      3807.595        2966.866
   -649456.569 7   -506070.250 6  22224579.224    22224590.796    22224589.627
     -1717.638       -1338.458
    190191.553 8   -801517.316 7  21964436.777    21964450.597    21964448.559
      2397.790        1868.420
 -19385674.437 6 -15099644.541 5  24073339.954    24073357.551    24073356.502
      -724.032        -564.282
        -0.001 8        -0.004 7  21964436.777    21964450.507    21964448.439
      2397.788        1868.422
 92  6 13  0 35  6.0000000  0  7  3 20 12 16 24 25 10                0.000794540
   -786256.836 6   -612666.943 6  23119122.055    23119136.055    23119135.785
     -2166.234       -1687.963
   -341488.148 9   -266093.780 8  20657656.772    20657671.731    20657669.423
      -767.450        -598.017
   1226388.933 6    244032.681 5  24555953.917    24555971.904    24555972.804
      3810.428        2969.196
   -654603.088 7   -510080.524 6  22223597.224    22223611.434    22223610.415
     -1713.398       -1335.098
    197390.398 8   -795907.829 7  21965805.269    21965820.259    21965818.101
      2401.401        1871.212
 -19387839.653 5 -15101331.724 5  24072935.563    24072945.966    24072944.467
      -719.500        -560.583
        -0.001 8        -0.004 7  21965805.269    21965820.169    21965817.951
      2401.403        1871.213
 92  6 13  0 35  9.0000000  0  7  3 20 12 16 24 25 10                0.000794610
   -792750.872 6   -617727.225 5  23117886.340    23117900.760    23117899.801
     -2163.268       -1685.680
   -343783.955 9   -267882.720 8  20657222.762    20657234.904    20657232.386
      -763.100        -594.597
   1237824.316 6    252943.354 5  24558129.361    24558147.648    24558148.188
      3813.096        2971.233
   -659736.987 7   -514080.959 6  22222620.020    22222634.440    22222633.031
     -1709.228       -1331.881
    204599.708 8   -790290.185 7  21967176.460    21967192.079    21967190.490
      2404.817        1873.852
 -19389991.442 5 -15103008.433 5  24072522.000    24072535.970    24072534.531
      -715.038        -557.170
        -0.001 8        -0.004 7  21967176.460    21967191.989    21967190.341
      2404.819        1873.860
 92  6 13  0 35 12.0000000  0  7  3 20 12 16 24 25 10                0.000794680
   -799235.699 6   -622780.334 6  23116652.155    23116666.875    23116665.885
     -2160.155       -1683.242
   -346066.191 9   -269661.086 8  20656787.014    20656800.595    20656797.956
      -758.417        -590.967
   1249268.261 6    261860.712 5  24560309.631    24560325.071    24560326.030
      3816.144        2973.475
   -664858.052 7   -518071.398 6  22221645.605    22221660.295    22221658.586
     -1704.824       -1328.412
    211819.668 8   -784664.245 7  21968550.229    21968566.208    21968563.960
      2408.496        1876.729
 -19392129.442 5 -15104674.411 5  24072117.100    24072129.541    24072128.492
      -710.322        -553.469
        -0.001 8        -0.003 7  21968550.199    21968566.118    21968563.810
      2408.492        1876.726
 92  6 13  0 35 15.0000000  0  7  3 20 12 16 24 25 10                0.000794760
   -805711.343 7   -627826.283 6  23115420.487    23115434.278    23115432.749
     -2157.104       -1680.876
   -348334.845 9   -271428.866 8  20656354.323    20656368.923    20656366.435
      -754.034        -587.577
   1260720.867 6    270784.802 5  24562487.294    24562504.652    24562505.971
      3818.893        2975.707
   -669966.218 7   -522051.781 6  22220675.237    22220688.308    22220686.689
     -1700.667       -1325.205
    219050.302 8   -779029.988 7  21969924.508    21969942.225    21969939.947
      2411.898        1879.377
 -19394253.536 5 -15106329.548 5  24071714.779    24071725.271    24071723.772
      -705.761        -549.928
        -0.001 8        -0.003 7  21969924.508    21969942.106    21969939.797
      2411.894        1879.385
 92  6 13  0 35 18.0000000  0  7  3 20 12 16 24 25 10                0.000794850
   -812178.021 6   -632865.257 6  23114190.829    23114203.900    23114202.551
     -2154.282       -1678.527
   -350590.338 9   -273186.398 8  20655923.102    20655939.770    20655937.162
      -749.681        -584.163
   1272181.648 6    279715.268 5  24564672.331    24564685.822    24564686.571
      3821.559        2977.840
   -675061.849 7   -526022.407 6  22219706.367    22219718.569    22219716.860
     -1696.470       -1321.973
    226291.231 8   -773387.709 7  21971306.401    21971320.102    21971318.033
      2415.318        1882.081
 -19396364.141 5 -15107974.172 5  24071306.551    24071323.669    24071322.590
      -701.338        -546.470
        -0.001 8        -0.003 7  21971306.401    21971320.012    21971317.883
      2415.315        1882.087
 92  6 13  0 35 21.0000000  0  7  3 20 12 16 24 25 10                0.000794940
   -818636.088 6   -637897.509 5  23112960.900    23112974.810    23112973.102
     -2151.330       -1676.363
   -352832.878 9   -274933.830 8  20655497.217    20655512.896    20655510.228
      -745.322        -580.761
   1283650.420 6    288651.954 5  24566859.497    24566868.191    24566868.941
      3824.269        2979.938
   -680145.108 7   -529983.377 6  22218736.779    22218751.588    22218749.340
     -1692.303       -1318.661
    233542.204 8   -767737.609 7  21972686.016    21972699.687    21972698.038
      2418.697        1884.683
 -19398461.512 5 -15109608.488 5  24070902.431    24070925.215    24070923.416
      -696.868        -543.049
        -0.001 8        -0.003 7  21972686.016    21972699.597    21972697.888
      2418.698        1884.684
 92  6 13  0 35 24.0000000  0  7  3 20 12 16 24 25 10                0.000795030
   -825085.294 7   -642922.858 5  23111732.650    23111747.310    23111746.981
     -2148.369       -1674.121
   -355062.227 9   -276670.986 8  20655073.850    20655088.720    20655086.051
      -740.962        -577.392
   1295127.438 6    297595.085 5  24569039.858    24569052.149    24569052.929
      3827.033        2982.011
   -685215.650 7   -533934.452 6  22217774.385    22217786.646    22217784.278
     -1688.118       -1315.393
    240803.410 8   -762079.524 7  21974067.610    21974081.490    21974079.361
      2422.054        1887.300
 -19400545.444 5 -15111232.340 5  24070505.896    24070528.170    24070526.461
      -692.442        -539.705
        -0.001 8        -0.003 7  21974067.610    21974081.400    21974079.212
      2422.053        1887.299
 92  6 13  0 35 27.0000000  0  7  3 20 12 16 24 25 10                0.000795140
   -831525.492 7   -647941.202 6  23110508.628    23110521.519    23110520.859
     -2145.409       -1671.746
   -357278.296 9   -278397.788 8  20654651.862    20654667.032    20654664.573
      -736.492        -573.878
   1306612.757 6    306544.669 5  24571224.475    24571237.756    24571239.375
      3829.817        2984.163
   -690273.297 7   -537875.472 6  22216811.002    22216823.953    22216822.364
     -1683.742       -1311.964
    248074.861 8   -756413.461 7  21975450.882    21975465.182    21975463.143
      2425.496        1890.014
 -19402615.817 6 -15112845.614 5  24070123.990    24070133.823    24070132.474
      -687.961        -536.001
        -0.001 8        -0.003 7  21975450.882    21975465.092    21975463.024
      2425.496        1890.006
 92  6 13  0 35 30.0000000  0  7  3 20 12 16 24 25 10                0.000795240
   -837956.889 7   -652952.674 6  23109279.988    23109298.156    23109297.107
     -2142.576       -1669.441
   -359481.236 9   -280114.363 8  20654234.281    20654247.862    20654245.044
      -732.307        -570.621
   1318106.232 6    315500.609 5  24573412.361    24573424.892    24573426.421
      3832.324        2986.223
   -695318.188 7   -541806.554 6  22215847.409    22215863.748    22215861.949
     -1679.692       -1308.850
    255356.301 8   -750739.611 7  21976839.041    21976850.793    21976848.724
      2428.643        1892.450
 -19404672.881 6 -15114448.516 5  24069721.848    24069742.984    24069741.455
      -683.618        -532.703
        -0.001 8        -0.003 7  21976839.041    21976850.673    21976848.604
      2428.646        1892.450
 92  6 13  0 35 33.0000000  0  7  3 20 12 16 24 25 10                0.000795350
   -844379.389 7   -657957.218 6  23108060.942    23108075.962    23108074.523
     -2139.421       -1667.093
   -361671.062 9   -281820.722 8  20653815.771    20653831.030    20653828.362
      -727.711        -567.049
   1329607.909 6    324462.941 5  24575599.197    24575613.197    24575615.326
      3835.205        2988.548
   -700350.343 7   -545727.702 6  22214891.461    22214906.330    22214904.682
     -1675.206       -1305.361
    262647.694 8   -745058.010 7  21978223.273    21978238.112    21978236.553
      2432.205        1895.247
 -19406716.712 5 -15116041.093 5  24069337.035    24069353.943    24069351.755
      -679.004        -529.113
        -0.001 8        -0.003 7  21978223.273    21978238.022    21978236.434
      2432.203        1895.239
 92  6 13  0 35 36.0000000  0  7  3 20 12 16 24 25 10                0.000795470
   -850793.059 7   -662954.882 5  23106837.459    23106855.717    23106854.278
     -2136.592       -1664.812
   -363847.801 9   -283516.878 8  20653400.528    20653416.837    20653414.409
      -723.489        -563.742
   1341117.769 6    333431.656 5  24577791.639    24577803.571    24577805.010
      3837.784        2990.574
   -705369.752 7   -549638.932 6  22213937.191    22213951.162    22213949.423
     -1671.096       -1302.150
    269949.052 8   -739368.638 7  21979613.650    21979627.680    21979625.792
      2435.366        1897.676
 -19408747.344 6 -15117623.413 5  24068949.013    24068967.451    24068964.393
      -674.775        -525.761
        -0.001 8        -0.003 7  21979613.650    21979627.560    21979625.672
      2435.365        1897.681
 92  6 13  0 35 39.0000000  0  7  3 20 12 16 24 25 10                0.000795590
   -857198.086 7   -667945.807 5  23105624.589    23105636.940    23105635.381
     -2133.601       -1662.575
   -366011.713 9   -285203.044 8  20652988.584    20653004.982    20653002.464
      -719.115        -560.358
   1352635.583 6    342406.537 5  24579983.482    24579995.383    24579997.122
      3840.627        2992.679
   -710376.708 7   -553540.456 6  22212986.669    22212998.751    22212997.102
     -1666.873       -1298.879
    277260.154 8   -733671.682 7  21981003.158    21981018.807    21981017.039
      2438.698        1900.263
 -19410765.089 6 -15119195.669 5  24068565.489    24068584.076    24068581.168
      -670.383        -522.362
        -0.001 8        -0.003 7  21981003.128    21981018.717    21981016.889
      2438.693        1900.258
 92  6 13  0 35 42.0000000  0  7  3 20 12 16 24 25 10                0.000795710
   -863594.309 7   -672929.878 6  23104401.855    23104420.143    23104418.644
     -2130.728       -1660.265
   -368162.607 9   -286879.062 8  20652578.827    20652595.795    20652593.127
      -714.811        -556.987
   1364161.538 6    351387.796 5  24582174.665    24582188.815    24582190.104
      3843.316        2994.763
   -715371.022 7   -557432.119 6  22212033.659    22212048.139    22212046.430
     -1662.680       -1295.597
    284581.219 8   -727966.958 7  21982398.722    21982412.153    21982410.204
      2442.009        1902.851
 -19412769.717 6 -15120757.716 5  24068189.489    24068202.260    24068199.802
      -666.063        -518.943
        -0.001 8        -0.003 7  21982398.722    21982412.033    21982410.054
      2442.008        1902.858
 92  6 13  0 35 45.0000000  0  7  3 20 12 16 24 25 10                0.000795840
   -869981.404 7   -677906.828 5  23103190.214    23103204.694    23103202.835
     -2127.577       -1657.812
   -370300.256 9   -288544.770 8  20652174.137    20652188.917    20652186.639
      -710.294        -553.467
   1375695.910 6    360375.605 5  24584370.524    24584383.865    24584385.094
      3846.185        2997.000
   -720352.402 7   -561313.713 6  22211087.154    22211100.195    22211098.936
     -1658.260       -1292.128
    291912.544 8   -722254.242 7  21983794.436    21983807.237    21983805.228
      2445.527        1905.641
 -19414761.008 6 -15122309.367 5  24067816.817    24067824.042    24067820.984
      -661.483        -515.464
        -0.001 8        -0.003 7  21983794.406    21983807.117    21983805.108
      2445.530        1905.644
 92  6 13  0 35 48.0000000  0  7  3 20 12 16 24 25 10                0.000795980
   -876359.647 7   -682876.885 6  23101975.725    23101991.044    23101989.785
     -2124.672       -1655.569
   -372424.932 9   -290200.355 8  20651771.036    20651784.497    20651781.769
      -706.061        -550.151
   1387238.468 6    369369.791 5  24586564.645    24586580.175    24586580.924
      3848.908        2999.078
   -725321.058 7   -565185.389 6  22210137.712    22210154.920    22210152.821
     -1654.093       -1288.873
    299253.959 8   -716533.657 7  21985190.629    21985204.420    21985202.051
      2448.830        1908.199
 -19416739.164 6 -15123850.807 5  24067432.213    24067446.873    24067444.355
      -657.138        -511.998
        -0.001 8        -0.003 7  21985190.599    21985204.330    21985201.931
      2448.828        1908.193
 92  6 13  0 35 51.0000000  0  7  3 20 12 16 24 25 10                0.000796120
   -882729.474 7   -687840.385 6  23100766.212    23100779.013    23100777.395
     -2121.978       -1653.470
   -374537.095 9   -291846.198 8  20651368.415    20651382.685    20651380.107
      -701.964        -547.005
   1398788.721 6    378369.971 5  24588761.704    24588777.863    24588779.482
      3851.224        3000.961
   -730277.412 7   -569047.478 6  22209195.464    22209211.293    22209209.614
     -1650.115       -1285.741
    306604.974 8   -710805.604 7  21986587.812    21986603.161    21986601.542
      2451.872        1910.605
 -19418704.702 6 -15125382.382 5  24067054.595    24067072.432    24067070.754
      -653.129        -508.854
        -0.001 8        -0.003 7  21986587.782    21986603.071    21986601.423
      2451.873        1910.605
 92  6 13  0 35 54.0000000  0  7  3 20 12 16 24 25 10                0.000796260
   -889090.854 7   -692797.291 6  23099554.331    23099568.362    23099567.252
     -2119.012       -1651.128
   -376636.659 9   -293482.219 8  20650969.152    20650983.332    20650980.694
      -697.639        -543.600
   1410346.727 6    387376.196 5  24590966.408    24590977.920    24590978.880
      3854.052        3003.135
   -735221.338 7   -572899.880 6  22208253.396    22208270.544    22208268.895
     -1645.756       -1282.424
    313965.625 8   -705070.029 7  21987991.290    21988003.942    21988001.813
      2455.269        1913.177
 -19420657.510 6 -15126904.052 5  24066689.118    24066700.990    24066699.401
      -648.733        -505.362
        -0.001 8        -0.003 7  21987991.290    21988003.822    21988001.663
      2455.271        1913.178
 92  6 13  0 35 57.0000000  0  7  3 20 12 16 24 25 10                0.000796410
   -895443.233 7   -697747.191 6  23098342.180    23098359.928    23098358.309
     -2116.072       -1648.873
   -378723.171 9   -295108.079 8  20650570.937    20650586.227    20650583.529
      -693.356        -540.269
   1421913.025 6    396388.887 5  24593166.555    24593178.847    24593180.465
      3856.749        3005.227
   -740152.290 7   -576742.186 6  22207321.371    22207332.314    22207330.365
     -1641.496       -1279.136
    321336.411 8   -699326.559 7  21989393.090    21989406.641    21989404.602
      2458.600        1915.808
 -19422597.052 6 -15128415.378 5  24066310.660    24066331.855    24066330.476
      -644.325        -502.051
        -0.001 8        -0.003 7  21989393.090    21989406.521    21989404.452
      2458.598        1915.808
 92  6 13  0 36  0.0000000  0  7  3 20 12 16 24 25 10                0.000796560
   -901786.999 7   -702690.382 6  23097135.456    23097152.304    23097150.715
     -2113.258       -1646.764
   -380797.010 9   -296724.053 8  20650176.950    20650191.670    20650189.062
      -689.256        -537.080
   1433487.258 6    405407.753 5  24595363.554    24595381.272    24595382.411
      3859.205        3007.239
   -745070.621 7   -580574.647 6  22206382.002    22206396.362    22206394.833
     -1637.464       -1275.947
    328717.008 8   -693575.449 7  21990798.907    21990811.078    21990808.710
      2461.774        1918.257
 -19424523.652 6 -15129916.612 5  24065955.406    24065965.239    24065963.530
      -640.105        -498.818
        -0.001 8        -0.002 7  21990798.907    21990810.988    21990808.590
      2461.769        1918.255
 92  6 13  0 36  3.0000000  0  7  3 20 12 16 24 25 10                0.000796720
   -908122.228 7   -707626.919 6  23095933.468    23095946.929    23095945.490
     -2110.450       -1644.458
   -382858.259 9   -298330.217 8  20649785.031    20649799.421    20649796.633
      -684.981        -533.771
   1445069.340 6    414432.740 5  24597575.483    24597585.046    24597586.515
      3861.920        3009.211
   -749976.444 7   -584397.361 6  22205448.118    22205462.688    22205460.859
     -1633.260       -1272.639
    336107.383 8   -687816.720 7  21992204.244    21992217.375    21992215.456
      2465.036        1920.801
 -19426437.287 6 -15131407.765 5  24065588.190    24065601.321    24065599.522
      -635.816        -495.475
        -0.001 8        -0.002 7  21992204.214    21992217.285    21992215.306
      2465.039        1920.803
 92  6 13  0 36  6.0000000  0  7  3 20 12 16 24 25 10                0.000796880
   -914449.071 7   -712556.919 6  23094730.101    23094742.872    23094741.013
     -2107.602       -1642.294
   -384907.019 9   -299926.654 8  20649396.830    20649409.601    20649406.603
      -680.784        -530.474
   1456659.100 5    423463.706 5  24599778.748    24599790.649    24599791.639
      3864.533        3011.425
   -754869.966 7   -588210.495 6  22204515.254    22204531.773    22204529.524
     -1629.095       -1269.425
    343507.340 8   -682050.522 7  21993612.459    21993625.380    21993623.341
      2468.295        1923.323
 -19428338.097 6 -15132888.913 5  24065225.351    24065240.191    24065236.623
      -631.458        -491.964
        -0.001 8        -0.002 7  21993612.429    21993625.290    21993623.221
      2468.295        1923.324
 92  6 13  0 36  9.0000000  0  7  3 20 12 16 24 25 10                0.000797050
   -920767.135 7   -717480.066 6  23093525.775    23093540.105    23093539.535
     -2104.580       -1639.936
   -386942.954 9   -301513.096 8  20649008.089    20649022.179    20649019.391
      -676.471        -527.127
   1468256.952 5    432500.966 5  24601980.184    24601997.062    24601999.370
      3867.226        3013.542
   -759750.866 7   -592013.789 6  22203589.675    22203602.926    22203600.767
     -1624.813       -1266.092
    350917.183 8   -676276.620 7  21995021.364    21995035.604    21995033.355
      2471.604        1925.936
 -19430225.674 6 -15134359.754 5  24064865.181    24064881.189    24064878.012
      -626.976        -488.551
        -0.001 8        -0.002 7  21995021.364    21995035.484    21995033.235
      2471.602        1925.937
 92  6 13  0 36 12.0000000  0  7  3 20 12 16 24 25 10                0.000797230
   -927076.275 7   -722396.291 6  23092322.528    23092339.676    23092338.177
     -2101.747       -1637.712
   -388965.998 9   -303089.494 8  20648622.676    20648637.126    20648634.338
      -672.251        -523.829
   1479862.998 6    441544.638 5  24604190.074    24604206.262    24604207.582
      3869.956        3015.497
   -764618.959 7   -595807.108 6  22202662.926    22202676.657    22202674.408
     -1620.670       -1262.821
    358337.003 8   -670494.949 7  21996431.437    21996447.416    21996445.048
      2474.836        1928.482
 -19432099.924 6 -15135820.202 5  24064509.447    24064524.107    24064521.169
      -622.676        -485.180
        -0.001 8        -0.002 7  21996431.407    21996447.326    21996444.928
      2474.835        1928.484
 92  6 13  0 36 15.0000000  0  7  3 20 12 16 24 25 10                0.000797400
   -933376.966 7   -727305.921 6  23091125.067    23091140.296    23091139.757
     -2098.986       -1635.622
   -390976.555 9   -304656.161 8  20648240.411    20648254.321    20648251.773
      -668.197        -520.690
   1491476.829 5    450594.351 5  24606402.332    24606416.243    24606418.401
      3872.398        3017.559
   -769474.691 7   -599590.789 6  22201739.566    22201752.457    22201750.448
     -1616.632       -1259.651
    365766.398 8   -664705.808 7  21997845.798    21997861.238    21997858.989
      2477.981        1930.882
 -19433961.341 6 -15137270.669 5  24064160.968    24064169.962    24064166.934
      -618.404        -481.823
        -0.001 8        -0.002 7  21997845.768    21997861.118    21997858.869
      2477.985        1930.886
 92  6 13  0 36 18.0000000  0  7  3 20 12 16 24 25 10                0.000797590
   -939669.479 7   -732209.172 6  23089929.285    23089942.625    23089942.655
     -2096.128       -1633.397
   -392974.945 9   -306213.348 8  20647859.734    20647874.094    20647871.366
      -664.027        -517.437
   1503098.112 5    459649.872 5  24608616.000    24608627.272    24608629.640
      3875.060        3019.541
   -774318.303 7   -603365.025 6  22200818.783    22200830.685    22200828.466
     -1612.476       -1256.484
    373205.140 8   -658909.386 7  21999260.999    21999277.127    21999274.489
      2481.223        1933.433
 -19435810.148 6 -15138711.291 5  24063806.074    24063818.185    24063815.727
      -614.141        -478.516
        -0.001 8        -0.002 7  21999260.969    21999277.007    21999274.369
      2481.222        1933.430
 92  6 13  0 36 21.0000000  0  7  3 20 12 16 24 25 10                0.000797770
   -945953.056 7   -737105.454 6  23088732.993    23088747.353    23088747.263
     -2093.170       -1630.995
   -394960.568 9   -307760.583 8  20647482.595    20647496.206    20647493.478
      -659.780        -514.117
   1514727.546 5    468711.762 5  24610826.130    24610841.269    24610842.828
      3877.709        3021.631
   -779149.174 7   -607129.342 6  22199896.262    22199911.611    22199909.363
     -1608.228       -1253.175
    380653.838 8   -653105.209 7  22000680.756    22000694.486    22000691.938
      2484.485        1935.989
 -19437645.604 6 -15140141.508 5  24063458.225    24063468.807    24063466.019
      -609.624        -474.967
        -0.001 8        -0.002 7  22000680.726    22000694.366    22000691.818
      2484.480        1935.986
 92  6 13  0 36 24.0000000  0  7  3 20 12 16 24 25 10                0.000797970
   -952228.279 7   -741995.236 6  23087537.031    23087553.160    23087553.010
     -2090.381       -1628.881
   -396933.963 9   -309298.291 8  20647108.005    20647120.776    20647118.018
      -655.729        -510.964
   1526364.633 5    477779.604 5  24613043.275    24613055.596    24613057.035
      3880.277        3023.675
   -783967.904 7   -610884.190 6  22198977.937    22198994.366    22198992.178
     -1604.170       -1250.004
    388111.945 8   -647293.706 7  22002101.202    22002113.764    22002111.095
      2487.631        1938.392
 -19439468.199 6 -15141561.717 5  24063105.908    24063121.408    24063119.219
      -605.400        -471.768
        -0.001 8        -0.002 7  22002101.172    22002113.644    22002110.946
      2487.627        1938.386
 92  6 13  0 36 27.0000000  0  7  3 20 12 16 24 25 10                0.000798160
   -958495.245 7   -746878.578 6  23086346.945    23086360.825    23086360.046
     -2087.723       -1626.871
   -398895.176 9   -310826.513 8  20646733.983    20646747.534    20646744.746
      -651.791        -507.868
   1538009.323 5    486853.377 5  24615259.640    24615271.062    24615273.311
      3882.661        3025.542
   -788774.530 7   -614629.613 6  22198063.600    22198079.639    22198077.661
     -1600.271       -1246.953
    395579.469 8   -641474.855 7  22003521.259    22003534.510    22003532.232
      2490.646        1940.770
 -19441278.049 6 -15142971.990 5  24062759.978    24062777.726    24062774.428
      -601.220        -468.494
        -0.001 8        -0.002 7  22003521.229    22003534.420    22003532.082
      2490.649        1940.776
 92  6 13  0 36 30.0000000  0  7  3 20 12 16 24 25 10                0.000798360
   -964753.912 7   -751755.455 6  23085154.820    23085169.809    23085169.330
     -2084.781       -1624.475
   -400844.357 9   -312345.356 8  20646361.282    20646376.631    20646374.083
      -647.544        -504.585
   1549661.515 5    495933.002 5  24617476.785    24617488.327    24617490.096
      3885.493        3027.557
   -793569.180 7   -618365.701 6  22197151.602    22197167.401    22197165.152
     -1596.126       -1243.751
    403056.242 8   -635648.801 7  22004945.303    22004957.445    22004954.927
      2493.974        1943.333
 -19443075.214 6 -15144372.382 5  24062423.641    24062435.543    24062433.084
      -596.809        -465.103
        -0.001 8        -0.002 7  22004945.273    22004957.325    22004954.777
      2493.972        1943.332
 92  6 13  0 36 33.0000000  0  7  3 20 12 16 24 25 10                0.000798570
   -971003.993 7   -756625.645 6  23083967.252    23083980.473    23083979.873
     -2082.032       -1622.403
   -402781.084 9   -313854.491 8  20645991.847    20646008.306    20646005.638
      -643.512        -501.407
   1561321.549 5    505018.709 5  24619692.132    24619707.151    24619710.059
      3887.955        3029.571
   -798351.537 7   -622092.213 6  22196244.100    22196257.351    22196255.582
     -1592.096       -1240.605
    410542.631 8   -629815.243 7  22006368.058    22006382.089    22006379.480
      2497.026        1945.754
 -19444859.371 6 -15145762.638 5  24062083.826    24062096.387    24062093.060
      -592.585        -461.735
        -0.001 8        -0.002 7  22006368.028    22006381.969    22006379.361
      2497.024        1945.751
 92  6 13  0 36 36.0000000  0  7  3 20 12 16 24 25 10                0.000798780
   -977245.893 7   -761489.466 6  23082780.614    23082792.605    23082792.066
     -2079.312       -1620.290
   -404705.739 9   -315354.222 8  20645626.130    20645641.780    20645639.381
      -639.521        -498.296
   1572989.029 5    514110.241 5  24621910.836    24621927.504    24621930.172
      3890.472        3031.446
   -803122.049 7   -625809.487 6  22195338.697    22195349.399    22195347.541
     -1588.155       -1237.532
    418038.215 8   -623974.529 7  22007794.261    22007808.651    22007805.683
      2500.127        1948.121
 -19446630.929 6 -15147143.080 5  24061753.635    24061759.570    24061756.273
      -588.392        -458.561
        -0.001 8        -0.002 7  22007794.231    22007808.561    22007805.563
      2500.129        1948.107
 92  6 13  0 36 39.0000000  0  7  3 20 12 16 24 25 10                0.000799000
   -983479.692 7   -766346.961 6  23081589.508    23081606.776    23081605.427
     -2076.520       -1618.048
   -406618.410 9   -316844.616 8  20645261.433    20645277.892    20645275.403
      -635.447        -495.169
   1584663.881 5    523207.517 5  24624137.035    24624149.296    24624151.035
      3892.972        3033.541
   -807880.789 7   -629517.597 6  22194433.563    22194444.176    22194442.377
     -1584.166       -1234.401
    425542.922 8   -618126.708 7  22009221.063    22009236.593    22009233.864
      2503.195        1950.575
 -19448390.001 6 -15148513.782 5  24061406.745    24061424.642    24061422.064
      -584.122        -455.255
        -0.001 8        -0.002 7  22009221.033    22009236.473    22009233.745
      2503.200        1950.575
 92  6 13  0 36 42.0000000  0  7  3 20 12 16 24 25 10                0.000799220
   -989704.993 7   -771197.845 6  23080405.568    23080422.146    23080421.157
     -2073.886       -1616.020
   -408518.711 9   -318325.367 8  20644900.903    20644916.342    20644913.674
      -631.474        -492.046
   1596346.487 5    532310.831 5  24626356.308    24626372.197    24626374.506
      3895.297        3035.329
   -812627.297 7   -633216.169 6  22193528.400    22193540.691    22193538.773
     -1580.292       -1231.384
    433057.230 8   -612271.407 7  22010652.842    22010666.513    22010663.904
      2506.262        1952.924
 -19450136.073 6 -15149874.359 5  24061080.331    24061092.502    24061090.733
      -580.003        -452.049
        -0.001 8        -0.002 7  22010652.812    22010666.393    22010663.785
      2506.261        1952.915
 92  6 13  0 36 45.0000000  0  6  3 20 12 16 24 25                   0.000799440
   -995922.072 7   -776042.316 6  23079221.777    23079238.416    23079238.026
     -2070.996       -1613.754
   -410406.927 9   -319796.714 8  20644544.149    20644557.190    20644554.372
      -627.308        -488.816
   1608036.586 5    541419.993 5  24628577.770    24628597.167    24628598.576
      3897.985        3037.412
   -817361.906 7   -636905.471 6  22192624.436    22192639.965    22192637.777
     -1576.123       -1228.115
    440580.774 8   -606408.909 7  22012082.612    22012098.082    22012095.593
      2509.479        1955.406
 -19451869.449 6 -15151225.046 5  24060745.762    24060762.431    24060760.242
      -575.577        -448.503
 92  6 13  0 36 48.0000000  0  6  3 20 12 16 24 25                   0.000799670
  -1002130.486 7   -780880.047 6  23078048.180    23078057.293    23078056.484
     -2068.248       -1611.635
   -412282.624 9   -321258.284 8  20644185.208    20644200.108    20644197.320
      -623.255        -485.654
   1619734.609 5    550535.327 5  24630799.442    24630822.676    24630825.404
      3900.671        3039.361
   -822084.145 7   -640585.134 6  22191727.757    22191741.217    22191739.029
     -1572.139       -1225.016
    448113.983 8   -600538.880 7  22013519.188    22013531.809    22013528.961
      2512.549        1957.860
 -19453589.648 6 -15152565.462 5  24060425.374    24060435.207    24060432.929
      -571.345        -445.228
 92  6 13  0 36 51.0000000  0  7  3 20 12 16 24 25 11                0.000799900
  -1008330.308 7   -785711.061 6  23076865.019    23076877.460    23076876.411
     -2065.327       -1609.386
   -414145.917 9   -322710.202 8  20643830.733    20643845.453    20643842.875
      -619.128        -482.431
   1631440.474 5    559656.755 5  24633034.425    24633050.314    24633053.012
      3903.137        3041.422
   -826794.133 7   -644255.253 6  22190829.698    22190844.958    22190842.889
     -1568.117       -1221.856
    455656.723 8   -594661.414 7  22014955.793    22014966.916    22014964.337
      2515.713        1960.331
 -19455296.756 6 -15153895.672 5  24060094.463    24060110.682    24060108.074
      -566.952        -441.772
         0.000 1         0.000 1  24060094.493           0.000           0.000
         0.000           0.000
 92  6 13  0 36 54.0000000  0  7  3 20 12 16 24 25 11                0.000800140
  -1014522.226 7   -790535.929 6  23075684.556    23075699.066    23075699.066
     -2062.727       -1607.255
   -415997.372 9   -324152.894 8  20643480.186    20643493.167    20643490.379
      -615.153        -479.311
   1643153.546 5    568783.819 5  24635258.196    24635279.121    24635281.190
      3905.590        3043.320
   -831492.549 7   -647916.351 6  22189938.925    22189950.917    22189949.028
     -1564.153       -1218.847
    463208.417 8   -588776.988 7  22016389.221    22016404.031    22016401.572
      2518.763        1962.667
 -19456991.321 6 -15155216.106 5  24059765.471    24059788.135    24059785.347
      -562.686        -438.655
        -0.00115         0.000 1  24059765.501    24059788.045           0.000
      -562.702           0.000
 92  6 13  0 36 57.0000000  0  7  3 20 12 16 24 25 11                0.000800390
  -1020705.748 7   -795354.257 6  23074501.635    23074522.141    23074521.811
     -2059.857       -1605.075
   -417836.505 9   -325585.987 8  20643128.949    20643143.489    20643140.431
      -610.946        -476.055
   1654874.230 5    577916.800 5  24637494.378    24637510.207    24637511.316
      3908.233        3045.248
   -836178.965 7   -651568.101 6  22189047.882    22189058.944    22189057.145
     -1560.101       -1215.620
    470769.427 8   -582885.287 7  22017827.985    22017842.855    22017840.156
      2521.936        1965.148
 -19458672.992 6 -15156526.499 5  24059451.858    24059468.347    24059465.139
      -558.335        -435.042
        -0.001 6         0.000 1  24059451.858    24059468.257           0.000
      -558.321           0.000
 92  6 13  0 37  0.0000000  0  7  3 20 12 16 24 25 11                0.000800630
  -1026881.174 7   -800166.268 6  23073331.035    23073347.374    23073346.355
     -2057.122       -1602.988
   -419663.550 9   -327009.657 8  20642781.490    20642795.700    20642792.852
      -606.955        -472.950
   1666602.300 5    587055.525 5  24639720.726    24639741.382    24639743.930
      3910.605        3047.251
   -840853.532 7   -655210.615 6  22188155.969    22188169.610    22188167.481
     -1556.210       -1212.632
    478339.617 8   -576986.445 7  22019270.466    22019283.447    22019280.569
      2524.935        1967.474
 -19460341.969 6 -15157826.992 5  24059135.097    24059150.027    24059147.509
      -554.191        -431.855
        -0.001 6         0.000 1  24059135.127    24059149.937           0.000
      -554.184           0.000
 92  6 13  0 37  3.0000000  0  7  3 20 12 16 24 25 11                0.000800880
  -1033048.510 7   -804971.980 6  23072156.209    23072173.537    23072173.477
     -2054.363       -1600.821
   -421478.630 9   -328424.003 8  20642435.080    20642450.369    20642447.341
      -602.885        -469.805
   1678337.632 5    596199.941 5  24641961.435    24641975.585    24641976.305
      3913.066        3049.109
   -845516.412 7   -658844.029 6  22187264.566    22187282.224    22187280.096
     -1552.251       -1209.528
    485918.897 8   -571080.519 7  22020712.768    22020725.929    22020723.021
      2528.051        1969.908
 -19461998.320 6 -15159117.665 5  24058818.367    24058834.825    24058832.127
      -549.867        -428.473
        -0.001 6         0.000 1  24058818.397    24058834.735           0.000
      -549.862           0.000
 92  6 13  0 37  6.0000000  0  7  3 20 12 16 24 25 11                0.000801140
  -1039207.211 7   -809770.959 6  23070989.746    23071001.798    23071000.958
     -2051.654       -1598.712
   -423281.193 9   -329828.600 8  20642094.246    20642107.137    20642104.528
      -598.856        -466.657
   1690080.766 5    605350.407 5  24644191.501    24644209.429    24644211.078
      3915.505        3051.083
   -850167.093 7   -662467.931 6  22186383.057    22186397.267    22186395.078
     -1548.288       -1206.419
    493507.803 8   -565167.083 7  22022155.159    22022169.729    22022167.121
      2531.141        1972.300
 -19463641.561 6 -15160398.113 5  24058509.221    24058522.142    24058519.653
      -545.614        -425.154
        -0.001 6        -0.00215  24058509.251    24058522.052    24058519.534
      -545.619        -425.214
 92  6 13  0 37  9.0000000  0  7  3 20 12 16 24 25 11                0.000801400
  -1045358.355 7   -814564.051 6  23069816.388    23069830.988    23069830.479
     -2049.183       -1596.700
   -425072.080 9   -331224.099 8  20641753.711    20641766.632    20641763.694
      -595.022        -463.658
   1701830.765 5    614506.246 5  24646428.373    24646445.251    24646447.739
      3917.778        3052.876
   -854806.461 7   -666083.022 6  22185497.380    22185514.348    22185512.160
     -1544.610       -1203.570
    501105.434 8   -559246.852 7  22023602.197    22023615.358    22023613.050
      2534.018        1974.557
 -19465272.559 6 -15161669.011 5  24058200.195    24058211.737    24058209.218
      -541.623        -422.116
        -0.001 6        -0.002 5  24058200.225    24058211.677    24058209.128
      -541.615        -422.094
 92  6 13  0 37 12.0000000  0  7  3 20 12 16 24 25 11                0.000801670
  -1051501.365 7   -819350.806 6  23068645.249    23068662.068    23068661.468
     -2046.534       -1594.620
   -426850.844 9   -332610.143 8  20641413.267    20641428.017    20641425.169
      -590.993        -460.506
   1713588.138 5    623667.815 5  24648674.178    24648682.842    24648685.420
      3920.254        3054.683
   -859434.068 7   -669688.944 6  22184621.386    22184633.828    22184631.609
     -1540.658       -1200.511
    508712.265 8   -553319.458 7  22025049.446    22025063.206    22025060.328
      2537.028        1976.894
 -19466890.876 6 -15162930.040 5  24057889.640    24057903.790    24057901.961
      -537.419        -418.716
        -0.001 6        -0.002 5  24057889.640    24057903.700    24057901.871
      -537.407        -418.696
 92  6 13  0 37 15.0000000  0  7  3 20 12 16 24 25 11                0.000801940
  -1057636.213 7   -824131.208 6  23067478.307    23067494.916    23067493.686
     -2043.649       -1592.465
   -428617.414 9   -333986.691 8  20641077.110    20641091.740    20641088.802
      -586.796        -457.251
   1725352.873 5    632835.121 5  24650910.750    24650921.392    24650923.701
      3922.667        3056.680
   -864049.872 7   -673285.672 6  22183741.405    22183755.286    22183753.277
     -1536.633       -1197.346
    516328.343 8   -547384.851 7  22026498.972    22026512.583    22026509.675
      2540.228        1979.375
 -19468496.363 6 -15164181.068 5  24057588.138    24057598.901    24057596.083
      -533.008        -415.330
        -0.001 6        -0.002 5  24057588.168    24057598.841    24057595.963
      -532.987        -415.332
 92  6 13  0 37 18.0000000  0  7  3 20 12 16 24 25 11                0.000802220
  -1063763.202 7   -828905.476 6  23066311.365    23066328.363    23066328.603
     -2041.177       -1590.506
   -430372.039 9   -335353.931 8  20640743.021    20640757.951    20640754.863
      -582.935        -454.232
   1737124.654 5    642007.922 5  24653151.818    24653162.461    24653163.210
      3924.919        3058.394
   -868654.162 7   -676873.427 6  22182867.271    22182879.352    22182876.804
     -1532.898       -1194.469
    523953.395 8   -541443.257 7  22027949.578    22027963.428    22027960.640
      2543.132        1981.656
 -19470089.334 6 -15165422.351 5  24057282.770    24057295.901    24057292.723
      -528.988        -412.158
        -0.001 6        -0.002 5  24057282.800    24057295.811    24057292.633
      -528.983        -412.163
 92  6 13  0 37 21.0000000  0  7  3 20 12 16 24 25 11                0.000802500
  -1069882.195 7   -833673.520 6  23065149.729    23065164.209    23065163.580
     -2038.322       -1588.303
   -432114.499 9   -336711.690 8  20640410.491    20640426.230    20640423.472
      -578.726        -450.936
   1748903.664 5    651186.368 5  24655384.732    24655402.990    24655405.238
      3927.525        3060.430
   -873246.777 7   -680452.081 6  22181991.097    22182005.157    22182003.149
     -1528.852       -1191.330
    531587.635 8   -535494.498 7  22029401.922    22029416.222    22029413.075
      2546.338        1984.129
 -19471669.569 6 -15166653.705 5  24056982.198    24056994.729    24056992.301
      -524.582        -408.737
        -0.001 6        -0.002 5  24056982.198    24056994.669    24056992.181
      -524.591        -408.737
 92  6 13  0 37 24.0000000  0  7  3 20 12 16 24 25 11                0.000802780
  -1075993.020 7   -838435.190 6  23063988.813    23064001.524    23064000.924
     -2035.594       -1586.213
   -433844.671 9   -338059.879 8  20640082.818    20640097.298    20640094.480
      -574.588        -447.733
   1760690.084 5    660370.578 5  24657635.094    24657645.467    24657647.596
      3930.068        3062.461
   -877827.551 7   -684021.520 6  22181119.780    22181133.691    22181131.382
     -1524.863       -1188.248
    539231.184 8   -529538.490 7  22030856.545    22030870.666    22030867.878
      2549.472        1986.624
 -19473236.942 6 -15167875.033 5  24056676.559    24056696.586    24056694.157
      -520.272        -405.497
        -0.001 6        -0.002 5  24056676.589    24056696.496    24056694.067
      -520.282        -405.496
 92  6 13  0 37 27.0000000  0  7  3 20 12 16 24 25 11                0.000803070
  -1082095.330 7   -843190.240 6  23062824.869    23062840.188    23062839.708
     -2032.849       -1583.996
   -435562.177 9   -339398.196 8  20639759.552    20639770.524    20639767.436
      -570.439        -444.478
   1772484.212 5    669560.789 5  24659877.632    24659890.313    24659892.801
      3932.561        3064.310
   -882396.151 7   -687581.461 6  22180249.243    22180264.382    22180262.224
     -1520.923       -1185.095
    546884.399 8   -523574.943 7  22032313.357    22032326.907    22032323.940
      2552.621        1989.032
 -19474791.076 6 -15169086.045 5  24056385.131    24056400.301    24056398.592
      -515.943        -401.991
        -0.001 6        -0.002 5  24056385.161    24056400.241    24056398.502
      -515.933        -401.990
 92  6 13  0 37 30.0000000  0  7  3 20 12 16 24 25 11                0.000803360
  -1088189.843 7   -847939.209 6  23061664.492    23061680.351    23061679.242
     -2030.274       -1581.966
   -437267.562 9   -340727.063 8  20639432.178    20639445.639    20639442.761
      -566.442        -441.369
   1784285.421 5    678756.519 5  24662117.441    24662136.778    24662138.157
      3934.877        3066.162
   -886953.201 7   -691132.408 6  22179382.153    22179396.963    22179394.834
     -1517.107       -1182.163
    554546.698 8   -517604.330 6  22033770.858    22033785.008    22033782.400
      2555.620        1991.401
 -19476332.668 6 -15170287.284 5  24056094.302    24056107.074    24056104.945
      -511.843        -398.749
        -0.001 6        -0.002 5  24056094.302    24056107.014    24056104.855
      -511.825        -398.745
 92  6 13  0 37 33.0000000  0  7  3 20 12 16 24 25 11                0.000803660
  -1094276.257 7   -852681.851 6  23060503.875    23060521.683    23060521.293
     -2027.496       -1579.851
   -438960.651 9   -342046.357 8  20639109.512    20639123.722    20639120.454
      -562.265        -438.138
   1796093.843 5    687957.883 5  24664370.831    24664383.603    24664385.042
      3937.297        3068.001
   -891498.532 7   -694674.222 6  22178520.160    22178532.332    22178529.903
     -1513.128       -1179.033
    562218.272 8   -511626.486 7  22035231.627    22035245.057    22035242.419
      2558.793        1993.869
 -19477861.528 6 -15171478.595 5  24055798.917    24055815.555    24055814.056
      -507.529        -395.492
        -0.001 6        -0.002 5  24055798.917    24055815.465    24055813.967
      -507.536        -395.496
 92  6 13  0 37 36.0000000  0  7  3 20 12 16 24 25 11                0.000803960
  -1100354.808 7   -857418.389 6  23059348.595    23059365.114    23059364.724
     -2024.985       -1577.931
   -440641.600 9   -343356.186 8  20638790.623    20638803.963    20638800.786
      -558.295        -435.051
   1807909.362 5    697164.768 5  24666616.037    24666631.836    24666634.594
      3939.641        3069.712
   -896032.277 7   -698207.007 6  22177657.087    22177669.499    22177667.430
     -1509.328       -1176.114
    569898.995 8   -505641.506 7  22036690.477    22036706.366    22036703.757
      2561.721        1996.192
 -19479377.942 6 -15172660.212 5  24055506.949    24055526.795    24055525.416
      -503.401        -392.263
        -0.001 6        -0.002 5  24055506.949    24055526.705    24055525.326
      -503.405        -392.264
 92  6 13  0 37 39.0000000  0  7  3 20 12 16 24 25 11                0.000804270
  -1106425.616 7   -862148.889 6  23058198.771    23058210.193    23058209.684
     -2022.397       -1575.883
   -442310.469 9   -344656.605 8  20638472.513    20638486.243    20638483.245
      -554.236        -431.863
   1819731.819 5    706377.060 5  24668865.830    24668881.659    24668882.858
      3941.997        3071.639
   -900554.519 7   -701730.823 6  22176797.133    22176808.735    22176806.636
     -1505.427       -1173.117
    577588.738 8   -499649.498 7  22038155.083    22038169.683    22038167.224
      2564.773        1998.527
 -19480882.042 6 -15173832.237 5  24055226.463    24055240.793    24055239.324
      -499.309        -389.020
        -0.001 6        -0.002 5  24055226.463    24055240.733    24055239.234
      -499.310        -389.021
 92  6 13  0 37 42.0000000  0  7  3 20 12 16 24 25 11                0.000804580
  -1112488.438 7   -866873.159 6  23057041.272    23057056.352    23057056.112
     -2019.735       -1573.832
   -443966.957 9   -345947.374 8  20638157.881    20638170.952    20638167.924
      -550.134        -428.711
   1831561.461 5    715594.939 5  24671124.136    24671132.680    24671134.749
      3944.336        3073.490
   -905065.040 7   -705245.520 6  22175937.838    22175950.639    22175948.450
     -1501.636       -1170.098
    585287.659 8   -493650.344 7  22039621.248    22039634.768    22039632.190
      2567.759        2000.858
 -19482373.608 6 -15174994.501 5  24054942.560    24054956.650    24054955.001
      -495.173        -385.871
        -0.001 6        -0.002 5  24054942.560    24054956.590    24054954.911
      -495.167        -385.878
 92  6 13  0 37 45.0000000  0  7  3 20 12 16 24 25 11                0.000804890
  -1118543.451 7   -871591.353 6  23055894.117    23055904.130    23055904.190
     -2017.089       -1571.727
   -445611.188 9   -347228.589 8  20637843.428    20637858.178    20637855.270
      -545.982        -425.447
   1843398.125 5    724818.306 5  24673376.897    24673385.860    24673386.850
      3946.713        3075.427
   -909564.033 7   -708751.220 6  22175080.341    22175094.492    22175092.303
     -1497.699       -1167.041
    592995.597 8   -487644.160 7  22041088.402    22041101.803    22041098.805
      2570.851        2003.285
 -19483852.844 6 -15176147.136 5  24054661.924    24054676.014    24054673.466
      -490.958        -382.576
        -0.001 6        -0.002 5  24054661.954    24054675.954    24054673.376
      -490.957        -382.557
 92  6 13  0 37 48.0000000  0  7  3 20 12 16 24 25 11                0.000805210
  -1124590.736 7   -876303.515 6  23054738.417    23054752.807    23054753.107
     -2014.518       -1569.735
   -447243.169 9   -348500.264 8  20637534.942    20637547.533    20637544.535
      -541.971        -422.317
   1855241.805 5    734047.128 5  24675623.721    24675638.591    24675641.049
      3949.029        3077.148
   -914051.624 7   -712248.047 6  22174225.573    22174240.563    22174238.404
     -1493.981       -1164.167
    600712.529 8   -481630.971 7  22042556.486    22042570.366    22042567.758
      2573.817        2005.576
 -19485319.647 6 -15177290.116 5  24054379.400    24054396.818    24054394.989
      -486.853        -379.412
        -0.001 6        -0.002 5  24054379.430    24054396.758    24054394.899
      -486.868        -379.402
 92  6 13  0 37 51.0000000  0  7  3 20 12 16 24 25 11                0.000805540
  -1130630.370 7   -881009.730 6  23053588.803    23053603.762    23053603.432
     -2012.051       -1567.804
   -448863.040 9   -349762.503 8  20637226.276    20637239.346    20637236.618
      -537.981        -419.179
   1867092.287 5    743281.243 5  24677882.238    24677893.810    24677895.638
      3951.187        3078.827
   -918528.087 7   -715736.207 6  22173371.704    22173388.732    22173386.784
     -1490.313       -1161.266
    608438.378 8   -475610.830 7  22044026.878    22044040.608    22044037.610
      2576.757        2007.833
 -19486774.225 6 -15178423.546 5  24054103.890    24054119.839    24054117.891
      -482.849        -376.234
        -0.001 6        -0.002 5  24054103.890    24054119.779    24054117.831
      -482.849        -376.219
 92  6 13  0 37 54.0000000  0  7  3 20 12 16 24 25 11                0.000805860
  -1136662.020 7   -885709.715 6  23052442.306    23052456.187    23052456.067
     -2009.300       -1565.650
   -450470.454 9   -351015.031 8  20636919.108    20636933.378    20636930.440
      -533.705        -415.873
   1878949.853 5    752520.890 5  24680134.249    24680150.198    24680152.476
      3953.731        3080.817
   -922993.106 7   -719215.426 6  22172526.889    22172539.211    22172537.112
     -1486.389       -1158.215
    616173.539 8   -469583.443 7  22045499.368    22045512.379    22045509.801
      2579.957        2010.383
 -19488216.231 6 -15179547.194 5  24053824.034    24053846.099    24053843.551
      -478.592        -372.920
        -0.001 6        -0.002 5  24053824.064    24053846.009    24053843.461
      -478.583        -372.912
 92  6 13  0 37 57.0000000  0  7  3 20 12 16 24 25 11                0.000806190
  -1142685.853 6   -890403.608 6  23051294.371    23051309.481    23051310.140
     -2006.701       -1563.683
   -452065.453 9   -352257.889 8  20636615.598    20636629.868    20636626.960
      -529.545        -412.642
   1890814.476 5    761766.049 5  24682388.118    24682407.995    24682409.913
      3956.042        3082.629
   -927446.639 7   -722685.708 6  22171681.564    22171691.547    22171689.569
     -1482.570       -1155.251
    623918.031 8   -463548.770 7  22046970.990    22046986.189    22046983.851
      2583.074        2012.783
 -19489645.668 6 -15180661.032 5  24053555.630    24053573.408    24053572.418
      -474.288        -369.641
        -0.001 6        -0.002 5  24053555.630    24053573.348    24053572.328
      -474.286        -369.644
 92  6 13  0 38  0.0000000  0  7  3 20 12 16 24 25 11                0.000806530
  -1148702.008 7   -895091.519 6  23050149.014    23050164.813    23050165.233
     -2004.089       -1561.629
   -453648.228 9   -353491.218 8  20636313.258    20636328.667    20636325.609
      -525.439        -409.430
   1902685.903 5    771016.498 5  24684652.750    24684667.320    24684669.569
      3958.365        3084.401
   -931888.896 7   -726147.201 6  22170834.950    22170846.432    22170844.304
     -1478.770       -1152.238
    631671.643 8   -457506.995 7  22048449.926    22048461.618    22048458.949
      2586.112        2015.170
 -19491062.666 6 -15181765.182 5  24053288.245    24053303.654    24053301.616
      -470.150        -366.430
        -0.001 6        -0.002 5  24053288.245    24053303.564    24053301.526
      -470.136        -366.419
 92  6 13  0 38  3.0000000  0  7  3 20 12 16 24 25 11                0.000806870
  -1154710.239 7   -899773.254 6  23049005.575    23049021.614    23049021.944
     -2001.470       -1559.569
   -455218.488 9   -354714.802 8  20636015.474    20636030.014    20636027.286
      -521.382        -406.259
   1914564.482 5    780272.522 5  24686911.057    24686927.246    24686930.484
      3960.616        3086.135
   -936319.507 7   -729599.627 6  22169989.536    22170003.176    22170001.198
     -1474.942       -1149.361
    639434.564 8   -451457.975 7  22049926.194    22049938.965    22049936.057
      2589.151        2017.560
 -19492466.946 6 -15182859.433 5  24053023.528    24053036.329    24053034.801
      -466.026        -363.184
        -0.001 6        -0.001 5  24053023.558    24053036.269    24053034.711
      -466.019        -363.187
 92  6 13  0 38  6.0000000  0  7  3 20 12 16 24 25 11                0.000807210
  -1160710.629 6   -904448.879 6  23047865.195    23047880.155    23047880.364
     -1998.847       -1557.521
   -456776.356 9   -355928.727 8  20635719.189    20635733.519    20635730.521
      -517.136        -402.964
   1926450.062 5    789534.000 5  24689178.777    24689189.540    24689191.219
      3963.083        3088.151
   -940738.576 7   -733043.052 6  22169150.387    22169162.048    22169159.890
     -1471.013       -1146.276
    647206.633 8   -445401.818 7  22051403.241    22051417.991    22051415.293
      2592.294        2019.953
 -19493858.655 6 -15183943.877 5  24052755.904    24052771.163    24052769.394
      -461.763        -359.836
        -0.001 6        -0.001 5  24052755.904    24052771.103    24052769.304
      -461.757        -359.831
 92  6 13  0 38  9.0000000  0  7  3 20 12 16 24 25 11                0.000807560
  -1166702.915 7   -909118.194 6  23046727.183    23046740.104    23046739.414
     -1996.178       -1555.451
   -458321.565 9   -357132.784 8  20635424.763    20635439.303    20635436.515
      -512.960        -399.709
   1938342.923 5    798801.154 5  24691437.623    24691452.433    24691453.962
      3965.487        3090.022
   -945145.848 7   -736477.284 6  22168307.820    22168323.619    22168321.430
     -1467.110       -1143.214
    654988.127 8   -439338.319 7  22052885.175    22052898.636    22052895.788
      2595.379        2022.384
 -19495237.604 6 -15185018.383 5  24052496.283    24052508.905    24052506.716
      -457.521        -356.482
        -0.001 6        -0.001 5  24052496.283    24052508.815    24052506.626
      -457.526        -356.485
 92  6 13  0 38 12.0000000  0  7  3 20 12 16 24 25 11                0.000807910
  -1172687.487 7   -913781.490 6  23045590.670    23045600.892    23045600.922
     -1993.611       -1553.463
   -459854.496 9   -358327.273 8  20635132.375    20635147.724    20635144.817
      -508.864        -396.537
   1950242.632 5    808073.630 5  24693701.776    24693716.886    24693719.524
      3967.746        3091.728
   -949541.691 7   -739902.610 6  22167470.949    22167486.838    22167484.770
     -1463.344       -1140.229
    662778.640 8   -433267.791 7  22054368.279    22054381.230    22054378.382
      2598.387        2024.719
 -19496604.157 6 -15186083.223 5  24052234.564    24052248.835    24052247.186
      -453.381        -353.306
        -0.001 6        -0.001 5  24052234.564    24052248.745    24052247.096
      -453.391        -353.307
 92  6 13  0 38 15.0000000  0  7  3 20 12 16 24 25 11                0.000808270
  -1178664.119 7   -918438.593 6  23044447.711    23044463.480    23044463.630
     -1991.132       -1551.541
   -461374.827 9   -359511.946 8  20634844.335    20634858.455    20634855.547
      -504.858        -393.379
   1962149.488 5    817351.688 5  24695962.631    24695982.537    24695984.815
      3969.984        3093.483
   -953925.853 7   -743318.844 6  22166637.376    22166652.396    22166650.597
     -1459.598       -1137.317
    670578.446 8   -427190.021 7  22055853.330    22055865.292    22055862.534
      2601.345        2027.043
 -19497958.025 6 -15187138.176 5  24051976.983    24051991.583    24051989.184
      -449.348        -350.098
        -0.001 6        -0.001 5  24051976.983    24051991.523    24051989.094
      -449.353        -350.102
 92  6 13  0 38 18.0000000  0  7  3 20 12 16 24 25 11                0.000808630
  -1184633.171 6   -923089.806 6  23043312.697    23043327.446    23043327.656
     -1988.491       -1549.399
   -462882.988 9   -360687.152 8  20634557.643    20634571.104    20634568.406
      -500.653        -390.114
   1974063.109 5    826635.026 5  24698237.426    24698249.148    24698252.296
      3972.326        3095.341
   -958298.689 7   -746726.245 6  22165807.970    22165820.442    22165818.193
     -1455.690       -1134.280
    678387.194 8   -421105.282 7  22057339.102    22057351.543    22057349.055
      2604.428        2029.440
 -19499299.631 6 -15188183.577 5  24051723.868    24051735.470    24051734.061
      -445.156        -346.837
        -0.001 6        -0.001 5  24051723.898    24051735.380    24051733.971
      -445.157        -346.836
 92  6 13  0 38 21.0000000  0  7  3 20 12 16 24 25 11                0.000808990
  -1190594.811 7   -927735.236 6  23042177.502    23042192.732    23042193.571
     -1986.165       -1547.598
   -464379.127 9   -361852.960 8  20634271.521    20634286.481    20634283.663
      -496.817        -387.125
   1985983.323 5    835923.485 5  24700504.936    24700518.517    24700520.226
      3974.411        3096.933
   -962660.387 7   -750124.965 6  22164977.665    22164990.436    22164988.308
     -1452.130       -1131.541
    686204.709 8   -415013.720 7  22058825.293    22058839.024    22058836.086
      2607.203        2031.594
 -19500629.178 6 -15189219.589 5  24051465.387    24051482.685    24051481.876
      -441.296        -343.765
        -0.001 6        -0.001 5  24051465.387    24051482.625    24051481.786
      -441.296        -343.778
 92  6 13  0 38 24.0000000  0  7  3 20 12 16 24 25 11                0.000809360
  -1196549.063 7   -932374.910 6  23041042.308    23041059.846    23041059.606
     -1983.458       -1545.572
   -465863.291 9   -363009.447 8  20633991.755    20634004.136    20634001.228
      -492.591        -383.820
   1997910.039 5    845217.009 5  24702773.376    24702787.886    24702789.715
      3976.797        3098.671
   -967011.084 7   -753515.116 6  22164148.379    22164162.470    22164160.341
     -1448.250       -1128.511
    694030.936 8   -408915.378 7  22060315.022    22060328.602    22060325.724
      2610.309        2034.002
 -19501946.731 6 -15190246.252 5  24051215.690    24051232.628    24051231.129
      -437.111        -340.473
        -0.001 6        -0.001 5  24051215.720    24051232.568    24051231.039
      -437.109        -340.478
 92  6 13  0 38 27.0000000  0  7  3 20 12 16 24 25 11                0.000809730
  -1202495.394 7   -937008.416 6  23039912.391    23039928.399    23039928.819
     -1980.877       -1543.481
   -467334.932 9   -364156.185 8  20633710.999    20633724.040    20633721.132
      -488.396        -380.582
   2009843.818 5    854516.044 5  24705044.544    24705057.974    24705059.983
      3979.138        3100.612
   -971350.198 7   -756896.243 6  22163323.231    22163336.901    22163334.743
     -1444.376       -1125.496
    701866.316 8   -402809.876 7  22061807.119    22061819.230    22061816.712
      2613.412        2036.417
 -19503251.824 6 -15191263.201 5  24050975.586    24050983.860    24050982.841
      -432.884        -337.383
        -0.001 6        -0.001 5  24050975.586    24050983.800    24050982.751
      -432.884        -337.383
 92  6 13  0 38 30.0000000  0  7  3 20 12 16 24 25 11                0.000810110
  -1208434.275 7   -941636.105 6  23038787.299    23038798.482    23038798.871
     -1978.551       -1541.682
   -468794.561 9   -365293.550 8  20633435.490    20633446.252    20633443.434
      -484.579        -377.572
   2021784.164 5    863820.206 5  24707316.701    24707330.431    24707333.219
      3981.065        3102.215
   -975678.190 7   -760268.701 6  22162497.722    22162513.371    22162511.453
     -1440.871       -1122.697
    709710.427 8   -396697.581 7  22063302.094    22063312.017    22063309.409
      2616.114        2038.480
 -19504544.947 6 -15192270.834 5  24050718.634    24050737.551    24050736.951
      -429.115        -334.334
        -0.001 6        -0.001 5  24050718.664    24050737.491    24050736.861
      -429.116        -334.330
 92  6 13  0 38 33.0000000  0  7  3 20 12 16 24 25 11                0.000810490
  -1214365.792 7   -946258.078 6  23037657.022    23037669.763    23037669.793
     -1975.992       -1539.738
   -470242.162 9   -366421.558 8  20633155.813    20633170.923    20633168.045
      -480.484        -374.416
   2033731.046 5    873129.434 5  24709585.350    24709603.907    24709607.145
      3983.412        3103.978
   -979995.129 7   -763632.546 6  22161675.212    22161691.670    22161689.691
     -1437.127       -1119.805
    717563.265 8   -390578.492 7  22064794.880    22064806.602    22064803.904
      2619.127        2040.867
 -19505826.217 6 -15193269.226 5  24050482.757    24050493.370    24050493.370
      -425.077        -331.159
        -0.001 6        -0.001 5  24050482.787    24050493.310    24050493.280
      -425.081        -331.179
 92  6 13  0 38 36.0000000  0  7  3 20 12 16 24 25 11                0.000810880
  -1220289.705 7   -950874.087 6  23036527.824    23036542.184    23036543.203
     -1973.468       -1537.700
   -471677.549 9   -367540.041 8  20632883.272    20632897.812    20632894.784
      -476.410        -371.245
   2045684.635 5    882443.921 5  24711860.865    24711878.463    24711880.411
      3985.636        3105.646
   -984300.853 7   -766987.651 6  22160856.208    22160872.277    22160870.329
     -1433.381       -1116.884
    725425.020 8   -384452.453 7  22066287.997    22066302.687    22066299.868
      2622.089        2043.197
 -19507095.387 6 -15194258.193 5  24050236.598    24050251.857    24050250.838
      -421.104        -328.198
        -0.001 6        -0.001 5  24050236.628    24050251.767    24050250.748
      -421.104        -328.199
 92  6 13  0 38 39.0000000  0  7  3 20 12 16 24 25 11                0.000811260
  -1226206.038 7   -955484.216 6  23035406.120    23035416.253    23035416.343
     -1970.749       -1535.632
   -473100.669 9   -368648.959 8  20632610.521    20632627.010    20632624.132
      -472.089        -367.845
   2057644.968 5    891763.639 5  24714139.227    24714155.116    24714156.376
      3987.998        3107.627
   -988595.316 7   -770333.985 6  22160041.343    22160055.283    22160053.394
     -1429.414       -1113.762
    733295.660 8   -378319.483 7  22067786.090    22067800.240    22067797.422
      2625.249        2045.628
 -19508352.383 6 -15195237.662 5  24050002.160    24050012.923    24050011.783
      -416.743        -324.777
        -0.001 6        -0.001 5  24050002.160    24050012.863    24050011.693
      -416.731        -324.781
 92  6 13  0 38 42.0000000  0  7  3 20 12 16 24 25 11                0.000811650
  -1232114.397 7   -960088.130 6  23034277.881    23034292.331    23034292.061
     -1968.282       -1533.751
   -474511.046 9   -369747.953 8  20632343.826    20632358.755    20632355.667
      -468.099        -364.760
   2069612.396 5    901088.891 5  24716410.695    24716432.190    24716434.199
      3990.128        3109.260
   -992878.150 7   -773671.248 6  22159229.115    22159239.967    22159238.019
     -1425.775       -1111.007
    741175.591 8   -372179.288 7  22069286.941    22069299.982    22069297.223
      2628.088        2047.899
 -19509596.775 6 -15196207.325 5  24049761.427    24049775.877    24049774.887
      -412.746        -321.692
        -0.001 6        -0.001 5  24049761.457    24049775.817    24049774.797
      -412.739        -321.690
 92  6 13  0 38 45.0000000  0  6  3 20 12 16 24 25                   0.000812050
  -1238015.278 7   -964686.213 6  23033158.366    23033169.638    23033169.309
     -1965.673       -1531.710
   -475909.160 9   -370837.393 8  20632078.899    20632092.659    20632089.542
      -463.876        -361.438
   2081586.481 5    910419.319 5  24718698.651    24718710.283    24718712.741
      3992.552        3111.075
   -997149.785 7   -776999.799 6  22158413.829    22158426.990    22158425.701
     -1421.841       -1107.918
    749064.377 8   -366032.183 7  22070791.179    22070801.222    22070798.164
      2631.189        2050.302
 -19510829.163 6 -15197167.619 5  24049523.571    24049541.319    24049540.749
      -408.725        -318.456
 92  6 13  0 38 48.0000000  0  6  3 20 12 16 24 25                   0.000812450
  -1243908.618 7   -969278.424 6  23032038.731    23032048.175    23032047.905
     -1963.377       -1529.864
   -477294.937 9   -371917.222 8  20631816.041    20631828.902    20631825.964
      -460.012        -358.440
   2093567.270 5    919754.998 5  24720977.913    24720990.954    24720992.483
      3994.533        3112.586
  -1001410.104 7   -780319.525 6  22157602.141    22157616.201    22157614.882
     -1418.355       -1105.194
    756962.108 8   -359878.108 7  22072288.732    22072304.022    22072300.994
      2633.916        2052.449
 -19512049.434 6 -15198118.483 5  24049294.560    24049309.400    24049307.961
      -404.835        -315.485
 92  6 13  0 38 51.0000000  0  7  3 20 12 16 24 25  2                0.000812850
  -1249794.569 7   -973864.877 6  23030914.839    23030928.090    23030927.491
     -1960.804       -1527.876
   -478668.586 9   -372987.599 8  20631555.941    20631567.633    20631564.605
      -455.842        -355.190
   2105554.496 5    929095.674 5  24723261.043    24723271.925    24723273.394
      3996.778        3114.359
  -1005659.328 7   -783630.603 6  22156793.721    22156807.841    22156805.743
     -1414.533       -1102.228
    764868.554 8   -353717.243 7  22073797.828    22073808.560    22073805.532
      2636.951        2054.756
 -19513257.837 6 -15199060.084 5  24049059.283    24049079.549    24049078.260
      -400.776        -312.373
         0.000 1         0.000 1  23030914.809           0.000           0.000
         0.000           0.000
 92  6 13  0 38 54.0000000  0  7  3 20 12 16 24 25  2                0.000813260
  -1255673.372 7   -978445.753 6  23029793.586    23029809.385    23029808.995
     -1958.471       -1526.098
   -480030.184 9   -374048.580 8  20631295.961    20631308.432    20631305.554
      -451.892        -352.123
   2117548.038 5    938441.294 5  24725545.161    24725554.125    24725555.774
      3998.908        3115.957
  -1009897.545 7   -786933.108 6  22155985.630    22156001.399    22155999.211
     -1410.914       -1099.417
    772783.576 8   -347549.697 7  22075301.916    22075314.658    22075311.900
      2639.759        2056.935
 -19514454.475 6 -15199992.536 5  24048831.380    24048852.186    24048850.267
      -397.008        -309.327
         0.01416        -0.00915  23029793.526    23029808.905    23029808.875
     -1958.453       -1526.147
 92  6 13  0 38 57.0000000  0  7  3 20 12 16 24 25  2                0.000813670
  -1261545.041 7   -983021.074 6  23028675.720    23028691.968    23028692.208
     -1955.966       -1524.097
   -481379.862 9   -375100.279 8  20631039.668    20631051.540    20631048.662
      -447.813        -348.941
   2129547.845 5    947791.755 5  24727828.561    24727837.644    24727839.443
      4001.073        3117.632
  -1014124.827 7   -790227.092 6  22155182.726    22155196.966    22155195.527
     -1407.173       -1096.512
    780707.106 8   -341375.514 7  22076809.213    22076822.374    22076819.376
      2642.673        2059.212
 -19515639.419 6 -15200915.867 5  24048609.474    24048626.352    24048624.764
      -392.997        -306.176
         0.014 7        -0.009 6  23028675.690    23028691.459    23028692.088
     -1955.968       -1524.097
 92  6 13  0 39  0.0000000  0  7  3 20 12 16 24 25  2                0.000814080
  -1267409.227 7   -987590.559 6  23027558.723    23027576.051    23027575.751
     -1953.675       -1522.333
   -482717.311 9   -376142.445 8  20630782.327    20630797.226    20630794.228
      -443.856        -345.868
   2141554.159 5    957147.323 5  24730106.773    24730122.452    24730124.491
      4002.941        3119.328
  -1018340.832 7   -793512.287 6  22154380.901    22154394.542    22154392.683
     -1403.522       -1093.638
    788639.480 8   -335194.457 7  22078318.248    22078331.829    22078328.831
      2645.545        2061.450
 -19516812.387 6 -15201829.857 5  24048390.056    24048403.637    24048401.628
      -389.043        -303.188
         0.014 7        -0.009 6  23027558.693    23027575.541    23027575.631
     -1953.682       -1522.333
 92  6 13  0 39  3.0000000  0  7  3 20 12 16 24 25  2                0.000814500
  -1273266.159 7   -992154.400 6  23026445.893    23026461.542    23026461.243
     -1951.120       -1520.325
   -484042.675 9   -377175.203 8  20630530.981    20630544.891    20630542.073
      -439.721        -342.643
   2153566.919 5    966507.909 5  24732401.355    24732408.580    24732409.929
      4005.322        3121.000
  -1022545.752 7   -796788.843 6  22153583.483    22153594.006    22153592.897
     -1399.739       -1090.721
    796580.576 8   -329006.586 7  22079830.282    22079842.873    22079840.085
      2648.542        2063.787
 -19517973.506 6 -15202734.620 5  24048172.017    24048182.480    24048180.321
      -385.077        -299.977
         0.014 7        -0.009 6  23026445.863    23026461.033    23026461.123
     -1951.103       -1520.300
 92  6 13  0 39  6.0000000  0  7  3 20 12 16 24 25  2                0.000814920
  -1279115.553 7   -996712.358 6  23025329.676    23025348.473    23025347.574
     -1948.680       -1518.501
   -485355.795 9   -378198.409 8  20630280.024    20630294.924    20630292.016
      -435.722        -339.517
   2165586.328 5    975873.662 5  24734681.246    24734695.097    24734696.986
      4007.495        3122.686
  -1026739.355 7   -800056.582 6  22152782.378    22152796.258    22152794.669
     -1396.016       -1087.791
    804530.667 8   -322811.715 7  22081342.495    22081355.925    22081353.287
      2651.464        2066.095
 -19519122.609 6 -15203630.023 5  24047953.168    24047964.351    24047962.372
      -381.109        -296.829
         0.014 7        -0.009 6  23025329.616    23025347.963    23025347.454
     -1948.679       -1518.511
 92  6 13  0 39  9.0000000  0  7  3 20 12 16 24 25  2                0.000815350
  -1284957.808 7  -1001264.760 6  23024222.692    23024236.633    23024236.123
     -1946.264       -1516.556
   -486657.028 9   -379212.352 8  20630032.845    20630047.415    20630044.537
      -431.715        -336.385
   2177611.982 5    985244.294 5  24736973.520    24736984.912    24736985.691
      4009.636        3124.325
  -1030922.002 7   -803315.782 6  22151986.189    22152000.309    22151998.331
     -1392.315       -1084.881
    812489.405 8   -316610.101 7  22082857.256    22082870.597    22082867.329
      2654.394        2068.370
 -19520260.113 6 -15204516.392 5  24047729.313    24047747.271    24047745.952
      -377.191        -293.957
         0.014 7        -0.009 6  23024222.662    23024236.123    23024236.003
     -1946.257       -1516.569
 92  6 13  0 39 12.0000000  0  7  3 20 12 16 24 25  2                0.000815780
  -1290792.644 7  -1005811.377 6  23023112.501    23023126.531    23023125.902
     -1943.789       -1514.623
   -487946.091 9   -380216.820 8  20629786.806    20629801.855    20629799.127
      -427.671        -333.252
   2189644.220 5    994620.035 5  24739261.656    24739274.037    24739274.726
      4011.751        3126.072
  -1035093.363 7   -806566.193 6  22151189.251    22151206.549    22151204.900
     -1388.572       -1081.995
    820457.071 8   -310401.534 7  22084371.328    22084386.467    22084383.679
      2657.368        2070.667
 -19521385.727 6 -15205393.489 5  24047522.577    24047533.159    24047532.410
      -373.239        -290.858
         0.014 7        -0.009 6  23023112.471    23023126.022    23023125.812
     -1943.787       -1514.601
 92  6 13  0 39 15.0000000  0  7  3 20 12 16 24 25  2                0.000816210
  -1296620.329 7  -1010352.439 6  23022004.408    23022017.359    23022016.190
     -1941.466       -1512.751
   -489223.302 9   -381212.048 8  20629545.053    20629559.053    20629556.175
      -423.804        -330.207
   2201682.661 6   1004000.619 5  24741554.438    24741565.171    24741566.100
      4013.766        3127.640
  -1039253.722 7   -809808.028 6  22150397.409    22150414.767    22150413.028
     -1384.935       -1079.172
    828433.328 8   -304186.264 7  22085892.984    22085904.437    22085901.499
      2660.177        2072.866
 -19522499.817 6 -15206261.623 5  24047300.190    24047321.356    24047320.007
      -369.440        -288.023
         0.014 7        -0.009 6  23022004.378    23022016.879    23022016.070
     -1941.466       -1512.767
 92  6 13  0 39 18.0000000  0  7  3 20 12 16 24 25  2                0.000816650
  -1302440.791 7  -1014887.837 6  23020893.377    23020909.566    23020909.086
     -1939.059       -1510.953
   -490488.517 9   -382197.929 8  20629303.900    20629318.380    20629315.532
      -419.837        -327.128
   2213727.476 6   1013386.177 5  24743846.172    24743856.485    24743857.954
      4015.866        3129.295
  -1043402.850 7   -813041.107 6  22149607.786    22149625.144    22149623.465
     -1381.262       -1076.292
    836418.357 8   -297964.172 7  22087411.883    22087423.845    22087421.117
      2663.034        2075.061
 -19523602.286 6 -15207120.676 5  24047095.132    24047111.381    24047110.542
      -365.703        -284.909
         0.014 7        -0.009 6  23020893.347    23020909.056    23020908.966
     -1939.061       -1510.968
 92  6 13  0 39 21.0000000  0  7  3 20 12 16 24 25  2                0.000817090
  -1308254.174 7  -1019417.749 6  23019787.623    23019803.002    23019802.942
     -1936.618       -1508.928
   -491742.006 9   -383174.673 8  20629064.396    20629079.685    20629076.837
      -415.773        -324.000
   2225778.418 5   1022776.518 5  24746144.411    24746149.417    24746151.846
      4018.086        3130.941
  -1047540.975 7   -816265.625 6  22148821.820    22148837.979    22148836.060
     -1377.485       -1073.361
    844411.956 8   -291735.395 7  22088931.861    22088945.351    22088942.353
      2666.047        2077.411
 -19524693.299 6 -15207970.811 5  24046885.907    24046903.865    24046901.886
      -361.718        -281.874
         0.014 7        -0.009 6  23019787.593    23019802.522    23019802.822
     -1936.614       -1508.924
 92  6 13  0 39 24.0000000  0  7  3 20 12 16 24 25  2                0.000817530
  -1314060.356 7  -1023942.032 6  23018687.294    23018698.627    23018698.657
     -1934.207       -1507.160
   -492983.585 9   -384142.139 8  20628827.500    20628843.179    20628840.541
      -411.807        -320.898
   2237835.675 6   1032171.760 5  24748426.731    24748444.119    24748446.247
      4020.185        3132.591
  -1051667.950 7   -819481.447 6  22148040.740    22148052.732    22148050.574
     -1373.724       -1070.445
    852414.286 8   -285499.820 7  22090453.577    22090467.757    22090465.059
      2668.933        2079.683
 -19525772.694 6 -15208811.911 5  24046681.329    24046699.077    24046697.248
      -357.876        -278.804
         0.014 7        -0.009 6  23018687.264    23018698.117    23018698.537
     -1934.201       -1507.194
 92  6 13  0 39 27.0000000  0  7  3 20 12 16 24 25  2                0.000817980
  -1319859.325 7  -1028460.722 6  23017581.240    23017595.660    23017594.221
     -1931.889       -1505.316
   -494213.259 9   -385100.325 8  20628591.683    20628609.281    20628606.583
      -407.950        -317.877
   2249899.237 6   1041571.916 5  24750723.201    24750739.809    24750741.248
      4022.138        3134.167
  -1055783.776 7   -822688.581 6  22147259.661    22147269.494    22147267.606
     -1370.125       -1067.591
    860425.304 8   -279257.471 7  22091976.673    22091992.322    22091989.624
      2671.748        2081.900
 -19526840.534 6 -15209643.988 5  24046481.697    24046495.308    24046494.019
      -354.083        -275.968
         0.014 7        -0.009 6  23017581.210    23017595.150    23017594.101
     -1931.891       -1505.309
 92  6 13  0 39 30.0000000  0  7  3 20 12 16 24 25  2                0.000818430
  -1325651.715 7  -1032974.267 6  23016475.995    23016493.113    23016492.004
     -1929.744       -1503.685
   -495431.659 9   -386049.735 8  20628360.573    20628377.362    20628374.573
      -404.222        -314.974
   2261968.473 6   1050976.504 5  24753020.301    24753036.399    24753038.228
      4024.007        3135.548
  -1059889.086 7   -825887.515 6  22146477.263    22146488.325    22146486.347
     -1366.645       -1064.940
    868444.352 8   -273008.858 7  22093502.467    22093517.996    22093515.448
      2674.417        2083.940
 -19527897.505 6 -15210467.607 5  24046280.806    24046294.477    24046292.498
      -350.452        -273.131
         0.014 7        -0.009 6  23016475.965    23016492.604    23016491.884
     -1929.740       -1503.683
 92  6 13  0 39 33.0000000  0  7  3 20 12 16 24 25  2                0.000818890
  -1331436.955 7  -1037482.234 6  23015373.658    23015392.036    23015390.926
     -1927.263       -1501.782
   -496638.249 9   -386989.925 8  20628131.532    20628147.720    20628144.992
      -400.211        -311.856
   2274043.977 6   1060385.978 5  24755314.822    24755334.728    24755336.137
      4026.223        3137.335
  -1063983.271 7   -829077.794 6  22145695.284    22145709.374    22145707.546
     -1362.865       -1061.984
    876472.008 8   -266753.553 7  22095030.749    22095045.798    22095043.130
      2677.311        2086.247
 -19528942.999 6 -15211282.282 5  24046083.903    24046095.115    24046093.496
      -346.565        -270.055
         0.014 7        -0.009 6  23015373.598    23015391.526    23015390.806
     -1927.273       -1501.751
 92  6 13  0 39 36.0000000  0  7  3 20 12 16 24 25  2                0.000819350
  -1337215.434 7  -1041984.948 6  23014275.309    23014292.307    23014291.168
     -1925.033       -1499.961
   -497833.465 8   -387921.267 8  20627903.540    20627920.298    20627917.630
      -396.370        -308.871
   2286125.297 6   1069799.972 5  24757615.579    24757633.687    24757635.276
      4028.135        3138.763
  -1068066.735 7   -832259.711 6  22144914.625    22144932.192    22144930.034
     -1359.243       -1059.148
    884507.819 8   -260491.878 7  22096558.701    22096574.800    22096572.461
      2680.117        2088.401
 -19529977.428 6 -15212088.346 5  24045888.108    24045898.421    24045895.873
      -342.867        -267.157
         0.014 7        -0.009 6  23014275.249    23014291.797    23014291.048
     -1925.018       -1499.949
 92  6 13  0 39 39.0000000  0  7  3 20 12 16 24 25  2                0.000819810
  -1342986.751 7  -1046482.065 6  23013182.625    23013193.897    23013192.668
     -1922.737       -1498.264
   -499016.854 9   -388843.387 8  20627680.164    20627695.364    20627692.606
      -392.576        -305.932
   2298212.837 6   1079218.813 5  24759920.324    24759933.785    24759935.433
      4030.155        3140.387
  -1072139.020 7   -835432.918 6  22144140.081    22144157.229    22144155.100
     -1355.651       -1056.387
    892552.250 8   -254223.502 7  22098091.000    22098105.600    22098103.321
      2682.846        2090.533
 -19531000.450 6 -15212885.482 5  24045685.179    24045703.736    24045701.217
      -339.225        -264.323
         0.014 7        -0.009 6  23013182.595    23013193.388    23013192.578
     -1922.735       -1498.292
 92  6 13  0 39 42.0000000  0  7  3 20 12 16 24 25  2                0.000820270
  -1348751.126 7  -1050973.776 6  23012083.256    23012096.957    23012095.638
     -1920.472       -1496.473
   -500188.679 9   -389756.500 8  20627456.609    20627472.168    20627469.650
      -388.749        -302.903
   2310306.405 6   1088642.356 5  24762215.475    24762235.651    24762236.580
      4032.136        3141.973
  -1076200.329 7   -838597.569 6  22143367.696    22143384.424    22143382.535
     -1352.010       -1053.491
    900605.058 8   -247948.583 7  22099624.139    22099637.959    22099635.261
      2685.577        2092.677
 -19532012.124 6 -15213673.802 5  24045492.952    24045511.449    24045509.080
      -335.372        -261.450
         0.014 7        -0.009 6  23012083.226    23012096.447    23012095.518
     -1920.475       -1496.471
 92  6 13  0 39 45.0000000  0  7  3 20 12 16 24 25  2                0.000820740
  -1354508.709 7  -1055460.204 6  23010987.245    23011001.665    23011000.436
     -1918.116       -1494.706
   -501349.104 8   -390660.723 8  20627233.713    20627251.461    20627248.733
      -384.889        -299.932
   2322405.871 6   1098070.506 5  24764518.031    24764537.308    24764539.076
      4034.064        3143.436
  -1080250.782 7   -841753.768 6  22142596.419    22142613.538    22142611.709
     -1348.326       -1050.689
    908666.062 8   -241667.290 7  22101156.438    22101171.757    22101169.149
      2688.382        2094.855
 -19533012.654 6 -15214453.443 5  24045301.474    24045320.931    24045318.352
      -331.661        -258.392
         0.014 7        -0.009 6  23010987.215    23011001.155    23011000.316
     -1918.121       -1494.730
 92  6 13  0 39 48.0000000  0  7  3 20 12 16 24 25  2                0.000821210
  -1360258.910 7  -1059940.870 6  23009892.373    23009907.393    23009905.954
     -1915.588       -1492.685
   -502497.621 9   -391555.675 8  20627015.344    20627032.882    20627030.184
      -380.856        -296.781
   2334511.765 6   1107503.656 5  24766821.636    24766841.722    24766842.112
      4036.311        3145.190
  -1084289.895 7   -844901.122 6  22141832.039    22141844.930    22141843.221
     -1344.484       -1047.657
    916735.779 8   -235379.199 7  22102690.416    22102707.684    22102704.776
      2691.348        2097.194
 -19534001.499 6 -15215223.975 5  24045115.273    24045132.871    24045130.533
      -327.640        -255.292
         0.014 7        -0.009 6  23009892.343    23009906.883    23009905.864
     -1915.595       -1492.666
 92  6 13  0 39 51.0000000  0  7  3 20 12 16 24 25  2                0.000821690
  -1366001.877 7  -1064415.913 6  23008796.841    23008813.930    23008813.210
     -1913.317       -1490.934
   -503634.436 9   -392441.498 8  20626799.194    20626816.612    20626813.824
      -377.078        -293.823
   2346623.969 6   1116941.719 5  24769127.850    24769146.167    24769147.306
      4038.356        3146.739
  -1088317.809 7   -848039.755 6  22141066.429    22141078.420    22141076.532
     -1340.864       -1044.805
    924814.042 8   -229084.453 7  22104228.171    22104244.720    22104242.381
      2694.112        2099.285
 -19534978.810 6 -15215985.516 5  24044930.541    24044947.119    24044944.781
      -323.945        -252.422
         0.014 7        -0.009 6  23008796.781    23008813.420    23008813.090
     -1913.296       -1490.932
 92  6 13  0 39 54.0000000  0  7  3 20 12 16 24 25  2                0.000822170
  -1371737.771 7  -1068885.433 6  23007707.575    23007722.145    23007722.055
     -1910.903       -1489.043
   -504759.745 9   -393318.367 8  20626585.382    20626602.440    20626599.502
      -373.206        -290.792
   2358742.304 5   1126384.563 5  24771437.271    24771452.530    24771453.580
      4040.418        3148.415
  -1092334.729 7   -851169.821 6  22140304.086    22140314.010    22140312.211
     -1337.148       -1041.904
    932900.628 8   -222783.219 7  22105766.436    22105783.914    22105781.396
      2696.917        2101.448
 -19535944.812 6 -15216738.235 5  24044748.357    24044763.407    24044760.229
      -320.130        -249.464
         0.014 7        -0.009 6  23007707.546    23007721.636    23007721.966
     -1910.893       -1489.062
 92  6 13  0 39 57.0000000  0  7  3 20 12 16 24 25  2                0.000822650
  -1377467.002 7  -1073349.766 6  23006619.089    23006632.520    23006632.070
     -1908.707       -1487.376
   -505873.928 9   -394186.559 8  20626374.688    20626390.457    20626387.789
      -369.585        -287.978
   2370866.402 6   1135831.897 5  24773739.977    24773759.133    24773760.692
      4042.275        3149.756
  -1096341.032 7   -854291.608 6  22139537.427    22139551.607    22139549.719
     -1333.689       -1039.269
    940995.135 8   -216475.812 7  22107310.937    22107324.068    22107321.490
      2699.462        2103.475
 -19536899.758 6 -15217482.358 5  24044567.462    24044581.463    24044579.274
      -316.466        -246.634
         0.014 7        -0.009 6  23006619.059    23006632.010    23006631.950
     -1908.704       -1487.369
 92  6 13  0 40  0.0000000  0  7  3 20 12 16 24 25  2                0.000823140
  -1383189.136 7  -1077808.562 6  23005528.054    23005543.434    23005543.464
     -1906.391       -1485.459
   -506976.646 8   -395045.823 8  20626163.754    20626180.542    20626177.814
      -365.720        -284.993
   2382996.578 6   1145283.970 5  24776050.957    24776068.285    24776069.274
      4044.285        3151.352
  -1100336.340 7   -857404.835 6  22138777.034    22138791.334    22138789.445
     -1329.995       -1036.388
    949097.910 8   -210161.973 7  22108852.410    22108865.961    22108863.562
      2702.235        2105.677
 -19537843.243 6 -15218217.534 5  24044392.114    24044402.067    24044399.429
      -312.716        -243.711
         0.014 7        -0.009 6  23005527.994    23005542.924    23005543.344
     -1906.394       -1485.433
 92  6 13  0 40  3.0000000  0  8  3 20 12 17 16 24 25  2             0.000823660
  -1388904.371 7  -1082261.993 6  23004439.208    23004455.727    23004454.737
     -1904.058       -1483.673
   -508068.042 9   -395896.258 8  20625955.878    20625972.846    20625970.148
      -361.918        -282.012
   2395132.737 6   1154740.704 5  24778360.978    24778377.136    24778377.916
      4046.332        3152.944
         0.000 1         0.000 1  24628965.252           0.000           0.000
         0.000           0.000
  -1104320.799 7   -860509.610 6  22138017.629    22138033.368    22138031.090
     -1326.359       -1033.531
    957208.848 8   -203841.761 7  22110392.834    22110409.472    22110406.714
      2704.983        2107.772
 -19538775.368 6 -15218943.862 5  24044207.891    24044224.770    24044222.401
      -308.854        -240.678
         0.014 7        -0.009 6  23004439.148    23004455.217    23004454.617
     -1904.052       -1483.682
 92  6 13  0 40  6.0000000  0  8  3 20 12 17 16 24 25  2             0.000824160
  -1394613.116 7  -1086710.354 6  23003353.060    23003369.549    23003368.349
     -1901.933       -1481.970
   -509148.566 9   -396738.222 8  20625750.730    20625767.248    20625764.460
      -358.392        -279.299
   2407274.479 6   1164201.780 5  24780668.090    24780687.877    24780689.735
      4048.165        3154.294
         0.000 1   3042036.34815  24627099.584           0.000    24627119.490
         0.000       -2546.171
  -1108294.844 7   -863606.257 6  22137256.816    22137277.172    22137275.253
     -1322.962       -1030.906
    965327.610 8   -197515.446 7  22111939.433    22111954.273    22111951.994
      2707.547        2109.760
 -19539696.488 6 -15219661.626 5  24044033.562    24044049.421    24044047.023
      -305.261        -237.907
         0.014 7        -0.009 6  23003353.000    23003369.039    23003368.230
     -1901.932       -1481.980
 92  6 13  0 40  9.0000000  0  8  3 20 12 17 16 24 25  2             0.000824660
  -1400315.373 7  -1091153.678 6  23002269.970    23002284.510    23002282.831
     -1899.552       -1480.190
   -510218.398 9   -397571.859 8  20625547.381    20625563.659    20625560.991
      -354.660        -276.362
   2419421.751 6   1173667.179 5  24782985.576    24782999.157    24783000.955
      4050.171        3156.050
         0.000 1   3034400.399 5  24625236.494           0.000    24625252.083
         0.000       -2544.298
  -1112258.555 7   -866694.866 6  22136506.615    22136522.504    22136521.125
     -1319.334       -1028.010
    973454.203 8   -191183.047 7  22113484.413    22113500.422    22113498.384
      2710.320        2111.971
 -19540606.666 6 -15220370.854 5  24043855.815    24043876.201    24043873.862
      -301.377        -234.796
         0.014 7        -0.009 6  23002269.910    23002284.000    23002282.711
     -1899.556       -1480.177
 92  6 13  0 40 12.0000000  0  8  3 20 12 17 16 24 25  2             0.000825160
  -1406010.302 7  -1095591.277 6  23001188.229    23001200.610    23001199.741
     -1897.226       -1478.350
   -511276.704 9   -398396.507 8  20625346.969    20625362.319    20625359.531
      -350.922        -273.455
   2431575.411 6   1183137.536 5  24785294.098    24785311.906    24785313.974
      4052.129        3157.446
   3885336.76315   3026770.158 5  24623371.125    24623389.382    24623387.763
     -3263.085       -2542.551
  -1116211.015 7   -869774.701 6  22135756.385    22135770.385    22135768.766
     -1315.694       -1025.216
    981589.435 8   -184843.902 7  22115034.310    22115048.700    22115046.572
      2713.060        2114.120
 -19541505.017 6 -15221070.874 5  24043687.511    24043705.289    24043702.561
      -297.629        -231.905
         0.014 7        -0.009 6  23001188.199    23001200.101    23001199.621
     -1897.247       -1478.323
 92  6 13  0 40 15.0000000  0  8  3 20 12 17 16 24 25  2             0.000825660
  -1411698.476 7  -1100023.622 6  23000100.552    23000117.850    23000117.970
     -1895.041       -1476.603
   -512324.081 9   -399212.647 8  20625145.779    20625163.137    20625160.229
      -347.274        -270.604
   2443734.848 5   1192612.417 5  24787605.498    24787625.704    24787627.652
      4054.094        3159.107
   3875551.516 5   3019145.180 5  24621505.187    24621525.093    24621525.842
     -3260.678       -2540.753
  -1120152.786 7   -872846.208 6  22135008.702    22135020.124    22135018.715
     -1312.151       -1022.424
    989732.646 8   -178498.546 7  22116584.057    22116598.358    22116596.199
      2715.773        2116.189
 -19542392.189 6 -15221762.163 5  24043519.987    24043536.596    24043533.718
      -293.815        -229.013
         0.014 7        -0.009 6  23000100.492    23000117.340    23000117.850
     -1895.038       -1476.597
 92  6 13  0 40 18.0000000  0  8  3 20 12 17 16 24 25  2             0.000826170
  -1417379.886 7  -1104450.690 6  22999021.689    22999037.128    22999036.408
     -1892.725       -1474.921
   -513360.559 9   -400020.291 8  20624949.565    20624965.813    20624963.025
      -343.631        -267.776
   2455900.084 6   1202091.817 5  24789925.412    24789941.331    24789942.410
      4056.052        3160.498
   3865772.863 5   3011525.476 5  24619648.032    24619663.412    24619664.881
     -3258.432       -2539.022
  -1124083.902 7   -875909.411 6  22134260.810    22134272.412    22134270.763
     -1308.573       -1019.661
    997883.816 8   -172146.981 7  22118136.113    22118149.544    22118147.505
      2718.358        2118.194
 -19543268.129 6 -15222444.715 5  24043352.733    24043369.612    24043367.423
      -290.091        -226.050
         0.014 7        -0.009 6  22999021.629    22999036.588    22999036.288
     -1892.719       -1474.916
 92  6 13  0 40 21.0000000  0  8  3 20 12 17 16 24 25  2             0.000826680
  -1423054.165 7  -1108872.199 6  22997941.956    22997957.216    22997956.766
     -1890.405       -1473.015
   -514385.700 9   -400819.090 8  20624754.040    20624770.738    20624767.920
      -339.900        -264.857
   2468071.528 6   1211576.026 5  24792237.291    24792257.048    24792258.307
      4058.157        3162.052
   3856001.303 5   3003911.280 5  24617787.790    24617803.949    24617805.148
     -3255.978       -2537.147
  -1128003.975 7   -878964.012 6  22133516.635    22133526.319    22133524.640
     -1304.921       -1016.808
   1006043.289 8   -165788.964 7  22119690.357    22119702.289    22119700.010
      2721.087        2120.373
 -19544132.422 6 -15223118.195 5  24043183.351    24043205.026    24043202.807
      -286.300        -223.052
         0.014 7        -0.009 6  22997941.896    22997956.706    22997956.676
     -1890.403       -1472.999
 92  6 13  0 40 24.0000000  0  8  3 20 12 17 16 24 25  2             0.000827200
  -1428721.625 7  -1113288.406 6  22996862.613    22996879.522    22996878.173
     -1887.989       -1471.193
   -515399.863 9   -401609.361 8  20624561.903    20624577.612    20624574.914
      -336.104        -261.890
   2480248.802 6   1221064.788 5  24794555.317    24794574.953    24794576.422
      4060.142        3163.684
   3846236.407 5   2996302.278 5  24615927.638    24615944.996    24615947.034
     -3253.773       -2535.388
  -1131913.404 7   -882010.316 6  22132769.163    22132782.444    22132780.915
     -1301.268       -1013.980
   1014210.644 8   -159424.791 7  22121243.282    22121256.353    22121254.344
      2723.903        2122.507
 -19544985.499 6 -15223782.942 5  24043026.469    24043043.018    24043041.129
      -282.354        -220.026
         0.014 7        -0.009 6  22996862.553    22996879.012    22996878.053
     -1887.978       -1471.185
 92  6 13  0 40 27.0000000  0  8  3 20 12 17 16 24 25  2             0.000827720
  -1434382.244 7  -1117699.266 6  22995789.746    22995802.247    22995800.928
     -1885.812       -1469.480
   -516403.024 8   -402391.040 8  20624370.036    20624386.644    20624384.006
      -332.531        -259.128
   2492431.919 6   1230558.103 5  24796875.560    24796892.858    24796894.357
      4062.062        3165.226
   3836478.306 5   2988698.579 5  24614070.274    24614088.621    24614090.390
     -3251.562       -2533.659
  -1135812.150 7   -885048.301 6  22132025.348    22132040.637    22132038.748
     -1297.794       -1011.281
   1022386.027 8   -153054.361 7  22122798.126    22122812.336    22122810.177
      2726.494        2124.562
 -19545827.335 6 -15224438.903 5  24042870.547    24042882.958    24042880.170
      -278.696        -217.111
         0.014 7        -0.009 6  22995789.686    22995801.708    22995800.808
     -1885.822       -1469.514
 92  6 13  0 40 30.0000000  0  8  3 20 12 17 16 24 25  2             0.000828250
  -1440036.306 7  -1122105.036 6  22994713.401    22994726.712    22994725.093
     -1883.764       -1467.816
   -517395.481 8   -403164.381 8  20624182.605    20624197.925    20624195.077
      -329.086        -256.437
   2504620.596 5   1240055.764 5  24799196.044    24799212.113    24799213.342
      4063.744        3166.523
   3826726.714 5   2981099.942 5  24612210.151    24612232.306    24612233.685
     -3249.497       -2532.087
  -1139700.564 7   -888078.224 6  22131283.032    22131300.629    22131298.981
     -1294.489       -1008.664
   1030569.130 8   -146677.917 7  22124354.528    22124369.368    22124367.449
      2728.932        2126.441
 -19546658.205 6 -15225086.350 5  24042712.137    24042724.278    24042722.749
      -275.253        -214.497
         0.014 7        -0.009 6  22994713.341    22994726.202    22994724.973
     -1883.756       -1467.802
 92  6 13  0 40 33.0000000  0  8  3 20 12 17 16 24 25  2             0.000828770
  -1445683.761 7  -1126505.636 6  22993636.996    22993651.926    22993649.708
     -1881.459       -1466.124
   -518377.105 8   -403929.285 8  20623995.475    20624011.184    20624008.246
      -325.407        -253.561
   2516814.891 5   1249557.796 5  24801514.399    24801532.087    24801533.586
      4065.705        3168.026
   3816981.776 5   2973506.498 5  24610368.646    24610378.030    24610379.319
     -3247.215       -2530.267
  -1143578.539 7   -891100.029 6  22130547.221    22130562.660    22130560.772
     -1290.936       -1005.931
   1038760.005 8   -140295.424 7  22125912.549    22125928.259    22125925.950
      2731.568        2128.494
 -19547478.033 6 -15225725.170 5  24042556.514    24042568.476    24042566.198
      -271.415        -211.503
         0.014 7        -0.009 6  22993636.936    22993651.416    22993649.588
     -1881.440       -1466.094
 92  6 13  0 40 36.0000000  0  8  3 20 12 17 16 24 25  2             0.000829310
  -1451324.388 7  -1130900.932 5  22992563.589    22992578.159    22992576.331
     -1879.110       -1464.231
   -519347.604 8   -404685.520 8  20623808.734    20623826.422    20623823.664
      -321.655        -250.630
   2529015.127 6   1259064.458 5  24803840.189    24803854.699    24803855.718
      4067.711        3169.664
   3807243.746 5   2965918.447 5  24608510.593    24608526.362    24608526.332
     -3244.944       -2528.385
  -1147445.801 7   -894113.468 6  22129811.500    22129826.880    22129824.901
     -1287.307       -1003.128
   1046958.922 8   -133906.657 7  22127474.888    22127488.259    22127486.190
      2734.319        2130.628
 -19548286.473 6 -15226355.129 5  24042396.605    24042414.982    24042412.464
      -267.575        -208.448
         0.014 7        -0.009 5  22992563.529    22992577.650    22992576.211
     -1879.108       -1464.247
 92  6 13  0 40 39.0000000  0  8  3 20 12 17 16 24 25  2             0.000829840
  -1456958.501 7  -1135291.137 6  22991487.964    22991505.982    22991504.123
     -1876.934       -1462.552
   -520307.455 9   -405433.456 8  20623627.840    20623643.549    20623641.000
      -318.109        -247.870
   2541220.817 5   1268575.367 5  24806161.182    24806176.861    24806178.090
      4069.484        3171.084
   3797512.175 5   2958335.431 5  24606657.396    24606673.884    24606674.604
     -3242.645       -2526.665
  -1151302.809 7   -897118.932 6  22129076.229    22129092.748    22129091.369
     -1283.873       -1000.430
   1055165.465 8   -127511.955 7  22129035.637    22129050.087    22129047.629
      2736.861        2132.565
 -19549083.966 6 -15226976.547 5  24042243.861    24042262.178    24042260.529
      -263.967        -205.721
         0.014 7        -0.009 6  22991487.904    22991505.472    22991504.003
     -1876.934       -1462.565
 92  6 13  0 40 42.0000000  0  8  3 20 12 17 16 24 25  2             0.000830380
  -1462586.007 7  -1139676.202 6  22990415.517    22990434.314    22990434.014
     -1874.892       -1460.945
   -521256.442 9   -406172.927 8  20623449.493    20623463.224    20623460.226
      -314.554        -245.118
   2553432.126 5   1278090.657 5  24808483.105    24808501.272    24808502.111
      4071.343        3172.467
   3787787.130 5   2950757.495 5  24604803.749    24604822.666    24604824.884
     -3240.579       -2525.100
  -1155149.440 7   -900116.309 6  22128346.295    22128360.775    22128358.976
     -1280.499        -997.816
   1063379.773 8   -121111.193 7  22130598.995    22130612.905    22130610.687
      2739.351        2134.564
 -19549870.392 6 -15227589.332 5  24042097.802    24042112.792    24042110.693
      -260.275        -202.797
         0.014 7        -0.009 6  22990415.457    22990433.804    22990433.894
     -1874.897       -1460.938
 92  6 13  0 40 45.0000000  0  7  3 20 12 17 16 24 25                0.000830920
  -1468207.240 7  -1144056.388 6  22989350.774    22989365.463    22989364.084
     -1872.746       -1459.277
   -522194.883 9   -406904.177 8  20623268.628    20623284.787    20623281.699
      -311.019        -242.352
   2565648.797 5   1287610.126 5  24810809.134    24810825.923    24810825.923
      4073.091        3173.816
   3778068.408 5   2943184.468 5  24602962.184    24602973.576    24602974.535
     -3238.409       -2523.569
  -1158985.943 7   -903105.785 6  22127615.880    22127630.570    22127629.101
     -1277.121        -995.175
   1071601.535 8   -114704.628 7  22132162.922    22132177.522    22132175.424
      2741.829        2136.498
 -19550645.986 6 -15228193.697 5  24041947.696    24041965.234    24041963.825
      -256.761        -200.081
 92  6 13  0 40 48.0000000  0  7  3 20 12 17 16 24 25                0.000831460
  -1473821.762 7  -1148431.338 6  22988282.163    22988297.123    22988295.714
     -1870.414       -1457.477
   -523122.430 8   -407626.941 8  20623092.920    20623108.119    20623105.331
      -307.331        -239.475
   2577871.167 5   1297134.039 5  24813138.851    24813151.653    24813152.732
      4075.084        3175.480
   3768356.300 5   2935616.610 5  24601108.657    24601125.145    24601126.405
     -3236.186       -2521.702
  -1162811.894 7   -906087.041 6  22126888.434    22126902.734    22126900.905
     -1273.524        -992.377
   1079831.100 8   -108291.981 7  22133728.499    22133743.698    22133741.450
      2744.503        2138.607
 -19551410.464 6 -15228789.390 5  24041804.395    24041819.535    24041818.096
      -252.940        -197.111
 92  6 13  0 40 51.0000000  0  8  3 20 12 17 16 24 25  4             0.000832010
  -1479429.410 7  -1152800.935 6  22987215.082    22987230.342    22987228.303
     -1868.303       -1455.804
   -524038.941 8   -408341.102 8  20622919.070    20622933.520    20622931.092
      -303.841        -236.730
   2590099.416 5   1306662.526 5  24815460.894    24815478.432    24815479.541
      4076.867        3176.669
   3758651.001 5   2928054.053 5  24599260.946    24599278.514    24599278.154
     -3234.125       -2520.088
  -1166627.147 7   -909059.951 6  22126158.020    22126176.667    22126174.868
     -1270.148        -989.757
   1088068.634 8   -101873.126 7  22135296.383    22135311.223    22135308.915
      2747.005        2140.504
 -19552163.649 6 -15229376.292 5  24041667.420    24041676.564    24041675.095
      -249.324        -194.299
         0.000 1         0.000 1  20622918.980           0.000           0.000
         0.000           0.000
 92  6 13  0 40 54.0000000  0  8  3 20 12 17 16 24 25  4             0.000832560
  -1485031.137 7  -1157165.899 6  22986145.872    22986164.340    22986162.361
     -1866.211       -1454.197
   -524945.213 9   -409047.288 8  20622747.169    20622761.349    20622758.501
      -300.339        -234.024
   2602332.709 5   1316194.949 5  24817791.660    24817805.871    24817807.909
      4078.532        3178.133
   3748951.703 5   2920496.189 5  24597417.762    24597432.662    24597433.501
     -3231.958       -2518.453
  -1170432.551 7   -912025.211 6  22125438.488    22125452.458    22125450.929
     -1266.740        -987.097
   1096313.361 8    -95448.673 7  22136864.867    22136880.217    22136877.908
      2749.494        2142.454
 -19552906.295 6 -15229954.966 5  24041525.858    24041534.792    24041533.563
      -245.733        -191.460
        -0.00318        -0.00917  20622747.079    20622761.229    20622758.561
      -300.357        -234.034
 92  6 13  0 40 57.0000000  0  8  3 20 12 17 16 24 25  4             0.000833120
  -1490626.009 7  -1161525.542 6  22985081.309    22985099.087    22985097.828
     -1863.866       -1452.386
   -525840.552 9   -409744.949 8  20622577.876    20622590.797    20622588.309
      -296.609        -231.119
   2614571.704 5   1325731.816 5  24820121.258    24820135.408    24820136.307
      4080.653        3179.747
   3739259.151 5   2912943.568 5  24595574.218    24595588.698    24595588.938
     -3229.811       -2516.715
  -1174227.366 7   -914982.201 6  22124715.418    22124730.048    22124728.549
     -1263.133        -984.243
   1104565.958 8    -89018.076 7  22138435.930    22138450.620    22138448.341
      2752.181        2144.533
 -19553637.627 6 -15230524.831 5  24041387.534    24041395.808    24041394.939
      -241.869        -188.532
        -0.003 8        -0.009 8  20622577.786    20622590.678    20622588.369
      -296.613        -231.115
 92  6 13  0 41  0.0000000  0  8  3 20 12 17 16 24 25  4             0.000833680
  -1496214.267 7  -1165880.022 6  22984019.684    22984036.293    22984034.764
     -1861.656       -1450.683
   -526725.110 8   -410434.220 8  20622407.295    20622422.644    20622420.186
      -293.031        -228.320
   2626816.313 5   1335273.046 5  24822450.165    24822465.904    24822466.564
      4082.489        3181.116
   3729573.232 5   2905396.117 5  24593727.077    24593745.364    24593746.474
     -3227.586       -2514.999
  -1178011.722 7   -917931.054 6  22123993.518    22124010.097    22124008.238
     -1259.686        -981.554
   1112826.296 8    -82581.451 7  22140009.660    22140022.192    22140020.303
      2754.757        2146.577
 -19554357.825 6 -15231086.026 5  24041249.509    24041258.743    24041257.454
      -238.272        -185.662
        -0.003 8        -0.009 8  20622407.205    20622422.524    20622420.246
      -293.032        -228.311
 92  6 13  0 41  3.0000000  0  8  3 20 12 17 16 24 25  4             0.000834240
  -1501795.549 7  -1170229.084 6  22982957.520    22982973.768    22982972.719
     -1859.334       -1448.763
   -527598.533 9   -411114.812 8  20622240.310    20622256.469    20622253.771
      -289.224        -225.359
   2639066.935 5   1344818.974 5  24824783.450    24824796.611    24824797.450
      4084.623        3182.775
   3719894.337 5   2897854.135 5  24591889.949    24591903.350    24591904.609
     -3225.022       -2513.002
  -1181785.279 7   -920871.485 6  22123277.134    22123292.034    22123290.265
     -1255.991        -978.675
   1121094.757 8    -76138.495 7  22141580.303    22141596.012    22141593.584
      2757.562        2148.746
 -19555066.593 6 -15231638.318 5  24041109.986    24041123.776    24041123.387
      -234.276        -182.552
        -0.003 9        -0.009 8  20622240.220    20622256.349    20622253.831
      -289.227        -225.359
 92  6 13  0 41  6.0000000  0  8  3 20 12 17 16 24 25  4             0.000834810
  -1507370.207 7  -1174572.975 6  22981895.505    22981912.923    22981911.364
     -1857.247       -1447.233
   -528461.283 8   -411787.081 8  20622075.124    20622092.243    20622089.544
      -285.827        -222.721
   2651323.135 5   1354369.237 5  24827110.229    24827128.816    24827129.956
      4086.298        3184.005
   3710222.120 5   2890317.347 5  24590048.534    24590063.193    24590064.632
     -3223.040       -2511.380
  -1185548.446 7   -923803.816 6  22122563.478    22122575.979    22122574.121
     -1252.715        -976.098
   1129370.978 8    -69689.481 7  22143154.033    22143170.732    22143168.453
      2760.000        2150.670
 -19555764.282 6 -15232181.967 6  24040975.709    24040991.028    24040990.938
      -230.854        -179.830
        -0.003 8        -0.009 8  20622075.035    20622092.123    20622089.604
      -285.824        -222.719
 92  6 13  0 41  9.0000000  0  8  3 20 12 17 16 24 25  4             0.000835380
  -1512938.734 7  -1178912.077 6  22980840.775    22980853.156    22980852.407
     -1855.165       -1445.556
   -529313.845 8   -412451.407 8  20621913.117    20621929.845    20621927.267
      -282.406        -220.052
   2663584.421 5   1363923.489 5  24829448.101    24829461.861    24829463.360
      4087.935        3185.447
   3700556.074 5   2882785.376 5  24588207.628    24588223.547    24588224.746
     -3220.954       -2509.694
  -1189301.778 7   -926728.493 6  22121848.833    22121861.724    22121860.045
     -1249.405        -973.510
   1137654.456 8    -63234.835 7  22144730.852    22144747.250    22144745.002
      2762.441        2152.549
 -19556451.422 6 -15232717.396 5  24040847.847    24040860.559    24040859.449
      -227.115        -176.988
        -0.003 8        -0.009 8  20621913.027    20621929.725    20621927.327
      -282.409        -220.056
 92  6 13  0 41 12.0000000  0  8  3 20 12 17 16 24 25  4             0.000835950
  -1518500.708 6  -1183246.089 6  22979780.769    22979795.159    22979793.600
     -1852.966       -1443.889
   -530155.709 8   -413107.386 8  20621752.518    20621769.816    20621767.328
      -278.833        -217.251
   2675851.260 5   1373482.029 5  24831777.458    24831795.716    24831797.574
      4089.761        3186.907
   3690896.573 6   2875258.505 5  24586365.883    24586386.059    24586387.078
     -3218.736       -2508.076
  -1193044.735 7   -929645.101 7  22121134.038    22121149.387    22121147.918
     -1245.952        -970.869
   1145945.597 8    -56774.206 7  22146310.398    22146324.758    22146322.750
      2764.972        2154.534
 -19557127.339 5 -15233244.119 6  24040717.408    24040731.978    24040731.198
      -223.553        -174.196
        -0.003 8        -0.009 8  20621752.458    20621769.696    20621767.388
      -278.826        -217.249
 92  6 13  0 41 15.0000000  0  8  3 20 12 17 16 24 25  4             0.000836520
  -1524056.595 7  -1187575.347 6  22978722.891    22978737.791    22978735.902
     -1851.003       -1442.359
   -530987.250 8   -413755.355 8  20621596.266    20621611.585    20621608.977
      -275.469        -214.622
   2688123.197 5   1383044.545 5  24834113.801    24834130.859    24834133.257
      4091.532        3188.094
   3681243.303 5   2867736.502 5  24584535.320    24584549.141    24584550.550
     -3216.724       -2506.565
  -1196777.810 7   -932553.986 7  22120422.330    22120438.879    22120437.380
     -1242.702        -968.331
   1154244.055 8    -50307.882 6  22147889.765    22147903.975    22147902.026
      2767.348        2156.372
 -19557792.710 5 -15233762.584 5  24040583.131    24040605.135    24040604.146
      -220.083        -171.552
        -0.003 8        -0.009 8  20621596.176    20621611.465    20621609.037
      -275.467        -214.618
 92  6 13  0 41 18.0000000  0  8  3 20 12 17 16 24 25  4             0.000837100
  -1529606.418 7  -1191899.880 6  22977666.303    22977681.772    22977680.183
     -1849.122       -1440.818
   -531808.605 8   -414395.377 8  20621441.003    20621455.274    20621452.575
      -272.175        -212.045
   2700400.137 5   1392610.978 5  24836449.844    24836467.651    24836469.120
      4093.160        3189.457
   3671596.163 5   2860219.277 5  24582699.092    24582713.002    24582714.231
     -3214.785       -2505.131
  -1200501.052 7   -935455.199 7  22119714.161    22119730.499    22119728.820
     -1239.508        -965.855
   1162549.769 8    -43835.899 7  22149467.932    22149484.451    22149482.802
      2769.685        2158.234
 -19558447.510 5 -15234272.815 5  24040465.612    24040480.931    24040480.362
      -216.565        -168.724
        -0.003 8        -0.009 8  20621440.914    20621455.154    20621452.635
      -272.164        -212.045
 92  6 13  0 41 21.0000000  0  8  3 20 12 17 16 24 25  4             0.000837680
  -1535150.097 7  -1196219.647 6  22976612.142    22976626.832    22976625.093
     -1846.971       -1439.148
   -532619.625 8   -415027.335 8  20621284.122    20621300.850    20621298.122
      -268.641        -209.318
   2712682.292 5   1402181.470 5  24838784.627    24838804.024    24838806.422
      4094.860        3190.819
   3661955.262 5   2852706.891 5  24580862.353    24580878.872    24580880.730
     -3212.702       -2503.321
  -1204214.325 7   -938348.640 7  22119008.629    22119024.068    22119021.940
     -1236.105        -963.169
   1170862.844 8    -37358.188 7  22151049.577    22151066.126    22151064.597
      2772.235        2160.192
 -19559091.672 6 -15234774.750 5  24040348.333    24040358.676    24040357.267
      -212.987        -165.965
        -0.003 8        -0.009 8  20621284.032    20621300.731    20621298.182
      -268.638        -209.324
 92  6 13  0 41 24.0000000  0  8  3 20 12 17 16 24 25  4             0.000838270
  -1540687.282 7  -1200534.322 6  22975557.562    22975572.642    22975571.563
     -1844.725       -1437.428
   -533420.010 8   -415651.010 8  20621132.937    20621148.376    20621145.768
      -265.012        -206.490
   2724969.860 6   1411756.184 5  24841119.471    24841143.094    24841144.683
      4096.692        3192.237
   3652320.904 5   2845199.633 5  24579024.805    24579044.352    24579047.949
     -3210.376       -2501.527
  -1207917.281 7   -941234.064 7  22118303.397    22118319.196    22118317.218
     -1232.590        -960.408
   1179183.523 8    -30874.543 7  22152632.182    22152649.600    22152647.891
      2774.839        2162.221
 -19559724.850 6 -15235268.139 5  24040223.590    24040237.800    24040235.401
      -209.211        -163.044
        -0.003 8        -0.009 8  20621132.847    20621148.256    20621145.828
      -265.011        -206.498
 92  6 13  0 41 27.0000000  0  8  3 20 12 17 16 24 25  4             0.000838860
  -1546218.009 7  -1204843.974 6  22974507.719    22974520.400    22974518.782
     -1842.686       -1435.805
   -534209.775 8   -416266.417 8  20620980.792    20620998.210    20620995.392
      -261.551        -203.791
   2737262.917 6   1421335.153 5  24843464.537    24843482.585    24843483.634
      4098.519        3193.606
   3642693.144 5   2837697.508 5  24577195.921    24577212.440    24577215.798
     -3208.164       -2499.996
  -1211609.918 7   -944111.424 7  22117602.093    22117616.363    22117614.954
     -1229.216        -957.789
   1187511.735 8    -24385.033 7  22154220.812    22154234.662    22154233.014
      2777.219        2164.087
 -19560347.089 5 -15235753.010 5  24040109.039    24040119.142    24040117.463
      -205.712        -160.291
        -0.003 8        -0.009 8  20620980.702    20620998.090    20620995.452
      -261.555        -203.787
 92  6 13  0 41 30.0000000  0  8  3 20 12 17 16 24 25  4             0.000839450
  -1551742.413 7  -1209148.700 6  22973451.371    22973469.148    22973468.099
     -1840.474       -1434.088
   -534989.049 8   -416873.643 8  20620833.114    20620849.963    20620847.175
      -257.950        -201.008
   2749561.188 6   1430918.232 5  24845804.268    24845823.364    24845823.934
      4100.330        3195.050
   3633071.774 5   2830200.376 5  24575367.907    24575380.498    24575384.455
     -3206.096       -2498.177
  -1215292.335 7   -946980.849 7  22116901.867    22116915.778    22116914.489
     -1225.753        -955.128
   1195847.247 8    -17889.828 7  22155803.596    22155820.565    22155818.736
      2779.759        2166.019
 -19560958.582 6 -15236229.471 5  24039986.514    24040002.642    24040001.263
      -202.051        -157.468
        -0.003 8        -0.009 8  20620833.024    20620849.843    20620847.235
      -257.951        -200.999
 92  6 13  0 41 33.0000000  0  8  3 20 12 17 16 24 25  4             0.000840050
  -1557260.516 7  -1213448.508 6  22972400.478    22972419.275    22972417.956
     -1838.499       -1432.591
   -535757.753 9   -417472.637 8  20620686.456    20620703.784    20620700.936
      -254.509        -198.329
   2761864.774 5   1440505.467 5  24848145.647    24848164.354    24848164.983
      4101.998        3196.286
   3623457.049 5   2822708.325 5  24573529.220    24573551.254    24573552.783
     -3203.801       -2496.467
  -1218964.488 7   -949842.279 6  22116205.899    22116217.291    22116215.283
     -1222.367        -952.513
   1204190.083 8    -11388.914 7  22157392.167    22157408.295    22157406.647
      2782.168        2167.869
 -19561559.221 6 -15236697.504 5  24039873.702    24039888.721    24039886.473
      -198.456        -154.686
        -0.003 9        -0.009 8  20620686.396    20620703.664    20620700.996
      -254.507        -198.327
 92  6 13  0 41 36.0000000  0  8  3 20 12 17 16 24 25  4             0.000840650
  -1562772.227 7  -1217743.330 6  22971353.693    22971370.271    22971368.832
     -1836.195       -1430.834
   -536515.833 9   -418063.345 8  20620545.314    20620559.524    20620556.526
      -250.861        -195.466
   2774173.740 5   1450096.850 5  24850488.255    24850507.142    24850508.851
      4103.911        3197.870
   3613848.852 5   2815221.451 5  24571702.195    24571723.690    24571724.619
     -3201.658       -2494.738
  -1222626.367 7   -952695.680 6  22115505.914    22115520.334    22115518.145
     -1218.848        -949.778
   1212540.336 8     -4882.225 7  22158982.715    22158997.195    22158995.547
      2784.731        2169.898
 -19562148.896 6 -15237156.984 5  24039753.785    24039776.239    24039775.430
      -194.681        -151.718
        -0.003 9        -0.009 8  20620545.254    20620559.404    20620556.586
      -250.858        -195.470
 92  6 13  0 41 39.0000000  0  8  3 20 12 17 16 24 25  4             0.000841250
  -1568277.677 7  -1222033.289 6  22970304.749    22970322.437    22970321.357
     -1834.223       -1429.246
   -537263.436 9   -418645.894 8  20620402.732    20620417.002    20620414.394
      -247.511        -192.868
   2786487.948 5   1459692.327 5  24852834.161    24852850.560    24852851.639
      4105.632        3199.194
   3604247.106 5   2807739.592 5  24569885.962    24569896.335    24569897.264
     -3199.515       -2493.167
  -1226278.159 7   -955541.237 6  22114810.785    22114825.535    22114823.436
     -1215.632        -947.219
   1220897.877 8      1630.140 7  22160571.556    22160587.594    22160586.305
      2787.011        2171.730
 -19562727.721 6 -15237608.014 5  24039647.808    24039666.485    24039663.757
      -191.214        -149.020
        -0.003 9        -0.009 8  20620402.672    20620416.882    20620414.454
      -247.510        -192.860
 92  6 13  0 41 42.0000000  0  8  3 20 12 17 16 24 25  4             0.000841850
  -1573777.111 7  -1226318.556 6  22969258.923    22969276.191    22969274.632
     -1832.123       -1427.664
   -538000.843 9   -419220.483 8  20620260.271    20620276.969    20620274.061
      -244.063        -190.170
   2798807.076 5   1469291.619 5  24855180.547    24855194.187    24855195.536
      4107.295        3200.384
   3594651.496 5   2800262.501 5  24568059.536    24568070.539    24568071.708
     -3197.455       -2491.562
  -1229920.144 7   -958379.144 6  22114117.275    22114132.565    22114130.646
     -1212.314        -944.639
   1229262.405 8      8147.952 7  22162162.284    22162179.462    22162177.754
      2789.373        2173.559
 -19563295.966 6 -15238050.806 5  24039541.772    24039558.020    24039556.611
      -187.647        -146.219
        -0.003 9        -0.009 8  20620260.211    20620276.849    20620274.121
      -244.065        -190.173
 92  6 13  0 41 45.0000000  0  8  3 20 12 17 16 24 25  4             0.000842460
  -1579270.039 7  -1230598.755 6  22968214.446    22968231.084    22968228.776
     -1830.081       -1426.060
   -538727.517 9   -419786.741 8  20620124.225    20620138.585    20620136.007
      -240.518        -187.390
   2811131.657 5   1478895.157 5  24857520.067    24857539.523    24857540.633
      4108.984        3201.793
   3585062.464 5   2792790.556 5  24566234.670    24566245.852    24566245.972
     -3195.334       -2489.826
  -1233551.810 7   -961209.016 6  22113426.763    22113441.603    22113439.594
     -1208.894        -942.005
   1237634.363 8     14671.555 7  22163759.638    22163772.440    22163770.851
      2791.810        2175.412
 -19563853.176 6 -15238484.996 5  24039435.495    24039451.624    24039449.975
      -183.996        -143.393
        -0.003 9        -0.009 8  20620124.135    20620138.465    20620136.067
      -240.511        -187.390
 92  6 13  0 41 48.0000000  0  8  3 20 12 17 16 24 25  4             0.000843070
  -1584756.983 7  -1234874.305 6  22967173.087    22967186.668    22967185.109
     -1828.046       -1424.424
   -539444.019 8   -420345.034 8  20619986.650    20620002.150    20619999.601
      -237.118        -184.730
   2823461.178 5   1488502.525 5  24859860.097    24859886.269    24859887.558
      4110.566        3203.036
   3575479.396 5   2785323.232 5  24564409.533    24564421.135    24564423.983
     -3193.347       -2488.351
  -1237173.686 7   -964031.257 7  22112735.921    22112752.470    22112750.072
     -1205.587        -939.527
   1246013.151 8     21200.483 7  22165355.224    22165367.186    22165365.027
      2794.081        2177.233
 -19564399.863 5 -15238910.994 5  24039332.277    24039347.386    24039346.727
      -180.567        -140.603
        -0.003 8        -0.009 8  20619986.590    20620002.030    20619999.691
      -237.119        -184.728
 92  6 13  0 41 51.0000000  0  8  3 20 12 17 16 24 25  4             0.000843690
  -1590237.478 7  -1239144.825 6  22966130.709    22966143.929    22966142.131
     -1825.907       -1422.840
   -540149.819 8   -420895.004 8  20619851.444    20619867.873    20619865.264
      -233.549        -181.981
   2835796.069 5   1498114.118 5  24862219.224    24862233.194    24862234.783
      4112.447        3204.564
   3565902.888 5   2777861.055 5  24562583.108    24562599.566    24562601.365
     -3191.088       -2486.646
  -1240785.317 7   -966845.510 7  22112050.896    22112065.196    22112062.977
     -1202.219        -936.734
   1254399.296 8     27735.130 7  22166946.133    22166962.801    22166961.362
      2796.546        2179.136
 -19564935.620 5 -15239328.465 5  24039227.979    24039245.726    24039244.767
      -176.803        -137.760
        -0.003 8        -0.009 8  20619851.354    20619867.753    20619865.324
      -233.553        -181.982
 92  6 13  0 41 54.0000000  0  8  3 20 12 17 16 24 25  4             0.000844310
  -1595712.183 7  -1243410.813 6  22965088.840    22965102.330    22965100.562
     -1823.928       -1421.319
   -540845.544 9   -421437.141 8  20619719.505    20619735.484    20619732.816
      -230.145        -179.353
   2848135.746 5   1507729.462 5  24864564.350    24864580.329    24864582.098
      4114.079        3205.711
   3556332.349 5   2770403.467 5  24560761.988    24560777.727    24560779.196
     -3189.187       -2485.070
  -1244387.272 7   -969652.221 6  22111368.628    22111379.570    22111377.082
     -1198.978        -934.294
   1262792.141 8     34275.009 7  22168544.176    22168559.705    22168557.937
      2798.801        2180.861
 -19565460.957 6 -15239737.808 5  24039137.082    24039145.806    24039144.067
      -173.424        -135.049
        -0.003 9        -0.009 8  20619719.445    20619735.364    20619732.876
      -230.149        -179.352
 92  6 13  0 41 57.0000000  0  8  3 20 12 17 16 24 25  4             0.000844930
  -1601180.830 7  -1247672.087 6  22964047.661    22964061.811    22964059.442
     -1822.063       -1419.847
   -541531.093 9   -421971.338 8  20619587.027    20619605.194    20619602.406
      -226.892        -176.775
   2860480.317 5   1517348.613 5  24866907.318    24866929.773    24866931.841
      4115.536        3206.924
   3546767.779 5   2762950.593 5  24558940.269    24558957.238    24558959.756
     -3187.240       -2483.477
  -1247979.472 7   -972451.340 6  22110682.283    22110696.134    22110693.765
     -1195.840        -931.834
   1271191.852 8     40820.240 7  22170145.308    22170158.349    22170156.550
      2800.983        2182.582
 -19565975.689 6 -15240138.873 5  24039035.452    24039047.414    24039046.844
      -169.860        -132.381
        -0.003 9        -0.009 8  20619586.967    20619605.074    20619602.466
      -226.895        -176.771
 92  6 13  0 42  0.0000000  0  8  3 20 12 17 16 24 25  4             0.000845560
  -1606643.330 7  -1251928.579 6  22963007.980    22963022.071    22963020.811
     -1819.848       -1418.033
   -542206.226 9   -422497.415 8  20619459.225    20619476.703    20619474.125
      -223.231        -173.963
   2872830.004 5   1526971.728 5  24869263.927    24869279.996    24869282.094
      4117.502        3208.395
   3537209.532 5   2755502.622 5  24557123.587    24557138.517    24557140.226
     -3184.981       -2481.805
  -1251561.823 7   -975242.777 6  22110001.395    22110014.346    22110011.977
     -1192.402        -929.191
   1279598.621 8     47370.967 7  22171745.480    22171757.981    22171756.183
      2803.496        2184.536
 -19566479.612 6 -15240531.539 5  24038936.491    24038951.450    24038950.371
      -166.051        -129.398
        -0.003 9        -0.009 8  20619459.165    20619476.553    20619474.185
      -223.229        -173.964
 92  6 13  0 42  3.0000000  0  8  3 20 12 17 16 24 25  4             0.000846180
  -1612099.852 7  -1256180.413 6  22961970.159    22961983.859    22961982.330
     -1817.987       -1416.590
   -542871.044 9   -423015.455 8  20619335.141    20619350.131    20619347.343
      -219.971        -171.393
   2885184.692 5         0.000 1  24871611.632    24871630.908           0.000
      4118.947           0.000
   3527657.484 5   2748059.481 5  24555308.224    24555320.455    24555322.224
     -3183.002       -2480.237
  -1255134.462 7   -978026.652 6  22109321.315    22109334.296    22109332.618
     -1189.341        -926.714
   1288012.351 8     53927.115 7  22173343.284    22173359.203    22173356.954
      2805.651        2186.207
 -19566972.868 6 -15240915.893 5  24038844.784    24038858.095    24038857.555
      -162.703        -126.864
        -0.003 9        -0.009 8  20619335.051    20619350.011    20619347.403
      -219.967        -171.397
 92  6 13  0 42  6.0000000  0  8  3 20 12 17 16 24 25  4             0.000846810
  -1617550.181 7  -1260427.417 6  22960930.898    22960946.577    22960944.869
     -1815.785       -1414.869
   -543525.450 8   -423525.376 8  20619211.447    20619225.597    20619222.839
      -216.347        -168.571
   2897544.373 5  -1566102.36315  24873968.420    24873983.290    24873984.939
      4120.763        3211.048
   3518111.649 5   2740621.194 5  24553492.951    24553503.683    24553505.602
     -3180.916       -2478.671
  -1258697.357 7   -980802.927 6  22108645.523    22108656.645    22108653.917
     -1185.951        -924.115
   1296433.131 8     60488.760 7  22174947.293    22174961.594    22174959.765
      2808.187        2188.139
 -19567455.434 6 -15241291.916 5  24038752.808    24038766.119    24038765.159
      -158.970        -123.945
        -0.003 8        -0.009 8  20619211.387    20619225.477    20619222.929
      -216.347        -168.573
 92  6 13  0 42  9.0000000  0  8  3 20 12 17 16 24 25  4             0.000847450
  -1622994.158 7  -1264669.467 6  22959895.505    22959910.645    22959908.636
     -1813.817       -1413.390
   -544169.084 8   -424026.907 8  20619089.401    20619103.072    20619100.404
      -212.890        -165.886
   2909909.484 5  -1556467.224 5  24876325.178    24876336.271    24876337.620
      4122.402        3212.305
   3508572.402 5   2733188.028 5  24551670.452    24551690.089    24551691.168
     -3178.852       -2476.982
  -1262250.123 7   -983571.318 6  22107964.365    22107980.254    22107978.395
     -1182.685        -921.599
   1304861.339 8     67056.198 7  22176551.063    22176565.363    22176563.325
      2810.478        2190.020
 -19567926.944 6 -15241659.334 5  24038664.189    24038677.200    24038675.431
      -155.502        -121.179
        -0.003 8        -0.009 8  20619089.311    20619102.952    20619100.464
      -212.889        -165.885
 92  6 13  0 42 12.0000000  0  8  3 20 12 17 16 24 25  4             0.000848090
  -1628432.412 7  -1268907.066 6  22958859.842    22958875.671    22958873.932
     -1811.823       -1411.736
   -544802.612 8   -424520.571 8  20618966.906    20618982.585    20618980.187
      -209.442        -163.195
   2922279.251 5  -1546828.468 5  24878675.491    24878690.271    24878692.070
      4123.901        3213.428
   3499039.030 5   2725759.436 5  24549861.145    24549875.025    24549876.824
     -3176.746       -2475.347
  -1265793.453 7   -986332.360 6  22107289.352    22107305.991    22107304.102
     -1179.491        -919.109
   1313296.231 8     73628.832 7  22178154.713    22178170.752    22178168.713
      2812.812        2191.763
 -19568388.146 6 -15242018.724 5  24038576.440    24038588.791    24038587.952
      -152.053        -118.419
        -0.003 8        -0.009 8  20618966.816    20618982.465    20618980.247
      -209.443        -163.191
 92  6 13  0 42 15.0000000  0  8  3 20 12 17 16 24 25  4             0.000848730
  -1633864.616 7  -1273139.951 6  22957825.978    22957841.747    22957840.578
     -1809.876       -1410.259
   -545425.719 8   -425006.107 8  20618849.987    20618864.017    20618861.409
      -206.037        -160.532
   2934653.920 5  -1537185.880 5  24881033.179    24881044.271    24881047.000
      4125.610        3214.752
   3489511.877 5   2718335.688 5  24548044.672    24548062.600    24548064.429
     -3174.789       -2473.760
  -1269327.076 7   -989085.821 6  22106618.117    22106633.616    22106631.458
     -1176.343        -916.594
   1321738.059 8     80206.875 7  22179764.239    22179776.950    22179775.001
      2815.028        2193.536
 -19568838.731 6 -15242369.807 5  24038490.969    24038502.931    24038501.462
      -148.492        -115.673
        -0.003 8        -0.009 8  20618849.897    20618863.898    20618861.469
      -206.035        -160.529
 92  6 13  0 42 18.0000000  0  8  3 20 12 17 16 24 25  4             0.000849370
  -1639290.885 7  -1277368.204 6  22956796.101    22956809.202    22956808.452
     -1807.830       -1408.692
   -546038.460 8   -425483.566 8  20618732.169    20618747.158    20618744.700
      -202.522        -157.805
   2947033.426 5  -1527539.521 5  24883391.347    24883401.180    24883401.540
      4127.187        3215.986
   3479990.951 5   2710916.803 5  24546232.007    24546250.414    24546252.453
     -3172.604       -2472.236
  -1272851.066 7   -991831.796 6  22105948.290    22105963.100    22105960.522
     -1173.035        -914.101
   1330186.791 8     86790.303 7  22181372.475    22181384.947    22181382.818
      2817.435        2195.350
 -19569278.727 6 -15242712.654 5  24038403.430    24038419.229    24038417.940
      -144.989        -112.876
        -0.003 8        -0.009 8  20618732.079    20618747.038    20618744.760
      -202.527        -157.806
 92  6 13  0 42 21.0000000  0  8  3 20 12 17 16 24 25  4             0.000850020
  -1644711.342 7  -1281591.924 6  22955763.705    22955777.586    22955776.267
     -1805.894       -1407.191
   -546640.887 8   -425952.991 8  20618617.888    20618632.698    20618629.969
      -199.007        -155.089
   2959417.712 5  -1517889.455 5  24885742.529    24885757.579    24885759.497
      4128.841        3217.406
   3470476.208 5   2703502.734 5  24544427.826    24544439.818    24544441.437
     -3170.523       -2470.507
  -1276365.538 7   -994570.337 7  22105279.244    22105294.173    22105292.045
     -1169.831        -911.543
   1338642.364 8     93379.055 7  22182979.183    22182994.053    22182991.594
      2819.697        2197.155
 -19569708.287 6 -15243047.380 5  24038323.655    24038337.235    24038335.946
      -141.421        -110.198
        -0.003 8        -0.009 8  20618617.798    20618632.578    20618630.059
      -199.007        -155.087
 92  6 13  0 42 24.0000000  0  8  3 20 12 17 16 24 25  4             0.000850670
  -1650125.575 7  -1285810.800 6  22954732.899    22954747.079    22954746.360
     -1803.751       -1405.404
   -547232.672 9   -426414.119 8  20618504.356    20618520.215    20618517.218
      -195.456        -152.283
   2971807.064 5  -1508235.410 5  24888105.943    24888115.806    24888117.425
      4130.658        3218.763
   3460967.962 5   2696093.711 5  24542617.829    24542630.900    24542631.530
     -3168.346       -2468.742
  -1279870.174 7   -997301.216 6  22104616.882    22104627.435    22104625.276
     -1166.534        -908.949
   1347105.119 8     99973.407 7  22184591.557    22184604.448    22184601.870
      2822.165        2199.089
 -19570127.195 6 -15243373.805 5  24038246.848    24038257.730    24038256.291
      -137.788        -107.337
        -0.003 8        -0.009 8  20618504.267    20618520.096    20618517.278
      -195.458        -152.280
 92  6 13  0 42 27.0000000  0  8  3 20 12 17 16 24 25  4             0.000851320
  -1655533.846 7  -1290025.033 6  22953701.523    22953718.162    22953716.603
     -1801.791       -1403.983
   -547814.060 8   -426867.145 8  20618391.694    20618409.262    20618406.444
      -192.032        -149.635
   2984201.274 5  -1498577.603 5  24890465.429    24890473.554    24890475.173
      4132.269        3219.932
   3451465.993 5   2688689.613 5  24540808.372    24540822.852    24540822.192
     -3166.202       -2467.156
  -1283365.235 7  -1000024.640 6  22103950.384    22103962.225    22103960.307
     -1163.393        -906.499
   1355574.775 8    106573.140 7  22186201.682    22186216.042    22186213.944
      2824.438        2200.828
 -19570535.681 6 -15243692.104 5  24038167.493    24038180.084    24038178.915
      -134.390        -104.659
        -0.003 8        -0.009 8  20618391.605    20618409.142    20618406.504
      -192.032        -149.633
 92  6 13  0 42 30.0000000  0  8  3 20 12 17 16 24 25  4             0.000851970
  -1660936.028 7  -1294234.535 6  22952675.184    22952690.623    22952689.064
     -1799.826       -1402.409
   -548384.798 9   -427311.880 8  20618285.058    20618300.917    20618297.889
      -188.488        -146.860
   2996600.492 5  -1488915.898 5  24892830.552    24892833.130    24892835.529
      4133.887        3221.126
   3441970.598 5   2681290.616 5  24539000.893    24539015.733    24539015.883
     -3164.002       -2465.530
  -1286850.488 7  -1002740.421 6  22103284.574    22103299.084    22103297.196
     -1160.159        -903.995
   1364051.527 8    113178.401 7  22187814.356    22187829.255    22187826.917
      2826.748        2202.694
 -19570933.578 6 -15244002.144 5  24038090.087    24038104.507    24038103.607
      -130.894        -102.016
        -0.003 9        -0.009 8  20618284.968    20618300.797    20618297.949
      -188.486        -146.862
 92  6 13  0 42 33.0000000  0  8  3 20 12 17 16 24 25  4             0.000852630
  -1666332.546 7  -1298439.597 6  22951648.844    22951663.384    22951662.005
     -1798.034       -1401.095
   -548945.265 8   -427748.606 8  20618178.992    20618194.281    20618191.583
      -185.159        -144.292
   3009004.289 5  -1479250.636 5  24895177.297    24895193.007    24895195.855
      4135.362        3222.190
   3432481.352 5   2673896.410 5  24537200.130    24537210.653    24537210.563
     -3162.075       -2463.965
  -1290326.387 7  -1005448.914 6  22102623.472    22102637.712    22102635.104
     -1157.153        -901.655
   1372534.864 8    119788.795 7  22189426.550    22189443.638    22189441.359
      2828.801        2204.227
 -19571321.380 6 -15244304.328 5  24038017.477    24038030.967    24038029.468
      -127.654         -99.483
        -0.003 8        -0.009 8  20618178.932    20618194.161    20618191.643
      -185.158        -144.296
 92  6 13  0 42 36.0000000  0  8  3 20 12 17 16 24 25  4             0.000853290
  -1671723.180 7  -1302640.100 6  22950622.565    22950637.464    22950636.115
     -1795.895       -1399.366
   -549495.177 9   -428177.102 8  20618074.634    20618089.594    20618086.506
      -181.472        -141.422
   3021412.883 5  -1469581.617 5  24897533.007    24897555.401    24897555.671
      4136.946        3223.626
   3422998.470 5   2666507.160 5  24535390.613    24535405.782    24535406.052
     -3159.913       -2462.238
  -1293792.702 7  -1008149.941 6  22101964.948    22101977.749    22101975.980
     -1153.750        -899.068
   1381025.031 8    126404.500 7  22191043.960    22191059.219    22191056.941
      2831.249        2206.186
 -19571698.852 6 -15244598.468 5  24037941.779    24037959.377    24037957.638
      -124.044         -96.623
        -0.003 9        -0.009 8  20618074.574    20618089.474    20618086.566
      -181.468        -141.424
 92  6 13  0 42 39.0000000  0  8  3 20 12 17 16 24 25  4             0.000853960
  -1677107.830 7  -1306835.911 6  22949596.645    22949612.534    22949610.915
     -1794.088       -1398.004
   -550034.541 8   -428597.379 8  20617972.195    20617986.885    20617983.917
      -178.118        -138.784
   3033826.323 5  -1459908.808 5  24899902.716    24899916.596    24899917.766
      4138.422        3224.715
   3413521.981 5   2659122.913 5  24533591.978    24533602.830    24533603.819
     -3157.862       -2460.626
  -1297249.417 7  -1010843.475 6  22101301.387    22101320.094    22101318.026
     -1150.686        -896.671
   1389522.063 8    133025.561 7  22192661.430    22192676.360    22192673.782
      2833.410        2207.823
 -19572065.977 6 -15244884.531 5  24037876.874    24037889.286    24037888.326
      -120.729         -94.010
        -0.003 8        -0.009 8  20617972.105    20617986.765    20617983.977
      -178.111        -138.782
 92  6 13  0 42 42.0000000  0  8  3 20 12 17 16 24 25  4             0.000854620
  -1682486.588 7  -1311027.147 6  22948574.592    22948588.563    22948587.753
     -1792.036       -1396.317
   -550563.338 9   -429009.435 8  20617872.754    20617886.454    20617883.636
      -174.524        -135.966
   3046244.620 5  -1450232.239 5  24902270.417    24902279.860    24902281.060
      4140.155        3225.995
   3404051.964 5   2651743.683 5  24531782.340    24531801.107    24531800.238
     -3155.646       -2458.834
  -1300696.454 7  -1013529.486 6  22100645.711    22100664.119    22100662.440
     -1147.415        -894.090
   1398025.964 8    139651.970 7  22194282.078    22194294.460    22194291.941
      2835.777        2209.689
 -19572422.744 6 -15245162.537 5  24037802.735    24037820.903    24037819.974
      -117.172         -91.312
        -0.003 9        -0.009 8  20617872.664    20617886.334    20617883.726
      -174.525        -135.970
 92  6 13  0 42 45.0000000  0  7  3 20 12 17 16 24 25                0.000855290
  -1687859.467 7  -1315213.819 6  22947549.452    22947566.181    22947565.641
     -1789.970       -1394.794
   -551081.635 9   -429413.302 8  20617774.542    20617787.793    20617784.974
      -170.916        -133.191
   3058667.652 5  -1440551.962 5  24904625.347    24904644.473    24904645.942
      4141.946        3227.388
   3394588.317 5   2644369.425 5  24529979.359    24529999.175    24530000.074
     -3153.367       -2457.129
  -1304133.887 7  -1016207.999 7  22099992.404    22100009.852    22100007.993
     -1144.118        -891.537
   1406536.650 8    146283.681 7  22195899.878    22195913.879    22195911.690
      2838.150        2211.509
 -19572769.218 6 -15245432.523 5  24037742.507    24037755.458    24037754.079
      -113.661         -88.574
 92  6 13  0 42 48.0000000  0  7  3 20 12 17 16 24 25                0.000855960
  -1693226.208 7  -1319395.678 6  22946525.811    22946545.147    22946543.978
     -1787.978       -1393.230
   -551589.176 8   -429808.786 8  20617676.570    20617691.229    20617688.201
      -167.379        -130.451
   3071095.734 5  -1430867.769 5  24906993.437    24907008.547    24907009.776
      4143.353        3228.686
   3385131.354 5   2637000.379 5  24528187.949    24528199.761    24528200.030
     -3151.218       -2455.557
  -1307561.477 7  -1018878.836 6  22099343.203    22099357.653    22099355.584
     -1140.910        -889.006
   1415054.420 8    152920.900 7  22197521.306    22197534.856    22197532.578
      2840.374        2213.316
 -19573105.042 6 -15245694.200 5  24037673.255    24037691.273    24037690.433
      -110.188         -85.897
 92  6 13  0 42 51.0000000  0  7  3 20 12 17 16 24 25                0.000856640
  -1698587.274 7  -1323573.126 6  22945507.895    22945524.654    22945524.144
     -1786.207       -1391.852
   -552086.333 8   -430196.184 8  20617582.435    20617596.495    20617593.437
      -164.045        -127.842
   3083528.405 5         0.000 1  24909363.087    24909374.149           0.000
      4144.846           0.000
   3375680.596 5   2629636.154 5  24526385.267    24526401.995    24526401.576
     -3149.282       -2453.983
  -1310979.589 7  -1021542.299 6  22098693.223    22098707.073    22098705.215
     -1137.851        -886.682
   1423578.799 8    159563.277 7  22199140.695    22199156.764    22199154.605
      2842.469        2214.944
 -19573430.648 6 -15245947.911 5  24037611.768    24037629.306    24037627.896
      -106.926         -83.299
 92  6 13  0 42 54.0000000  0  7  3 20 12 17 16 24 25                0.000857310
  -1703942.458 7  -1327745.993 6  22944491.359    22944505.989    22944505.389
     -1784.173       -1390.237
   -552572.966 8   -430575.379 8  20617489.859    20617503.949    20617501.011
      -160.423        -124.998
   3095965.789 5   -141693.51615  24911726.830    24911742.330    24911743.139
      4146.699        3231.137
   3366236.104 5   2622276.844 5  24524585.253    24524604.590    24524604.679
     -3147.100       -2452.241
  -1314388.131 7  -1024198.311 6  22098044.982    22098058.353    22098056.614
     -1134.529        -884.042
   1432109.974 8    166210.932 7  22200762.872    22200780.440    22200777.891
      2844.922        2216.776
 -19573745.976 6 -15246193.622 5  24037552.918    24037569.707    24037567.638
      -103.333         -80.537
 92  6 13  0 42 57.0000000  0  7  3 20 12 17 16 24 25                0.000857990
  -1709291.798 7  -1331914.299 6  22943475.123    22943488.314    22943487.264
     -1782.243       -1388.800
   -553049.042 8   -430946.349 8  20617396.863    20617413.322    20617410.444
      -156.960        -122.324
   3108407.964 5   -131998.311 5  24914097.020    24914108.622    24914111.020
      4148.163        3232.310
   3356797.962 5   2614922.444 5  24522791.894    24522808.473    24522808.743
     -3145.042       -2450.792
  -1317787.032 7  -1026846.801 6  22097398.090    22097411.640    22097409.931
     -1131.392        -881.583
   1440648.029 7    172863.959 7  22202391.824    22202405.315    22202402.736
      2847.179        2218.527
 -19574050.872 6 -15246431.205 5  24037493.949    24037511.817    24037509.898
       -99.988         -77.869
 92  6 13  0 43  0.0000000  0  7  3 20 12 17 16 24 25                0.000858680
  -1714635.443 7  -1336078.180 6  22942459.606    22942471.178    22942470.608
     -1780.429       -1387.394
   -553514.802 8   -431309.274 8  20617310.853    20617324.793    20617322.065
      -153.619        -119.705
  -3311172.30915         0.000 1  24916460.074    24916478.121           0.000
      4149.647           0.000
   3347365.894 5   2607572.779 5  24520997.337    24521013.316    24521014.155
     -3143.111       -2449.180
  -1321176.577 7  -1029488.005 6  22096753.086    22096766.817    22096764.928
     -1128.363        -879.176
   1449192.709 8    179522.156 7  22204015.320    22204031.179    22204028.721
      2849.244        2220.206
 -19574345.598 6 -15246660.870 5  24037436.419    24037455.576    24037454.107
       -96.678         -75.222
 92  6 13  0 43  3.0000000  0  7  3 20 12 17 16 24 25                0.000859360
  -1719973.029 7  -1340237.324 6  22941441.690    22941455.451    22941454.821
     -1778.240       -1385.609
   -553969.840 8   -431663.850 8  20617223.883    20617238.093    20617235.395
      -149.887        -116.813
         0.000 1         0.000 1  24918834.580           0.000           0.000
         0.000           0.000
   3337940.322 5   2600228.200 5  24519204.698    24519220.197    24519219.987
     -3140.793       -2447.339
  -1324556.320 7  -1032121.566 6  22096110.151    22096123.522    22096122.113
     -1124.955        -876.575
   1457744.378 8    186185.786 7  22205643.073    22205658.692    22205656.204
      2851.701        2222.099
 -19574629.902 6 -15246882.395 5  24037388.332    24037401.643    24037399.664
       -93.036         -72.469
 92  6 13  0 43  6.0000000  0  7  3 20 12 17 16 24 25                0.000860050
  -1725304.827 7  -1344391.963 6  22940426.653    22940440.803    22940439.274
     -1776.456       -1384.357
   -554414.443 9   -432010.295 8  20617140.930    20617153.372    20617150.614
      -146.495        -114.168
         0.000 1         0.000 1  24921213.373           0.000           0.000
         0.000           0.000
   3328521.024 5   2592888.521 5  24517414.817    24517428.218    24517427.888
     -3138.805       -2445.738
  -1327926.488 7  -1034747.672 6  22095467.606    22095482.506    22095480.227
     -1121.811        -874.174
   1466302.748 8    192854.648 7  22207273.584    22207287.315    22207284.827
      2853.799        2223.801
 -19574903.898 6 -15247095.882 5  24037332.871    24037349.809    24037347.890
       -89.540         -69.832
 92  6 13  0 43  9.0000000  0  7  3 20 12 17 16 24 25                0.000860740
  -1730631.326 7  -1348542.471 6  22939407.299    22939427.055    22939425.706
     -1774.614       -1382.780
   -554849.002 9   -432348.906 8  20617058.517    20617070.659    20617068.021
      -143.092        -111.507
         0.000 1         0.000 1  24923571.540           0.000           0.000
         0.000           0.000
   3319107.526 5   2585553.338 5  24515622.688    24515636.388    24515636.448
     -3136.790       -2444.312
  -1331287.583 7  -1037366.704 6  22094827.189    22094842.539    22094840.920
     -1118.803        -871.771
   1474867.459 8    199528.445 7  22208898.160    22208917.137    22208914.498
      2856.044        2225.467
 -19575167.951 6 -15247301.656 5  24037287.422    24037299.294    24037297.405
       -86.289         -67.258
 92  6 13  0 43 12.0000000  0  7  3 20 12 17 16 24 25                0.000861440
  -1735952.057 7  -1352688.496 6  22938398.497    22938414.356    22938413.667
     -1772.718       -1381.302
   -555273.091 8   -432679.373 8  20616977.483    20616990.075    20616987.377
      -139.603        -108.785
    -10375.81515         0.000 1  24925944.128    24925962.115           0.000
      4155.778           0.000
   3309700.094 5   2578222.893 5  24513832.567    24513845.878    24513846.177
     -3134.770       -2442.775
  -1334639.222 7  -1039978.367 6  22094187.672    22094204.910    22094202.932
     -1115.633        -869.344
   1483438.938 8    206207.514 7  22210530.829    22210548.187    22210545.669
      2858.272        2227.266
 -19575421.677 6 -15247499.361 5  24037236.787    24037251.627    24037248.389
       -82.868         -64.517
 92  6 13  0 43 15.0000000  0  7  3 20 12 17 16 24 25                0.000862140
  -1741266.909 7  -1356829.938 6  22937389.186    22937403.066    22937402.377
     -1770.614       -1379.701
   -555686.616 8   -433001.593 8  20616895.970    20616911.289    20616908.501
      -135.990        -105.974
         0.000 1         0.000 1  24928322.981           0.000           0.000
         0.000           0.000
   3300298.837 5   2570897.240 5  24512036.990    24512057.256    24512056.686
     -3132.681       -2440.985
  -1337981.265 8  -1042582.556 6  22093553.791    22093568.871    22093566.802
     -1112.325        -866.760
   1492017.290 8    212891.948 7  22212165.088    22212180.437    22212178.069
      2860.666        2229.097
 -19575664.983 6 -15247688.936 5  24037193.827    24037204.709    24037202.401
       -79.271         -61.692
 92  6 13  0 43 18.0000000  0  7  3 20 12 17 16 24 25                0.000862840
  -1746576.025 7  -1360966.911 6  22936379.785    22936393.425    22936391.836
     -1768.840       -1378.264
   -556089.627 8   -433315.624 8  20616820.032    20616834.572    20616831.934
      -132.640        -103.366
     -4156.52415         0.000 1  24930689.813    24930707.830           0.000
      4158.856           0.000
   3290903.693 5   2563576.342 5  24510261.979    24510268.364    24510270.193
     -3130.831       -2439.528
  -1341313.761 7  -1045179.308 6  22092919.490    22092934.869    22092933.041
     -1109.304        -864.378
   1500602.521 8    219581.731 7  22213799.077    22213814.246    22213811.788
      2862.824        2230.754
 -19575897.958 6 -15247870.479 5  24037143.012    24037160.490    24037158.541
       -76.081         -59.291
 92  6 13  0 43 21.0000000  0  7  3 20 12 17 16 24 25                0.000863540
  -1751879.726 7  -1365099.658 6  22935369.094    22935383.994    22935383.155
     -1767.054       -1376.929
   -556482.534 8   -433621.789 8  20616744.725    20616759.954    20616757.106
      -129.228        -100.702
         0.000 1         0.000 1  24933065.878           0.000           0.000
         0.000           0.000
   3281514.242 5   2556259.906 5  24508466.342    24508481.661    24508483.670
     -3128.749       -2437.946
  -1344637.126 8  -1047768.934 6  22092290.076    22092302.547    22092300.509
     -1106.213        -861.942
   1509194.172 8    226276.518 7  22215434.715    22215449.255    22215446.736
      2865.018        2232.495
 -19576121.041 6 -15248044.306 5  24037102.330    24037117.950    24037115.971
       -72.568         -56.602
 92  6 13  0 43 24.0000000  0  7  3 20 12 17 16 24 25                0.000864240
  -1757177.650 7  -1369227.896 6  22934357.954    22934375.252    22934375.252
     -1765.113       -1375.345
   -556864.929 8   -433919.751 8  20616672.055    20616687.134    20616684.286
      -125.775         -97.997
     -6239.42515         0.000 1  24935449.887    24935458.521           0.000
      4161.938           0.000
   3272130.826 5   2548948.187 5  24506673.883    24506696.127    24506697.356
     -3126.856       -2436.534
  -1347950.891 8  -1050351.083 6  22091659.762    22091671.904    22091669.625
     -1102.995        -859.490
   1517792.612 8    232976.601 7  22217072.451    22217085.252    22217082.944
      2867.225        2234.227
 -19576333.707 6 -15248210.039 5  24037057.122    24037077.208    24037074.779
       -69.213         -53.970
 92  6 13  0 43 27.0000000  0  7  3 20 12 17 16 24 25                0.000864950
  -1762470.200 7  -1373351.968 6  22933353.560    22933368.100    22933368.010
     -1763.291       -1374.105
   -557237.260 8   -434209.881 8  20616602.623    20616616.204    20616613.595
      -122.337         -95.312
         0.000 1         0.000 1  24937812.522           0.000           0.000
         0.000           0.000
   3262753.013 5   2541640.814 5  24504892.066    24504911.613    24504912.362
     -3124.907       -2434.949
  -1351255.420 8  -1052926.046 6  22091031.037    22091043.029    22091041.140
     -1099.888        -857.058
   1526397.347 8    239681.584 7  22218710.607    22218722.808    22218720.200
      2869.385        2235.881
 -19576536.527 6 -15248368.073 5  24037024.984    24037038.415    24037036.406
       -65.858         -51.248
 92  6 13  0 43 30.0000000  0  7  3 20 12 17 16 24 25                0.000865660
  -1767757.121 7  -1377471.640 6  22932347.666    22932361.996    22932361.277
     -1761.573       -1372.576
   -557599.130 8   -434491.860 8  20616532.112    20616547.341    20616544.613
      -118.973         -92.698
         0.000 1         0.000 1  24940193.413           0.000           0.000
         0.000           0.000
   3253381.154 5   2534338.089 5  24503116.156    24503129.227    24503128.897
     -3123.026       -2433.612
  -1354550.337 7  -1055493.514 6  22090404.861    22090416.013    22090414.005
     -1096.794        -854.607
   1535008.640 8    246391.683 7  22220348.553    22220361.414    22220358.716
      2871.447        2237.443
 -19576729.168 6 -15248518.192 5  24036987.750    24037002.080    24036999.861
       -62.614         -48.775
 92  6 13  0 43 33.0000000  0  7  3 20 12 17 16 24 25                0.000866370
  -1773038.587 7  -1381587.059 6  22931342.972    22931357.032    22931356.792
     -1759.665       -1371.211
   -557950.784 8   -434765.840 8  20616467.027    20616480.338    20616477.759
      -115.524         -90.002
         0.000 1         0.000 1  24942569.658           0.000           0.000
         0.000           0.000
   3244015.029 6   2527039.831 5  24501328.883    24501346.451    24501346.930
     -3121.054       -2431.936
  -1357835.832 7  -1058053.633 6  22089779.344    22089790.856    22089788.877
     -1093.591        -852.136
   1543626.215 8    253106.679 7  22221987.848    22222001.429    22221998.880
      2873.586        2239.152
 -19576911.824 6 -15248660.509 5  24036953.244    24036967.753    24036964.396
       -59.165         -46.118
 92  6 13  0 43 36.0000000  0  7  3 20 12 17 16 24 25                0.000867090
  -1778314.545 7  -1385698.190 6  22930337.917    22930353.117    22930352.637
     -1757.865       -1369.723
   -558292.193 8   -435031.903 8  20616401.192    20616415.612    20616412.674
      -112.182         -87.397
     -8330.84415         0.000 1  24944967.129    24944969.047           0.000
      4167.504           0.000
   3234654.760 5   2519746.114 5  24499548.086    24499565.144    24499565.564
     -3119.195       -2430.502
  -1361111.904 8  -1060606.415 6  22089152.808    22089167.587    22089165.549
     -1090.516        -849.739
   1552250.148 8    259826.620 7  22223629.871    22223642.462    22223640.064
      2875.637        2240.726
 -19577084.455 6 -15248795.021 5  24036921.046    24036934.447    24036931.928
       -55.966         -43.537
 92  6 13  0 43 39.0000000  0  7  3 20 12 17 16 24 25                0.000867800
  -1783585.037 7  -1389805.068 6  22929337.660    22929349.861    22929349.771
     -1756.047       -1368.278
   -558623.441 8   -435290.014 8  20616338.686    20616352.596    20616349.748
      -108.759         -84.729
         0.000 1         0.000 1  24947334.740           0.000           0.000
         0.000           0.000
   3225300.198 5   2512456.883 5  24497771.066    24497784.527    24497785.486
     -3117.288       -2429.033
  -1364378.543 8  -1063151.852 6  22088530.768    22088545.938    22088543.899
     -1087.354        -847.303
   1560880.373 8    266551.465 7  22225270.066    22225284.756    22225281.878
      2877.757        2242.393
 -19577247.086 6 -15248921.751 5  24036888.878    24036903.778    24036901.230
       -52.500         -41.018
 92  6 13  0 43 42.0000000  0  7  3 20 12 17 16 24 25                0.000868530
  -1788849.911 7  -1393907.563 6  22928331.766    22928348.405    22928347.685
     -1754.122       -1366.829
   -558944.299 8   -435540.031 8  20616277.438    20616291.289    20616288.860
      -105.255         -82.006
         0.000 1         0.000 1  24949717.670           0.000           0.000
         0.000           0.000
   3215951.583 6   2505172.275 5  24495990.599    24496005.888    24496007.897
     -3115.269       -2427.432
  -1367635.558 8  -1065689.782 6  22087914.395    22087926.207    22087923.779
     -1084.109        -844.738
   1569517.101 8    273281.379 7  22226917.275    22226928.188    22226925.909
      2879.993        2244.090
 -19577399.532 6 -15249040.556 5  24036861.837    24036874.398    24036871.580
       -49.181         -38.322
 92  6 13  0 43 45.0000000  0  7  3 20 12 17 16 24 25                0.000869250
  -1794109.629 7  -1398006.037 6  22927334.926    22927347.428    22927346.468
     -1752.501       -1365.523
   -559255.216 8   -435782.305 8  20616216.400    20616232.289    20616229.891
      -101.982         -79.452
         0.000 1         0.000 1  24952085.760           0.000           0.000
         0.000           0.000
   3206608.478 5   2497891.930 5  24494213.339    24494227.039    24494229.108
     -3113.431       -2426.014
  -1370883.465 8  -1068220.613 6  22087291.456    22087308.095    22087305.816
     -1081.093        -842.421
   1578159.907 8    280016.029 7  22228559.838    22228572.849    22228570.481
      2881.986        2245.689
 -19577542.179 6 -15249151.701 5  24036834.046    24036846.697    24036844.089
       -45.907         -35.776
 92  6 13  0 43 48.0000000  0  7  3 20 12 17 16 24 25                0.000869970
  -1799363.958 7  -1402100.323 6  22926333.859    22926347.980    22926347.050
     -1750.613       -1364.139
   -559556.024 8   -436016.703 8  20616159.919    20616174.909    20616172.421
       -98.591         -76.803
         0.000 1         0.000 1  24954477.954           0.000           0.000
         0.000           0.000
   3197271.057 5   2490616.017 5  24492437.249    24492450.409    24492452.448
     -3111.565       -2424.559
  -1374122.064 8  -1070744.212 6  22086675.383    22086691.602    22086689.503
     -1077.958        -840.009
   1586809.036 8    286755.606 7  22230206.328    22230218.560    22230216.162
      2884.121        2247.348
 -19577674.848 6 -15249255.064 5  24036808.384    24036821.665    24036819.176
       -42.546         -33.146
 92  6 13  0 43 51.0000000  0  7  3 20 12 17 16 24 25                0.000870700
  -1804612.751 7  -1406190.283 6  22925333.062    22925349.101    22925348.382
     -1748.785       -1362.699
   -559846.490 8   -436243.038 8  20616105.507    20616119.627    20616117.229
       -95.154         -74.140
         0.000 1         0.000 1  24956862.204           0.000           0.000
         0.000           0.000
   3187939.459 5   2483344.672 5  24490656.451    24490674.199    24490675.518
     -3109.625       -2423.036
  -1377351.183 7  -1073260.400 6  22086065.155    22086077.297    22086075.258
     -1074.858        -837.566
   1595464.751 8    293500.320 7  22231853.508    22231866.129    22231863.521
      2886.305        2249.024
 -19577797.255 6 -15249350.450 5  24036784.700    24036798.521    24036796.632
       -39.160         -30.478
 92  6 13  0 43 54.0000000  0  7  3 20 12 17 16 24 25                0.000871430
  -1809856.150 7  -1410276.042 6  22924335.383    22924351.272    22924350.552
     -1746.933       -1361.297
   -560126.760 8   -436461.433 8  20616050.375    20616066.354    20616064.016
       -91.697         -71.442
         0.000 1         0.000 1  24959239.738           0.000           0.000
         0.000           0.000
   3178613.522 5   2476077.700 5  24488886.657    24488899.428    24488901.736
     -3107.654       -2421.572
  -1380570.969 8  -1075769.316 6  22085452.739    22085464.641    22085462.003
     -1071.647        -835.052
   1604126.978 8    300250.108 7  22233500.208    22233514.568    22233512.080
      2888.499        2250.808
 -19577909.562 6 -15249437.965 5  24036765.304    24036777.445    24036774.657
       -35.737         -27.827
 92  6 13  0 43 57.0000000  0  7  3 20 12 17 16 24 25                0.000872160
  -1815094.145 7  -1414357.592 6  22923339.113    22923354.072    22923354.102
     -1745.184       -1359.877
   -560396.856 8   -436671.891 8  20616000.670    20616014.850    20616012.601
       -88.314         -68.810
         0.000 1         0.000 1  24961623.747           0.000           0.000
         0.000           0.000
   3169293.198 5   2468815.143 5  24487109.727    24487126.125    24487128.134
     -3105.856       -2420.126
  -1383781.434 8  -1078270.975 6  22084840.623    22084853.844    22084851.655
     -1068.600        -832.683
   1612795.714 8    307004.959 7  22235147.658    22235163.966    22235161.598
      2890.651        2252.412
 -19578011.828 6 -15249517.651 5  24036741.320    24036757.899    24036755.201
       -32.407         -25.268
 92  6 13  0 44  0.0000000  0  7  3 20 12 17 16 24 25                0.000872900
  -1820326.765 7  -1418434.955 6  22922346.020    22922358.491    22922358.282
     -1743.378       -1358.508
   -560656.806 8   -436874.450 8  20615949.585    20615965.204    20615962.926
       -84.976         -66.209
         0.000 1         0.000 1  24964007.577           0.000           0.000
         0.000           0.000
   3159978.332 5   2461556.796 5  24485336.214    24485353.722    24485355.971
     -3104.020       -2418.724
  -1386982.660 8  -1080765.441 6  22084233.663    22084244.606    22084242.957
     -1065.563        -830.263
   1621470.827 8    313764.791 7  22236801.133    22236814.624    22236812.555
      2892.752        2254.156
 -19578104.088 6 -15249589.542 5  24036724.412    24036739.671    24036738.202
       -29.077         -22.717
 92  6 13  0 44  3.0000000  0  6  3 20 17 16 24 25                   0.000873640
  -1825554.062 7  -1422508.167 6  22921349.300    22921363.660    22921363.900
     -1741.628       -1357.094
   -560906.645 8   -437069.127 8  20615903.597    20615917.777    20615915.259
       -81.591         -63.582
   3150668.828 5   2454302.669 5  24483573.195    24483582.189    24483584.047
     -3102.293       -2417.399
  -1390174.668 8  -1083252.714 6  22083625.774    22083636.866    22083634.858
     -1062.464        -827.911
   1630152.283 8    320529.552 7  22238453.919    22238466.750    22238464.262
      2894.866        2255.749
 -19578186.413 6 -15249653.683 5  24036712.210    24036724.262    24036722.763
       -25.787         -20.114
 92  6 13  0 44  6.0000000  0  6  3 20 17 16 24 25                   0.000874380
  -1830776.189 7  -1426577.359 6  22920356.148    22920370.358    22920369.279
     -1739.855       -1355.748
   -561146.458 8   -437255.995 8  20615858.088    20615872.239    20615869.690
       -78.183         -60.920
   3141364.682 5   2447052.694 5  24481787.481    24481811.195    24481813.593
     -3100.451       -2415.910
  -1393357.549 7  -1085732.879 6  22083018.664    22083031.046    22083029.337
     -1059.385        -825.502
   1638840.011 8    327299.210 7  22240104.366    22240119.955    22240117.647
      2897.018        2257.422
 -19578258.951 6 -15249710.211 5  24036689.846    24036709.572    24036708.163
       -22.386         -17.540
 92  6 13  0 44  9.0000000  0  6  3 20 17 16 24 25                   0.000875120
  -1835993.067 7  -1430642.446 6  22919362.635    22919378.075    22919376.486
     -1738.083       -1354.329
   -561376.187 8   -437435.001 8  20615815.848    20615828.619    20615826.071
       -74.852         -58.329
   3132066.004 5   2439806.999 5  24480027.909    24480042.479    24480043.618
     -3098.646       -2414.472
  -1396531.238 7  -1088205.879 6  22082411.884    22082427.234    22082425.375
     -1056.280        -823.086
   1647534.142 8    334073.857 7  22241760.689    22241774.480    22241772.231
      2899.135        2259.066
 -19578321.562 6 -15249758.996 5  24036682.171    24036698.300    24036696.082
       -19.134         -14.923
 92  6 13  0 44 12.0000000  0  6  3 20 17 16 24 25                   0.000875860
  -1841204.257 7  -1434703.106 6  22918372.841    22918386.421    22918384.922
     -1736.166       -1352.788
   -561595.552 8   -437605.934 8  20615772.378    20615786.828    20615784.130
       -71.370         -55.597
   3122773.189 5   2432565.853 5  24478260.963    24478274.303    24478276.072
     -3096.587       -2412.877
  -1399695.370 7  -1090671.441 6  22081810.950    22081825.161    22081823.452
     -1053.033        -820.535
   1656235.070 8    340853.797 7  22243416.263    22243430.294    22243428.045
      2901.466        2260.902
 -19578373.898 6 -15249799.774 5  24036673.567    24036688.647    24036685.949
       -15.698         -12.206
 92  6 13  0 44 15.0000000  0  6  3 20 17 16 24 25                   0.000876610
  -1846409.964 7  -1438759.499 6  22917383.196    22917395.907    22917394.318
     -1734.494       -1351.535
   -561804.685 8   -437768.891 8  20615734.454    20615746.835    20615744.467
       -68.052         -53.026
   3113486.148 5   2425329.216 5  24476485.022    24476506.817    24476508.436
     -3094.755       -2411.440
  -1402850.040 8  -1093129.624 6  22081208.338    22081225.066    22081222.967
     -1050.056        -818.213
   1664942.728 8    347638.977 7  22245072.647    22245087.277    22245084.908
      2903.627        2262.528
 -19578416.117 6 -15249832.671 5  24036671.289    24036680.672    24036678.064
       -12.457          -9.744
 92  6 13  0 44 18.0000000  0  6  3 20 17 16 24 25                   0.000877360
  -1851610.765 7  -1442812.061 6  22916391.183    22916405.782    22916404.853
     -1732.808       -1350.169
   -562004.132 8   -437924.302 8  20615697.130    20615708.972    20615706.483
       -64.768         -50.503
   3104204.320 5   2418096.645 5  24474724.071    24474740.080    24474742.538
     -3092.976       -2410.067
  -1405995.827 8  -1095580.879 6  22080614.569    22080626.171    22080624.132
     -1047.056        -815.873
   1673656.566 8    354428.984 7  22246732.927    22246745.339    22246742.970
      2905.729        2264.178
 -19578448.837 6 -15249858.159 5  24036658.907    24036674.287    24036671.858
        -9.220          -7.179
 92  6 13  0 44 21.0000000  0  6  3 20 17 16 24 25                   0.000878110
  -1856806.223 7  -1446860.467 6  22915402.347    22915417.127    22915415.628
     -1730.957       -1348.832
   -562193.508 8   -438071.872 8  20615659.176    20615672.997    20615670.628
       -61.457         -47.909
   3094928.093 5   2410868.409 5  24472964.979    24472974.782    24472976.521
     -3091.152       -2408.722
  -1409132.303 7  -1098024.885 6  22080016.153    22080029.404    22080027.605
     -1043.987        -813.476
   1682376.924 8    361224.072 7  22248391.979    22248404.660    22248402.471
      2907.808        2265.838
 -19578471.701 6 -15249875.977 5  24036649.404    24036669.820    24036667.631
        -5.978          -4.645
 92  6 13  0 44 24.0000000  0  6  3 20 17 16 24 25                   0.000878870
  -1861996.688 7  -1450904.988 6  22914415.130    22914429.401    22914428.981
     -1729.316       -1347.577
   -562373.137 8   -438211.843 8  20615625.120    20615638.880    20615636.272
       -58.175         -45.359
   3085657.194 5   2403644.339 5  24471206.966    24471210.863    24471212.542
     -3089.369       -2407.277
  -1412259.663 7  -1100461.788 6  22079423.163    22079434.106    22079432.097
     -1040.863        -811.008
   1691103.469 8    368023.975 7  22250051.000    22250065.450    22250063.232
      2909.990        2267.498
 -19578484.983 6 -15249886.316 5  24036651.982    24036667.062    24036665.173
        -2.864          -2.170
 92  6 13  0 44 27.0000000  0  6  3 20 17 16 24 25                   0.000879620
  -1867181.700 7  -1454945.250 6  22913429.743    22913442.784    22913442.004
     -1727.644       -1346.259
   -562542.655 8   -438343.936 8  20615592.952    20615606.563    20615603.834
       -54.983         -42.847
   3076392.070 5   2396424.781 5  24469435.133    24469448.263    24469448.773
     -3087.563       -2405.891
  -1415377.465 8  -1102891.242 6  22078826.247    22078840.787    22078839.048
     -1037.832        -808.717
   1699836.620 8    374829.020 7  22251715.238    22251727.500    22251725.011
      2912.013        2269.055
 -19578488.238 6 -15249888.855 5  24036654.620    24036666.642    24036664.274
         0.392           0.314
 92  6 13  0 44 30.0000000  0  6  3 20 17 16 24 25                   0.000880380
  -1872361.566 7  -1458981.508 6  22912440.547    22912456.946    22912455.927
     -1725.863       -1344.813
   -562702.417 8   -438468.429 8  20615561.864    20615576.134    20615573.735
       -51.629         -40.224
   3067132.465 5   2389209.527 5  24467674.721    24467685.364    24467687.013
     -3085.575       -2404.339
  -1418486.016 7  -1105313.488 6  22078238.863    22078249.386    22078247.647
     -1034.681        -806.262
   1708576.009 8    381638.927 7  22253376.418    22253390.298    22253388.230
      2914.165        2270.819
 -19578481.771 6 -15249883.823 5  24036656.419    24036667.901    24036665.892
         3.771           2.882
 92  6 13  0 44 33.0000000  0  6  3 20 17 16 24 25                   0.000881140
  -1877536.614 7  -1463014.000 6  22911460.016    22911472.338    22911471.588
     -1724.274       -1343.579
   -562852.644 8   -438585.483 8  20615535.062    20615547.623    20615545.195
       -48.486         -37.775
   3057878.129 5   2381998.349 5  24465912.211    24465925.342    24465925.762
     -3083.896       -2402.999
  -1421585.622 7  -1107728.759 6  22077648.092    22077659.424    22077657.356
     -1031.680        -803.924
   1717321.386 8    388453.506 7  22255037.898    22255054.656    22255052.228
      2916.165        2272.340
 -19578465.916 6 -15249871.459 5  24036650.063    24036671.319    24036669.700
         6.949           5.367
 92  6 13  0 44 36.0000000  0  6  3 20 17 16 24 25                   0.000881910
  -1882706.533 7  -1467042.508 6  22910474.688    22910488.629    22910487.160
     -1722.511       -1342.270
   -562993.226 8   -438695.024 8  20615506.942    20615520.822    20615518.394
       -45.273         -35.270
   3048629.223 5   2374791.441 5  24464154.438    24464164.481    24464165.591
     -3082.112       -2401.644
  -1424676.120 7  -1110136.939 6  22077058.041    22077070.992    22077069.193
     -1028.654        -801.572
   1726073.015 8    395272.956 7  22256707.412    22256719.853    22256717.635
      2918.226        2273.924
 -19578440.447 6 -15249851.605 5  24036658.608    24036675.846    24036674.586
        10.104           7.835
 92  6 13  0 44 39.0000000  0  6  3 20 17 16 24 25                   0.000882680
  -1887871.534 7  -1471067.183 6  22909489.091    22909505.399    22909504.650
     -1721.096       -1341.141
   -563124.307 8   -438797.169 8  20615481.759    20615495.789    20615493.241
       -42.282         -32.934
   3039385.530 5   2367588.566 5  24462388.391    24462404.909    24462407.548
     -3080.521       -2400.456
  -1427757.646 7  -1112538.124 6  22076471.107    22076485.017    22076482.739
     -1025.833        -799.363
   1734830.772 8    402097.173 7  22258373.359    22258386.610    22258384.271
      2920.064        2275.384
 -19578405.525 6 -15249824.381 5  24036670.989    24036683.490    24036681.392
        13.015          10.182
 92  6 13  0 44 42.0000000  0  6  3 20 17 16 24 25                   0.000883440
  -1893032.239 7  -1475088.504 6  22908509.519    22908523.429    22908522.770
     -1719.529       -1339.917
   -563246.519 8   -438892.395 8  20615457.416    20615472.705    20615470.007
       -39.177         -30.541
   3030146.342 6   2360389.218 5  24460636.194    24460648.815    24460648.695
     -3078.959       -2399.114
  -1430830.785 7  -1114932.782 6  22075887.051    22075899.942    22075898.204
     -1022.917        -797.032
   1743593.975 8    408925.644 7  22260040.954    22260054.145    22260051.807
      2922.027        2276.910
 -19578361.810 6 -15249790.335 5  24036673.028    24036691.045    24036689.216
        16.111          12.546
 92  6 13  0 44 45.0000000  0  6  3 20 17 16 24 25                   0.000884220
  -1898187.894 7  -1479105.892 6  22907527.309    22907542.239    22907541.369
     -1717.897       -1338.567
   -563359.076 8   -438980.106 8  20615436.850    20615451.300    20615448.452
       -35.969         -28.039
   3020912.476 5   2353194.018 5  24458881.209    24458890.982    24458891.552
     -3077.112       -2397.758
  -1433894.657 7  -1117320.215 6  22075302.726    22075317.116    22075315.407
     -1019.802        -794.644
   1752363.441 8    415758.993 7  22261706.152    22261722.760    22261720.572
      2924.114        2278.547
 -19578308.519 6 -15249748.816 5  24036685.409    24036701.298    24036699.409
        19.272          15.033
 92  6 13  0 44 48.0000000  0  6  3 20 17 16 24 25                   0.000884990
  -1903338.677 7  -1483119.478 6  22906548.996    22906562.427    22906561.497
     -1716.211       -1337.360
   -563462.279 8   -439060.516 8  20615417.483    20615431.664    20615428.786
       -32.804         -25.570
   3011683.661 5   2346002.744 5  24457120.618    24457134.948    24457134.498
     -3075.382       -2396.401
  -1436949.488 7  -1119700.592 6  22074719.330    22074735.668    22074733.450
     -1016.759        -792.291
   1761138.883 8    422596.995 7  22263378.933    22263392.814    22263390.565
      2926.146        2280.131
 -19578245.878 6 -15249699.996 5  24036693.953    24036713.380    24036710.741
        22.452          17.476
 92  6 13  0 44 51.0000000  0  7  3 20 17 16 24 25  7                0.000885760
  -1908484.502 7  -1487129.218 6  22905568.285    22905583.245    22905581.626
     -1714.615       -1336.036
   -563555.970 8   -439133.520 8  20615400.845    20615413.766    20615411.218
       -29.734         -23.141
   3002459.993 5   2338815.488 5  24455363.384    24455379.033    24455380.502
     -3073.784       -2395.156
  -1439995.113 7  -1122073.779 6  22074141.750    22074156.200    22074154.131
     -1013.788        -789.990
   1769920.411 8    429439.747 7  22265046.529    22265063.467    22265061.699
      2928.093        2281.660
 -19578173.702 6 -15249643.743 5  24036709.872    24036726.750    24036724.262
        25.539          19.948
         0.000 1         0.000 1  24455363.444           0.000           0.000
         0.000           0.000
 92  6 13  0 44 54.0000000  0  7  3 20 17 16 24 25  7                0.000886540
  -1913625.339 7  -1491135.050 6  22904588.713    22904604.962    22904603.073
     -1712.691       -1334.510
   -563640.084 8   -439199.064 8  20615384.057    20615397.637    20615395.029
       -26.305         -20.496
   2993241.495 5   2331632.263 5  24453609.119    24453624.468    24453625.907
     -3071.853       -2393.581
  -1443031.449 7  -1124439.785 6  22073563.900    22073578.380    22073576.371
     -1010.419        -787.335
   1778708.083 8    436287.284 7  22266721.709    22266735.740    22266733.521
      2930.351        2283.430
 -19578091.916 6 -15249580.019 5  24036722.253    24036742.669    24036740.391
        29.001          22.673
         0.00615         0.00115  24453609.209    24453623.988    24453625.517
     -3071.838       -2393.516
 92  6 13  0 44 57.0000000  0  7  3 20 17 16 24 25  7                0.000887320
  -1918760.810 7  -1495136.711 6  22903614.448    22903627.848    22903626.289
     -1711.041       -1333.333
   -563714.308 8   -439256.904 8  20615369.337    20615383.727    20615381.119
       -23.128         -17.994
   2984028.493 5   2324453.306 5  24451857.461    24451872.451    24451871.881
     -3070.152       -2392.311
  -1446058.167 7  -1126798.265 6  22072987.669    22073002.928    22073000.350
     -1007.343        -784.925
   1787502.302 8    443139.908 7  22268392.213    22268409.271    22268407.023
      2932.490        2285.035
 -19578000.145 6 -15249508.502 5  24036748.635    24036759.787    24036757.719
        32.216          25.152
         0.006 5         0.001 5  24451857.521    24451871.971    24451871.522
     -3070.147       -2392.269
 92  6 13  0 45  0.0000000  0  7  3 20 17 16 24 25  7                0.000888110
  -1923891.441 7  -1499134.606 6  22902635.655    22902651.424    22902649.686
     -1709.593       -1332.213
   -563779.211 8   -439307.472 8  20615356.116    20615371.615    20615368.527
       -20.191         -15.741
   2974820.470 5   2317278.242 5  24450110.211    24450119.954    24450120.224
     -3068.646       -2391.065
  -1449075.728 7  -1129149.604 6  22072415.695    22072428.346    22072426.127
     -1004.411        -782.685
   1796302.561 8    449997.266 7  22270072.250    22270084.002    22270081.723
      2934.290        2286.472
 -19577898.987 6 -15249429.677 5  24036765.184    24036779.274    24036777.505
        35.240          27.361
         0.006 5         0.001 5  24450110.271    24450119.475    24450119.834
     -3068.640       -2391.076
 92  6 13  0 45  3.0000000  0  7  3 20 17 16 24 25  7                0.000888890
  -1929017.559 7  -1503128.985 6  22901660.340    22901675.780    22901674.581
     -1707.996       -1330.945
   -563835.091 8   -439351.012 8  20615346.553    20615360.913    20615358.005
       -17.055         -13.282
   2965617.087 5   2310106.792 5  24448348.840    24448368.657    24448368.477
     -3067.050       -2389.915
  -1452084.474 8  -1131494.082 6  22071844.950    22071855.922    22071853.434
     -1001.413        -780.276
   1805108.529 8    456859.047 7  22271746.291    22271759.452    22271757.383
      2936.299        2288.033
 -19577788.815 6 -15249343.831 5  24036794.024    24036800.829    24036798.281
        38.285          29.823
         0.006 5         0.001 5  24448348.900    24448368.177    24448368.087
     -3067.045       -2389.910
 92  6 13  0 45  6.0000000  0  7  3 20 17 16 24 25  7                0.000889680
  -1934138.947 7  -1507119.671 6  22900687.574    22900701.184    22900699.206
     -1706.527       -1329.735
   -563881.714 8   -439387.341 8  20615336.330    20615351.889    20615349.161
       -14.075         -10.986
   2956418.556 5   2302939.126 5  24446604.048    24446617.989    24446618.528
     -3065.465       -2388.611
  -1455084.258 7  -1133831.576 6  22071274.505    22071285.267    22071282.719
      -998.517        -778.091
   1813920.484 8    463725.509 7  22273422.640    22273436.341    22273434.542
      2938.233        2289.544
 -19577669.356 6 -15249250.750 5  24036810.902    24036823.044    24036821.005
        41.212          32.178
         0.006 5         0.001 5  24446604.108    24446617.509    24446618.138
     -3065.459       -2388.616
 92  6 13  0 45  9.0000000  0  7  3 20 17 16 24 25  7                0.000890470
  -1939255.563 7  -1511106.638 6  22899711.839    22899727.489    22899726.229
     -1704.741       -1328.374
   -563918.973 8   -439416.379 8  20615329.135    20615344.754    20615342.056
       -10.839          -8.463
   2947225.036 6   2295775.372 5  24444850.682    24444869.299    24444869.029
     -3063.697       -2387.227
  -1458074.914 8  -1136161.957 6  22070703.490    22070716.291    22070713.803
      -995.330        -775.542
   1822738.630 8    470596.786 7  22275098.600    22275114.339    22275112.091
      2940.414        2291.236
 -19577540.562 6 -15249150.382 5  24036833.027    24036847.057    24036845.468
        44.493          34.663
         0.006 6         0.001 5  24444850.742    24444868.819    24444868.640
     -3063.678       -2387.243
 92  6 13  0 45 12.0000000  0  7  3 20 17 16 24 25  7                0.000891260
  -1944367.427 7  -1515089.900 6  22898738.833    22898754.992    22898753.253
     -1703.312       -1327.189
   -563947.103 8   -439438.299 8  20615322.749    20615339.208    20615336.779
        -7.924          -6.160
   2938036.331 6   2288615.360 5  24443101.813    24443120.400    24443120.100
     -3062.138       -2386.106
  -1461056.599 8  -1138485.340 7  22070134.484    22070148.724    22070146.715
      -992.456        -773.334
   1831562.733 8    477472.715 7  22276780.136    22276793.537    22276791.648
      2942.294        2292.731
 -19577402.685 6 -15249042.952 5  24036860.877    24036873.559    24036870.801
        47.400          36.923
         0.006 6         0.001 5  24443101.873    24443119.920    24443119.710
     -3062.137       -2386.111
 92  6 13  0 45 15.0000000  0  7  3 20 17 16 24 25  7                0.000892060
  -1949474.802 7  -1519069.665 6  22897769.124    22897782.975    22897781.686
     -1701.945       -1326.168
   -563966.318 8   -439453.269 8  20615319.152    20615335.520    20615332.762
        -5.040          -3.937
   2928852.320 5   2281458.981 5  24441356.961    24441372.910    24441371.650
     -3060.667       -2385.061
  -1464029.484 7  -1140801.877 7  22069568.236    22069583.106    22069580.647
      -989.584        -771.152
   1840392.658 8    484353.171 7  22278463.381    22278474.113    22278471.805
      2944.116        2294.124
 -19577255.852 6 -15248928.527 5  24036885.401    24036901.709    24036899.041
        50.322          39.274
         0.006 5         0.001 5  24441357.021    24441372.430    24441371.261
     -3060.683       -2385.053
 92  6 13  0 45 18.0000000  0  7  3 20 17 16 24 25  7                0.000892860
  -1954577.630 7  -1523045.894 6  22896796.148    22896811.947    22896810.208
     -1700.310       -1324.933
   -563976.559 8   -439461.245 8  20615319.331    20615333.781    20615330.813
        -1.949          -1.493
   2919673.103 6   2274306.363 5  24439606.532    24439625.899    24439626.139
     -3059.014       -2383.621
  -1466993.454 7  -1143111.462 6  22069007.714    22069018.656    22069016.708
      -986.534        -768.719
   1849228.450 8    491238.204 7  22280140.899    22280155.200    22280153.041
      2946.195        2295.748
 -19577099.941 6 -15248807.041 5  24036918.887    24036931.359    24036928.631
        53.453          41.672
         0.006 6         0.001 5  24439606.592    24439625.419    24439625.749
     -3059.019       -2383.619
 92  6 13  0 45 21.0000000  0  7  3 20 17 16 24 25  7                0.000893650
  -1959675.695 7  -1527018.410 6  22895826.679    22895841.669    22895840.020
     -1698.586       -1323.598
   -563977.686 8   -439462.120 8  20615320.411    20615333.632    20615330.813
         1.233           0.963
   2910498.857 5   2267157.601 5  24437863.299    24437880.148    24437879.218
     -3057.208       -2382.268
  -1469948.337 8  -1145413.967 6  22068440.057    22068456.426    22068454.357
      -983.361        -766.266
   1858070.165 8    498127.848 7  22281823.125    22281837.785    22281835.626
      2948.325        2297.338
 -19576934.812 6 -15248678.372 5  24036943.470    24036962.897    24036960.169
        56.640          44.134
         0.005 5         0.001 5  24437863.359    24437879.668    24437878.829
     -3057.211       -2382.276
 92  6 13  0 45 24.0000000  0  7  3 20 17 16 24 25  7                0.000894460
  -1964768.765 7  -1530987.036 6  22894854.332    22894872.320    22894870.971
     -1697.118       -1322.459
   -563969.451 8   -439455.704 8  20615319.511    20615335.220    20615332.312
         4.117           3.234
   2901329.774 5   2260012.920 5  24436119.227    24436134.606    24436134.696
     -3055.568       -2380.997
  -1472893.846 7  -1147709.163 6  22067879.895    22067895.844    22067893.865
      -980.463        -763.979
   1866918.074 8    505022.321 7  22283508.528    22283521.599    22283519.411
      2950.136        2298.834
 -19576760.196 6 -15248542.305 5  24036984.272    24036996.114    24036993.805
        59.633          46.464
         0.005 5         0.001 5  24436119.257    24436134.126    24436134.306
     -3055.564       -2381.020
 92  6 13  0 45 27.0000000  0  7  3 20 17 16 24 25  7                0.000895260
  -1969857.640 7  -1534952.396 6  22893885.763    22893903.930    22893902.341
     -1695.527       -1321.188
   -563952.576 8   -439442.563 8  20615322.989    20615338.368    20615335.730
         7.178           5.570
   2892165.143 5   2252871.671 5  24434373.475    24434391.373    24434393.711
     -3054.036       -2379.692
  -1475830.740 7  -1149997.654 7  22067320.632    22067337.090    22067335.232
      -977.424        -761.632
   1875771.506 8    511921.101 7  22285193.452    22285206.283    22285204.004
      2952.163        2300.395
 -19576576.802 6 -15248399.387 5  24037012.243    24037030.950    24037028.581
        62.683          48.779
         0.005 5         0.001 5  24434373.505    24434390.893    24434393.321
     -3054.027       -2379.713
 92  6 13  0 45 30.0000000  0  7  3 20 17 16 24 25  7                0.000896070
  -1974941.796 7  -1538914.084 6  22892921.390    22892936.680    22892935.271
     -1694.011       -1320.001
   -563926.639 8   -439422.350 8  20615329.075    20615343.135    20615340.677
        10.163           7.930
   2883005.413 5   2245734.212 5  24432631.321    24432646.970    24432649.549
     -3052.458       -2378.553
  -1478758.593 7  -1152279.090 7  22066765.146    22066779.956    22066778.067
      -974.460        -759.306
   1884630.965 8    518824.571 7  22286877.746    22286892.226    22286890.127
      2954.130        2301.930
 -19576384.262 6 -15248249.352 5  24037054.304    24037067.914    24037065.276
        65.703          51.250
         0.005 5         0.001 5  24432631.351    24432646.491    24432649.159
     -3052.474       -2378.535
 92  6 13  0 45 33.0000000  0  7  3 20 17 16 24 25  7                0.000896880
  -1980021.220 7  -1542872.065 6  22891953.241    22891970.209    22891968.140
     -1692.422       -1318.731
   -563891.705 8   -439395.135 8  20615336.210    20615349.940    20615347.272
        13.164          10.249
   2873850.635 5   2238600.621 5  24430886.199    24430904.397    24430907.125
     -3050.728       -2377.151
  -1481677.410 7  -1154553.488 7  22066211.040    22066224.531    22066222.732
      -971.438        -756.927
   1893496.335 8    525732.643 7  22288565.817    22288579.128    22288577.359
      2956.083        2303.455
 -19576182.617 6 -15248092.221 5  24037089.829    24037105.748    24037103.529
        68.819          53.614
         0.005 5         0.001 5  24430886.229    24430903.917    24430906.735
     -3050.719       -2377.152
 92  6 13  0 45 36.0000000  0  7  3 20 17 16 24 25  7                0.000897690
  -1985096.085 7  -1546826.508 6  22890992.076    22891004.128    22891003.858
     -1690.867       -1317.542
   -563847.941 8   -439361.030 8  20615341.996    20615358.334    20615355.336
        16.121          12.565
   2864700.783 5   2231470.891 5  24429142.457    24429164.252    24429165.661
     -3049.130       -2375.938
  -1484587.333 7  -1156820.959 7  22065654.505    22065670.574    22065668.655
      -968.393        -754.619
   1902367.420 8    532645.184 7  22290253.319    22290267.199    22290264.861
      2958.014        2304.972
 -19575972.008 6 -15247928.123 5  24037131.200    24037145.530    24037143.582
        71.753          55.925
         0.005 5         0.001 5  24429142.457    24429163.772    24429165.271
     -3049.143       -2375.938
 92  6 13  0 45 39.0000000  0  7  3 20 17 16 24 25  7                0.000898500
  -1990166.117 7  -1550777.172 6  22890023.506    22890039.246    22890038.526
     -1689.240       -1316.311
   -563795.093 8   -439319.846 8  20615352.938    20615368.527    20615365.469
        19.121          14.871
   2855556.173 5   2224345.251 5  24427408.727    24427423.567    24427425.785
     -3047.400       -2374.613
  -1487488.062 7  -1159081.276 7  22065107.504    22065118.926    22065116.947
      -965.412        -752.315
   1911244.444 8    539562.350 7  22291939.501    22291956.350    22291954.311
      2959.976        2306.514
 -19575752.153 6 -15247756.807 5  24037174.520    24037187.561    24037185.882
        74.731          58.235
         0.005 5         0.001 5  24427408.727    24427423.087    24427425.395
     -3047.396       -2374.611
 92  6 13  0 45 42.0000000  0  7  3 20 17 16 24 25  7                0.000899320
  -1995231.644 7  -1554724.339 6  22889057.155    22889075.503    22889074.903
     -1687.828       -1315.160
   -563733.384 8   -439271.759 8  20615365.619    20615380.099    20615377.371
        22.069          17.192
   2846416.559 5   2217223.473 5  24425671.220    24425684.560    24425686.719
     -3045.646       -2373.289
  -1490379.860 7  -1161334.617 7  22064558.584    22064568.357    22064566.558
      -962.448        -749.959
   1920127.126 8    546483.911 7  22293630.781    22293646.939    22293644.451
      2961.794        2307.893
 -19575523.337 6 -15247578.503 5  24037212.294    24037231.421    24037229.143
        77.786          60.591
         0.005 5         0.001 5  24425671.220    24425684.081    24425686.329
     -3045.651       -2373.302
 92  6 13  0 45 45.0000000  0  7  3 20 17 16 24 25  7                0.000900140
  -2000292.214 7  -1558667.632 6  22888098.869    22888112.509    22888111.310
     -1686.182       -1313.907
   -563662.412 8   -439216.455 8  20615378.900    20615393.830    20615390.832
        25.128          19.573
   2837282.324 5   2210105.916 5  24423931.314    24423946.694    24423948.312
     -3043.911       -2371.821
  -1493262.386 7  -1163580.741 7  22064006.156    22064020.097    22064017.938
      -959.361        -747.571
   1929015.796 8    553410.140 7  22295322.839    22295338.518    22295335.880
      2963.842        2309.429
 -19575285.124 6 -15247392.885 5  24037259.122    24037276.090    24037273.932
        80.929          62.983
         0.005 5         0.001 5  24423931.314    24423946.214    24423947.923
     -3043.907       -2371.845
 92  6 13  0 45 48.0000000  0  7  3 20 17 16 24 25  7                0.000900960
  -2005348.101 7  -1562607.268 6  22887134.856    22887150.356    22887149.306
     -1684.592       -1312.681
   -563582.431 8   -439154.125 8  20615393.800    20615408.789    20615406.151
        28.171          21.960
   2828153.352 5   2202992.413 5  24422193.147    24422210.026    24422210.386
     -3042.173       -2370.470
  -1496135.879 8  -1165819.825 7  22063459.755    22063473.335    22063471.237
      -956.362        -745.192
   1937910.244 8    560340.875 7  22297017.206    22297030.667    22297028.748
      2965.795        2310.979
 -19575037.772 6 -15247200.146 5  24037306.129    24037323.877    24037321.479
        83.908          65.487
         0.005 5         0.001 5  24422193.147    24422209.576    24422209.996
     -3042.165       -2370.469
 92  6 13  0 45 51.0000000  0  7  3 20 17 16 24 25  7                0.000901780
  -2010399.344 7  -1566543.311 6  22886175.610    22886189.431    22886187.572
     -1683.082       -1311.449
   -563493.481 8   -439084.817 8  20615411.128    20615425.728    20615422.820
        31.099          24.211
   2819029.528 5   2195882.978 5  24420459.718    24420473.538    24420474.677
     -3040.458       -2369.233
  -1499000.458 7  -1168051.962 7  22062915.182    22062928.043    22062926.514
      -953.421        -742.928
   1946810.465 8    567276.110 7  22298710.374    22298724.704    22298722.366
      2967.624        2312.438
 -19574781.359 6 -15247000.342 5  24037358.413    24037372.563    24037370.555
        86.987          67.760
         0.005 5         0.001 5  24420459.718    24420473.058    24420474.287
     -3040.438       -2369.237
 92  6 13  0 45 54.0000000  0  7  3 20 17 16 24 25  7                0.000902610
  -2015446.030 7  -1570475.785 6  22885214.236    22885229.106    22885227.367
     -1681.539       -1310.292
   -563395.709 8   -439008.631 8  20615429.325    20615444.285    20615441.707
        34.070          26.568
   2809910.811 5   2188777.487 5  24418724.549    24418737.650    24418740.138
     -3038.716       -2367.863
  -1501856.200 7  -1170277.209 7  22062371.478    22062384.819    22062383.020
      -950.469        -740.615
   1955716.439 8    574215.831 7  22300405.550    22300419.281    22300416.883
      2969.622        2313.977
 -19574515.854 6 -15246793.443 5  24037408.119    24037423.438    24037420.650
        90.103          70.063
         0.005 5         0.001 5  24418724.549    24418737.170    24418739.748
     -3038.703       -2367.857
 92  6 13  0 45 57.0000000  0  7  3 20 17 16 24 25  7                0.000903440
  -2020488.184 7  -1574404.741 6  22884252.891    22884269.500    22884268.511
     -1680.039       -1309.154
   -563289.108 8   -438925.570 8  20615451.570    20615464.611    20615462.063
        37.043          28.846
   2800797.124 5   2181675.919 5  24416990.999    24417002.781    24417005.809
     -3037.056       -2366.573
  -1504703.125 7  -1172495.591 7  22061826.635    22061842.764    22061840.785
      -947.478        -738.286
   1964628.185 8    581160.041 7  22302103.635    22302115.027    22302112.988
      2971.553        2315.498
 -19574241.308 6 -15246579.522 5  24037460.612    24037475.122    24037473.383
        93.061          72.577
         0.005 5         0.001 5  24416990.999    24417002.331    24417005.419
     -3037.070       -2366.574
 92  6 13  0 46  0.0000000  0  7  3 20 17 16 24 25  7                0.000904270
  -2025525.796 7  -1578330.149 6  22883295.264    22883310.584    22883309.534
     -1678.356       -1307.826
   -563173.650 8   -438835.604 8  20615472.915    20615486.436    20615483.798
        40.067          31.231
   2791688.453 5   2174578.267 5  24415259.907    24415270.040    24415272.858
     -3035.196       -2365.222
  -1507541.144 7  -1174707.029 7  22061287.818    22061302.598    22061300.919
      -944.402        -735.921
   1973545.685 8    588108.738 7  22303797.462    22303812.122    22303809.694
      2973.566        2317.064
 -19573957.705 6 -15246358.524 5  24037517.873    24037529.475    24037527.616
        96.044          74.953
         0.005 5         0.001 5  24415259.877    24415269.561    24415272.469
     -3035.186       -2365.204
 92  6 13  0 46  3.0000000  0  7  3 20 17 16 24 25  7                0.000905100
  -2030558.690 7  -1582251.886 6  22882338.956    22882352.717    22882351.758
     -1677.021       -1306.749
   -563049.262 8   -438738.678 8  20615496.779    20615510.029    20615507.481
        42.880          33.435
   2782584.974 5   2167484.644 5  24413527.107    24413537.989    24413539.908
     -3033.632       -2363.914
  -1510370.167 7  -1176911.462 7  22060749.391    22060764.501    22060762.702
      -941.554        -733.666
   1982468.995 8    595061.971 7  22305493.808    22305510.267    22305507.868
      2975.311        2318.427
 -19573665.013 6 -15246130.458 5  24037572.285    24037585.236    24037582.988
        99.009          77.150
         0.005 5         0.001 5  24413527.107    24413537.510    24413539.518
     -3033.656       -2363.903
 92  6 13  0 46  6.0000000  0  7  3 20 17 16 24 25  7                0.000905940
  -2035587.222 7  -1586170.211 6  22881381.329    22881396.019    22881395.510
     -1675.469       -1305.563
   -562916.262 8   -438635.034 8  20615520.762    20615535.392    20615532.634
        45.824          35.708
   2773486.416 5   2160394.891 5  24411800.003    24411806.418    24411808.247
     -3032.022       -2362.536
  -1513190.485 7  -1179109.113 7  22060212.283    22060227.722    22060225.773
      -938.618        -731.352
   1991397.798 8    602019.478 7  22307193.631    22307209.370    22307206.882
      2977.193        2319.890
 -19573363.543 6 -15245895.539 5  24037627.237    24037642.736    24037640.458
       101.914          79.367
         0.005 5         0.001 5  24411800.003    24411805.968    24411807.857
     -3032.027       -2362.528
 92  6 13  0 46  9.0000000  0  7  3 20 17 16 24 25  7                0.000906780
  -2040611.150 7  -1590084.954 6  22880425.681    22880440.281    22880438.992
     -1673.923       -1304.382
   -562774.490 8   -438524.563 8  20615547.354    20615562.403    20615559.525
        48.787          38.034
   2764392.947 5   2153309.072 5  24410065.343    24410075.956    24410077.755
     -3030.308       -2361.240
  -1516001.941 7  -1181299.854 7  22059679.042    22059692.862    22059690.944
      -935.665        -729.068
   2000332.184 8    608981.333 7  22308895.133    22308909.493    22308907.425
      2979.083        2321.383
 -19573053.227 6 -15245653.723 5  24037684.887    24037701.645    24037699.397
       104.977          81.728
         0.005 5         0.001 5  24410065.313    24410075.476    24410077.395
     -3030.298       -2361.260
 92  6 13  0 46 12.0000000  0  7  3 20 17 16 24 25  7                0.000907620
  -2045630.139 7  -1593995.854 6  22879470.092    22879485.142    22879484.153
     -1672.275       -1302.994
   -562623.520 8   -438406.930 8  20615575.534    20615591.123    20615588.515
        51.853          40.410
   2755304.927 5   2146227.503 5  24408332.393    24408346.963    24408348.312
     -3028.412       -2359.883
  -1518804.189 7  -1183483.415 7  22059145.381    22059159.502    22059157.703
      -932.524        -726.675
   2009272.451 8    615947.773 7  22310596.366    22310611.025    22310608.387
      2981.028        2322.896
 -19572733.694 6 -15245404.749 5  24037745.415    24037762.623    24037760.555
       108.041          84.214
         0.005 5         0.001 5  24408332.363    24408346.483    24408347.922
     -3028.419       -2359.883
 92  6 13  0 46 15.0000000  0  7  3 20 17 16 24 25  7                0.000908460
  -2050644.534 7  -1597903.168 6  22878513.305    22878530.723    22878529.793
     -1670.771       -1301.913
   -562463.699 8   -438282.396 8  20615606.143    20615621.552    20615618.884
        54.775          42.701
   2746222.029 5   2139149.924 5  24406602.531    24406618.480    24406619.979
     -3026.709       -2358.537
  -1521597.620 7  -1185660.123 7  22058613.400    22058628.030    22058625.811
      -929.634        -724.417
   2018218.221 8    622918.502 7  22312299.666    22312313.367    22312310.819
      2982.906        2324.323
 -19572405.301 6 -15245148.863 5  24037812.838    24037825.580    24037823.451
       111.024          86.578
         0.005 5         0.001 5  24406602.501    24406618.000    24406619.589
     -3026.707       -2358.527
 92  6 13  0 46 18.0000000  0  7  3 20 17 16 24 25  7                0.000909310
  -2055654.602 7  -1601807.117 6  22877561.614    22877577.413    22877576.393
     -1669.427       -1300.884
   -562295.228 8   -438151.112 8  20615637.981    20615653.690    20615650.932
        57.559          44.871
   2737144.118 5   2132076.243 5  24404874.797    24404890.746    24404892.095
     -3025.264       -2357.328
  -1524382.448 7  -1187830.114 7  22058086.874    22058097.847    22058095.958
      -926.853        -722.232
   2027169.329 8    629893.390 7  22314003.567    22314016.368    22314013.880
      2984.570        2325.634
 -19572068.288 6 -15244886.263 5  24037879.272    24037889.465    24037887.427
       113.764          88.632
         0.005 5         0.001 5  24404874.767    24404890.266    24404891.735
     -3025.262       -2357.324
 92  6 13  0 46 21.0000000  0  7  3 20 17 16 24 25  7                0.000910150
  -2060659.955 7  -1605707.383 6  22876611.152    22876625.212    22876623.503
     -1667.617       -1299.477
   -562117.777 8   -438012.839 8  20615669.549    20615687.387    20615684.688
        60.742          47.341
   2728071.627 5   2125006.806 5  24403152.519    24403163.491    24403166.160
     -3023.140       -2355.702
  -1527158.278 7  -1189993.100 7  22057557.111    22057569.612    22057567.634
      -923.686        -719.733
   2036126.115 8    636872.699 7  22315708.397    22315720.778    22315718.320
      2986.647        2327.259
 -19571722.238 6 -15244616.617 5  24037941.300    24037955.120    24037953.051
       116.951          91.180
         0.005 5         0.001 5  24403152.519    24403163.012    24403165.770
     -3023.106       -2355.702
 92  6 13  0 46 24.0000000  0  7  3 20 17 16 24 25  7                0.000911000
  -2065660.457 7  -1609603.871 6  22875661.199    22875673.551    22875671.842
     -1666.094       -1298.292
   -561931.245 8   -437867.489 8  20615708.432    20615722.912    20615720.184
        63.668          49.622
   2719004.800 5   2117941.748 5  24401425.984    24401438.905    24401440.614
     -3021.344       -2354.232
  -1529924.945 7  -1192148.940 7  22057031.215    22057043.057    22057041.078
      -920.699        -717.473
   2045088.710 8    643856.541 7  22317413.286    22317426.327    22317424.199
      2988.485        2328.709
 -19571367.047 6 -15244339.840 5  24038004.496    24038023.443    24038020.715
       119.931          93.494
         0.005 5         0.001 5  24401425.954    24401438.426    24401440.224
     -3021.323       -2354.223
 92  6 13  0 46 27.0000000  0  7  3 20 17 16 24 25  7                0.000911860
  -2070656.494 7  -1613496.888 6  22874707.500    22874722.969    22874721.290
     -1664.784       -1297.232
   -561736.064 8   -437715.402 8  20615743.897    20615759.966    20615757.478
        66.451          51.788
   2709943.223 5   2110880.786 5  24399703.497    24399714.589    24399715.698
     -3019.677       -2353.039
  -1532682.881 7  -1194297.981 7  22056503.370    22056518.270    22056516.591
      -917.967        -715.293
   2054056.676 8    650844.568 7  22319120.724    22319132.956    22319130.827
      2990.150        2330.003
 -19571003.093 6 -15244056.235 5  24038078.185    24038092.455    24038089.487
       122.698          95.574
         0.005 5         0.001 5  24399703.467    24399714.109    24399715.309
     -3019.686       -2353.040
 92  6 13  0 46 30.0000000  0  7  3 20 17 16 24 25  7                0.000912710
  -2075648.207 7  -1617386.535 6  22873757.247    22873772.837    22873771.188
     -1663.246       -1296.045
   -561532.412 8   -437556.713 8  20615782.691    20615798.819    20615796.091
        69.306          53.994
   2700886.757 5   2103823.842 5  24397973.514    24397990.633    24397992.072
     -3017.944       -2351.698
  -1535432.283 7  -1196440.370 7  22055982.271    22055995.162    22055993.483
      -915.046        -713.038
   2063029.819 8    657836.618 6  22320828.192    22320840.454    22320837.816
      2991.903        2331.339
 -19570630.443 6 -15243765.854 5  24038149.236    24038163.206    24038159.788
       125.598          97.960
         0.005 5         0.001 5  24397973.484    24397990.153    24397991.682
     -3017.935       -2351.697
 92  6 13  0 46 33.0000000  0  7  3 20 17 16 24 25  7                0.000913570
  -2080635.492 7  -1621272.715 6  22872810.083    22872823.634    22872822.674
     -1661.739       -1294.848
   -561320.206 8   -437391.356 8  20615823.672    20615839.321    20615836.294
        72.216          56.298
   2691835.487 5   2096770.896 5  24396259.061    24396267.755    24396270.723
     -3016.110       -2350.392
  -1538173.026 7  -1198576.005 7  22055459.373    22055473.763    22055471.845
      -912.061        -710.700
   2072008.191 8    664832.755 7  22322533.622    22322549.301    22322546.782
      2993.722        2332.776
 -19570249.106 6 -15243468.703 5  24038219.387    24038235.636    24038232.938
       128.580         100.290
         0.005 5         0.001 5  24396259.001    24396267.276    24396270.333
     -3016.096       -2350.377
 92  6 13  0 46 36.0000000  0  7  3 20 17 16 24 25  7                0.000914430
  -2085618.333 7  -1625155.447 6  22871862.139    22871875.780    22871874.701
     -1660.270       -1293.741
   -561099.292 8   -437219.215 8  20615866.962    20615881.202    20615878.444
        75.073          58.488
   2682789.443 5   2089722.033 5  24394540.501    24394548.416    24394549.075
     -3014.544       -2348.964
  -1540905.045 7  -1200704.850 7  22054937.075    22054953.833    22054951.915
      -909.229        -708.540
   2080991.828 8    671832.989 7  22324244.207    22324258.417    22324256.109
      2995.389        2334.062
 -19569858.966 6 -15243164.695 5  24038293.436    24038309.894    24038306.866
       131.433         102.440
         0.005 5         0.001 5  24394540.471    24394547.936    24394548.715
     -3014.560       -2348.977
 92  6 13  0 46 39.0000000  0  7  3 20 17 16 24 25  7                0.000915290
  -2090596.738 7  -1629034.718 6  22870911.707    22870928.586    22870926.997
     -1658.857       -1292.601
   -560869.694 8   -437040.306 8  20615911.152    20615925.032    20615922.094
        77.966          60.764
   2673748.493 5   2082677.150 5  24392810.489    24392827.667    24392827.937
     -3012.731       -2347.665
  -1543628.400 7  -1202826.944 7  22054417.774    22054435.762    22054433.483
      -906.338        -706.259
   2089980.602 8    678837.221 7  22325955.273    22325969.093    22325966.905
      2997.111        2335.386
 -19569460.078 6 -15242853.882 5  24038364.726    24038385.592    24038382.924
       134.461         104.761
         0.005 5         0.001 5  24392810.429    24392827.187    24392827.547
     -3012.739       -2347.646
 92  6 13  0 46 42.0000000  0  7  3 20 17 16 24 25  7                0.000916160
  -2095570.711 7  -1632910.540 6  22869965.682    22869981.991    22869980.582
     -1657.350       -1291.444
   -560631.434 8   -436854.648 8  20615957.290    20615970.301    20615967.603
        80.862          63.024
   2664712.631 5   2075636.224 5  24391090.669    24391108.057    24391108.627
     -3011.155       -2346.316
  -1546343.065 7  -1204942.259 7  22053903.690    22053919.159    22053916.821
      -903.457        -703.958
   2098974.496 8    685845.453 7  22327664.060    22327680.399    22327678.270
      2998.808        2336.772
 -19569052.341 6 -15242536.155 5  24038444.501    24038462.998    24038460.900
       137.412         107.014
         0.005 5         0.001 5  24391090.639    24391107.578    24391108.237
     -3011.130       -2346.307
 92  6 13  0 46 45.0000000  0  6  3 20 17 16 24 25                   0.000917020
  -2100540.032 7  -1636782.739 6  22869020.856    22869036.296    22869035.366
     -1655.663       -1290.226
   -560384.229 8   -436662.024 8  20616003.578    20616017.368    20616014.490
        83.967          65.419
   2655682.153 5   2068599.511 5  24389374.657    24389389.767    24389389.347
     -3009.191       -2344.881
  -1549048.793 7  -1207050.624 7  22053389.366    22053404.086    22053402.047
      -900.358        -701.593
   2107973.799 8    692857.893 7  22329376.205    22329393.083    22329390.894
      3000.730        2338.246
 -19568635.540 6 -15242211.393 5  24038526.854    24038542.713    24038540.255
       140.484         109.452
 92  6 13  0 46 48.0000000  0  6  3 20 17 16 24 25                   0.000917890
  -2105504.891 7  -1640651.448 6  22868075.011    22868091.470    22868090.420
     -1654.381       -1289.154
   -560128.248 8   -436462.559 8  20616050.525    20616066.204    20616063.296
        86.729          67.590
   2646656.790 5   2061566.769 5  24387659.095    24387673.035    24387672.855
     -3007.650       -2343.523
  -1551745.866 7  -1209152.235 7  22052877.111    22052890.991    22052888.683
      -897.647        -699.458
   2116978.379 8    699874.448 7  22331093.716    22331106.577    22331104.178
      3002.344        2339.463
 -19568209.889 6 -15241879.711 5  24038605.190    24038623.267    24038621.259
       143.357         111.723
 92  6 13  0 46 51.0000000  0  6  3 20 17 16 24 25                   0.000918760
  -2110465.566 7  -1644516.908 6  22867134.502    22867147.663    22867145.774
     -1652.918       -1287.963
   -559863.703 8   -436256.421 8  20616103.139    20616116.300    20616113.841
        89.656          69.867
   2637636.245 5   2054537.776 5  24385945.271    24385955.704    24385956.514
     -3005.899       -2342.369
  -1554434.607 7  -1211247.357 7  22052365.875    22052379.485    22052377.117
      -894.770        -697.262
   2125987.976 8    706894.902 7  22332806.100    22332820.940    22332819.021
      3004.090        2340.802
 -19567775.665 6 -15241541.364 5  24038691.440    24038706.010    24038703.852
       146.186         113.875
 92  6 13  0 46 54.0000000  0  6  3 20 17 16 24 25                   0.000919630
  -2115421.973 7  -1648379.032 6  22866186.379    22866203.976    22866202.777
     -1651.483       -1286.888
   -559590.359 8   -436043.421 8  20616155.842    20616168.194    20616165.735
        92.582          72.143
   2628620.689 5   2047512.681 5  24384222.184    24384240.771    24384240.651
     -3004.299       -2341.034
  -1557114.802 7  -1213335.817 7  22051857.577    22051869.388    22051866.930
      -891.996        -695.038
   2135002.777 8    713919.430 7  22334522.382    22334536.622    22334534.194
      3005.796        2342.162
 -19567332.736 6 -15241196.224 5  24038783.357    24038790.462    24038788.753
       148.985         116.133
 92  6 13  0 46 57.0000000  0  7  3 20 17 16 24 25  9                0.000920510
  -2120374.053 7  -1652237.792 6  22865247.369    22865261.669    22865260.020
     -1650.044       -1285.738
   -559308.299 8   -435823.639 8  20616205.338    20616222.006    20616219.338
        95.459          74.383
   2619610.061 5   2040491.427 5  24382511.119    24382525.179    24382524.849
     -3002.696       -2339.773
  -1559786.533 7  -1215417.681 7  22051349.578    22051360.881    22051358.452
      -889.180        -692.846
   2144022.685 8    720947.927 7  22336237.135    22336253.204    22336250.985
      3007.459        2343.449
 -19566881.137 6 -15240844.315 5  24038862.682    24038876.532    24038873.894
       151.969         118.390
         0.000 1         0.000 1  22051349.518           0.000           0.000
         0.000           0.000
 92  6 13  0 47  0.0000000  0  7  3 20 17 16 24 25  9                0.000921390
  -2125321.895 7  -1656093.242 6  22864304.551    22864320.320    22864319.391
     -1648.521       -1284.570
   -559017.443 8   -435596.997 8  20616262.359    20616277.378    20616274.770
        98.475          76.717
   2610604.359 5   2033474.015 5  24380798.854    24380812.255    24380811.176
     -3000.966       -2338.522
  -1562449.739 7  -1217492.913 7  22050840.950    22050854.201    22050851.863
      -886.247        -690.528
   2153047.648 8    727980.362 7  22337955.455    22337970.475    22337968.076
      3009.212        2344.845
 -19566420.830 6 -15240485.634 5  24038950.221    24038963.562    24038961.823
       155.036         120.737
         0.01817         0.00116  22050840.861    22050853.602    22050851.563
      -886.281        -690.585
 92  6 13  0 47  3.0000000  0  7  3 20 17 16 24 25  9                0.000922270
  -2130265.203 7  -1659945.170 6  22863362.424    22863379.602    22863378.702
     -1647.121       -1283.484
   -558717.534 8   -435363.298 8  20616318.630    20616334.489    20616331.850
       101.487          79.080
   2601603.913 5   2026460.719 5  24379088.208    24379098.791    24379098.641
     -2999.266       -2337.110
  -1565104.171 7  -1219561.290 7  22050337.599    22050348.931    22050346.653
      -883.322        -688.321
   2162077.918 8    735016.936 7  22339674.345    22339688.885    22339686.607
      3011.001        2346.217
 -19565951.522 6 -15240119.953 5  24039041.418    24039052.240    24039050.981
       157.964         123.092
         0.018 7         0.001 7  22050337.509    22050348.331    22050346.353
      -883.320        -688.319
 92  6 13  0 47  6.0000000  0  7  3 20 17 16 24 25  9                0.000923150
  -2135203.670 7  -1663793.319 6  22862425.992    22862439.662    22862438.463
     -1645.552       -1282.286
   -558408.243 8   -435122.292 8  20616377.899    20616393.338    20616390.700
       104.593          81.499
   2592609.220 5   2019451.864 5  24377377.743    24377387.366    24377387.965
     -2997.430       -2335.584
  -1567749.490 7  -1221622.578 7  22049831.699    22049845.759    22049843.331
      -880.335        -686.003
   2171113.856 8    742057.924 7  22341395.034    22341408.435    22341406.426
      3012.839        2347.687
 -19565472.823 6 -15239746.930 5  24039127.189    24039143.287    24039141.758
       161.009         125.482
         0.018 7         0.001 7  22049831.609    22049845.160    22049843.001
      -880.337        -686.004
 92  6 13  0 47  9.0000000  0  7  3 20 17 16 24 25  9                0.000924030
  -2140137.947 7  -1667638.205 6  22861487.432    22861500.862    22861499.543
     -1644.088       -1281.148
   -558090.257 8   -434874.507 8  20616439.026    20616453.896    20616451.138
       107.443          83.719
   2583619.502 5   2012446.913 5  24375669.465    24375676.900    24375676.930
     -2995.784       -2334.281
  -1570386.449 7  -1223677.347 7  22049329.037    22049343.997    22049341.359
      -877.630        -683.839
   2180154.740 8    749102.770 7  22343114.584    22343128.764    22343126.575
      3014.434        2348.906
 -19564985.416 6 -15239367.133 5  24039222.523    24039236.583    24039234.574
       163.956         127.657
         0.018 7         0.001 7  22049328.947    22049343.397    22049341.029
      -877.621        -683.842
 92  6 13  0 47 12.0000000  0  7  3 20 17 16 24 25  9                0.000924920
  -2145067.759 7  -1671479.620 6  22860545.604    22860562.962    22860561.343
     -1642.599       -1279.940
   -557763.323 8   -434619.751 8  20616502.822    20616516.133    20616513.375
       110.444          86.080
   2574635.017 5   2005446.028 5  24373952.854    24373965.805    24373967.334
     -2993.888       -2332.943
  -1573014.861 7  -1225725.462 7  22048828.324    22048843.553    22048841.305
      -874.702        -681.594
   2189200.792 8    756151.635 7  22344835.512    22344850.052    22344848.373
      3016.230        2350.321
 -19564489.059 6 -15238980.362 5  24039319.895    24039330.568    24039329.219
       166.948         130.064
         0.018 7         0.001 7  22048828.234    22048842.954    22048841.005
      -874.702        -681.602
 92  6 13  0 47 15.0000000  0  7  3 20 17 16 24 25  9                0.000925810
  -2149993.426 7  -1675317.789 6  22859606.684    22859625.391    22859624.221
     -1641.271       -1278.904
   -557427.792 8   -434358.307 8  20616567.967    20616579.839    20616577.291
       113.333          88.329
   2565655.453 5   1998448.964 5  24372243.317    24372258.786    24372257.887
     -2992.309       -2331.679
  -1575635.128 7  -1227767.222 7  22048329.499    22048345.118    22048342.630
      -872.010        -679.501
   2198251.700 8    763204.287 7  22346558.060    22346572.420    22346570.531
      3017.826        2351.577
 -19563984.109 6 -15238586.895 5  24039412.831    24039427.011    24039425.962
       169.797         132.361
         0.018 7         0.001 7  22048329.409    22048344.489    22048342.330
      -872.016        -679.504
 92  6 13  0 47 18.0000000  0  7  3 20 17 16 24 25  9                0.000926700
  -2154914.680 7  -1679152.529 6  22858672.081    22858688.659    22858688.329
     -1639.777       -1277.707
   -557083.317 8   -434089.886 8  20616631.583    20616645.493    20616642.705
       116.328          90.653
   2556681.212 5   1991456.082 5  24370537.168    24370550.599    24370549.310
     -2990.537       -2330.257
  -1578246.910 7  -1229802.381 7  22047832.383    22047848.152    22047845.784
      -869.158        -677.285
   2207307.850 8    770261.022 7  22348281.926    22348295.987    22348294.038
      3019.586        2352.955
 -19563470.266 6 -15238186.493 5  24039511.103    24039525.043    24039523.724
       172.839         134.662
         0.018 7         0.001 7  22047832.293    22047847.553    22047845.484
      -869.151        -677.289
 92  6 13  0 47 21.0000000  0  7  3 20 17 16 24 25  9                0.000927590
  -2159831.370 7  -1682983.714 6  22857741.015    22857753.337    22857751.988
     -1638.307       -1276.601
   -556729.792 8   -433814.410 8  20616699.246    20616712.947    20616710.189
       119.246          92.896
   2547712.426 5   1984467.425 5  24368830.809    24368843.820    24368843.011
     -2988.806       -2328.886
  -1580850.115 8  -1231830.853 7  22047336.347    22047352.715    22047350.587
      -866.431        -675.137
   2216369.314 8    777321.902 7  22350005.793    22350020.213    22350018.384
      3021.239        2354.240
 -19562947.360 6 -15237779.045 5  24039612.882    24039624.304    24039622.476
       175.803         136.907
         0.018 7         0.001 7  22047336.257    22047352.116    22047350.287
      -866.431        -675.144
 92  6 13  0 47 24.0000000  0  7  3 20 17 16 24 25  9                0.000928490
  -2164744.098 7  -1686811.808 6  22856805.753    22856818.374    22856816.875
     -1636.935       -1275.503
   -556367.743 8   -433532.289 8  20616766.579    20616781.599    20616779.081
       122.143          95.169
   2538748.544 5   1977482.576 5  24367128.258    24367137.971    24367137.432
     -2987.129       -2327.632
  -1583445.327 7  -1233853.089 7  22046845.437    22046858.957    22046856.559
      -863.672        -673.045
   2225435.499 8    784386.459 7  22351734.486    22351745.339    22351743.420
      3022.851        2355.510
 -19562415.874 6 -15237364.901 5  24039711.394    24039724.975    24039723.266
       178.582         139.179
         0.018 7         0.001 7  22046845.347    22046858.358    22046856.259
      -863.677        -673.051
 92  6 13  0 47 27.0000000  0  7  3 20 17 16 24 25  9                0.000929380
  -2169652.695 7  -1690636.691 6  22855871.240    22855884.191    22855882.602
     -1635.550       -1274.374
   -555997.063 8   -433243.443 8  20616836.311    20616852.080    20616849.532
       125.051          97.454
   2529789.558 5   1970501.594 5  24365420.760    24365432.062    24365434.041
     -2985.449       -2326.264
  -1586032.394 8  -1235868.982 7  22046351.798    22046366.788    22046364.210
      -860.940        -670.847
   2234506.479 8    791454.755 7  22353459.072    22353471.364    22353469.475
      3024.523        2356.788
 -19561875.644 6 -15236943.936 5  24039807.418    24039828.133    24039826.335
       181.537         141.542
         0.018 7         0.001 7  22046351.708    22046366.188    22046363.910
      -860.929        -670.840
 92  6 13  0 47 30.0000000  0  7  3 20 17 16 24 25  9                0.000930280
  -2174556.609 7  -1694457.927 6  22854935.437    22854951.296    22854949.228
     -1633.832       -1273.133
   -555617.178 8   -432947.428 8  20616909.760    20616924.540    20616921.932
       128.257          99.940
   2520836.054 5   1963524.855 5  24363709.335    24363728.192    24363731.040
     -2983.553       -2324.808
  -1588610.713 8  -1237878.064 7  22045861.997    22045875.638    22045873.419
      -857.864        -668.473
   2243582.742 8    798527.165 7  22355185.697    22355198.498    22355196.699
      3026.424        2358.253
 -19561326.155 6 -15236515.767 5  24039918.251    24039933.031    24039930.363
       184.803         143.992
         0.018 7         0.001 7  22045861.907    22045875.038    22045873.120
      -857.867        -668.467
 92  6 13  0 47 33.0000000  0  7  3 20 17 16 24 25  9                0.000931180
  -2179455.841 7  -1698275.497 6  22854005.271    22854018.822    22854016.963
     -1632.482       -1272.077
   -555227.987 8   -432644.166 8  20616984.259    20616998.559    20616995.861
       131.151         102.204
   2511888.087 5   1956552.425 5  24362014.758    24362026.030    24362026.660
     -2981.879       -2323.536
  -1591180.251 8  -1239880.295 7  22045373.845    22045386.706    22045384.788
      -855.144        -666.376
   2252664.304 8    805603.701 7  22356912.951    22356926.622    22356924.823
      3027.930        2359.434
 -19560767.209 6 -15236080.234 5  24040023.148    24040039.577    24040036.789
       187.844         146.208
         0.018 7         0.001 7  22045373.755    22045386.107    22045384.458
      -855.170        -666.376
 92  6 13  0 47 36.0000000  0  7  3 20 17 16 24 25  9                0.000932090
  -2184350.834 7  -1702089.770 6  22853074.356    22853087.397    22853085.628
     -1630.956       -1270.825
   -554829.987 8   -432334.034 8  20617058.487    20617074.256    20617071.768
       134.233         104.604
   2502945.112 5   1949583.900 5  24360303.453    24360324.109    24360325.608
     -2980.078       -2322.109
  -1593741.504 7  -1241876.076 7  22044885.993    22044899.304    22044897.415
      -852.271        -664.121
   2261750.646 8    812683.970 7  22358640.295    22358656.035    22358654.026
      3029.634        2360.791
 -19560199.367 6 -15235637.752 5  24040129.904    24040147.712    24040144.474
       190.844         148.705
         0.018 7         0.001 7  22044885.903    22044898.674    22044897.115
      -852.261        -664.117
 92  6 13  0 47 39.0000000  0  7  3 20 17 16 24 25  9                0.000932990
  -2189241.592 7  -1705900.740 6  22852142.031    22852156.721    22852154.862
     -1629.601       -1269.756
   -554423.193 8   -432017.051 8  20617133.975    20617151.693    20617148.905
       137.105         106.824
   2494007.137 5   1942619.218 5  24358608.906    24358623.476    24358623.656
     -2978.456       -2320.919
  -1596294.470 7  -1243865.399 7  22044398.051    22044413.460    22044411.422
      -849.561        -662.009
   2270841.729 8    819767.927 7  22360371.027    22360385.567    22360384.038
      3031.214        2361.947
 -19559622.584 6 -15235188.318 5  24040241.877    24040257.406    24040253.809
       193.721         150.973
         0.018 7         0.001 7  22044397.961    22044412.831    22044411.122
      -849.579        -662.012
 92  6 13  0 47 42.0000000  0  7  3 20 17 16 24 25  9                0.000933900
  -2194128.152 7  -1709708.445 6  22851212.525    22851227.035    22851225.176
     -1628.271       -1268.760
   -554007.508 8   -431693.141 8  20617212.671    20617230.808    20617228.350
       140.017         109.098
   2485074.159 5   1935658.464 5  24356911.901    24356923.833    24356924.252
     -2976.914       -2319.658
  -1598839.183 7  -1245848.285 7  22043914.815    22043929.055    22043927.317
      -846.918        -659.906
   2279937.654 8    826855.649 7  22362104.337    22362116.599    22362114.800
      3032.732        2363.171
 -19559036.973 6 -15234731.993 5  24040352.980    24040368.689    24040366.650
       196.622         153.232
         0.018 7         0.001 7  22043914.725    22043928.456    22043927.017
      -846.916        -659.902
 92  6 13  0 47 45.0000000  0  7  3 20 17 16 24 25  9                0.000934810
  -2199010.523 7  -1713512.883 6  22850282.419    22850297.348    22850296.299
     -1626.840       -1267.652
   -553583.005 8   -431362.361 8  20617297.962    20617311.662    20617308.844
       142.981         111.400
   2476146.057 5   1928701.515 5  24355212.827    24355224.609    24355224.729
     -2975.235       -2318.365
  -1601375.802 7  -1247824.873 7  22043433.169    22043446.689    22043444.741
      -844.182        -657.808
   2289038.323 8    833947.078 7  22363834.290    22363848.350    22363846.401
      3034.373        2364.406
 -19558442.606 6 -15234268.851 5  24040467.231    24040481.261    24040479.193
       199.600         155.578
         0.018 7         0.001 7  22043433.079    22043446.090    22043444.441
      -844.185        -657.805
 92  6 13  0 47 48.0000000  0  7  3 20 17 16 24 25  9                0.000935720
  -2203888.624 7  -1717314.001 6  22849350.814    22849369.221    22849368.052
     -1625.439       -1266.536
   -553149.551 8   -431024.612 8  20617379.175    20617394.015    20617391.437
       145.949         113.719
   2467222.908 5   1921748.444 5  24353514.383    24353526.554    24353525.265
     -2973.579       -2317.043
  -1603904.219 7  -1249795.058 7  22042950.053    22042965.433    22042963.424
      -841.467        -655.643
   2298143.835 8    841042.278 7  22365565.981    22365581.150    22365578.932
      3035.937        2365.678
 -19557839.346 6 -15233798.775 5  24040580.253    24040596.411    24040594.763
       202.531         157.769
         0.018 7         0.001 7  22042949.963    22042964.833    22042963.094
      -841.461        -655.646
 92  6 13  0 47 51.0000000  0  7  3 20 17 16 24 25  9                0.000936630
  -2208762.777 7  -1721112.027 6  22848427.393    22848441.603    22848440.224
     -1624.144       -1265.631
   -552707.511 8   -430680.162 8  20617464.856    20617478.197    20617475.469
       148.768         115.941
   2458304.458 5   1914799.029 5  24351815.339    24351829.609    24351828.620
     -2972.086       -2315.905
  -1606424.781 7  -1251759.129 7  22042470.235    22042485.765    22042483.516
      -838.889        -653.716
   2307253.816 8    848140.963 7  22367299.950    22367315.000    22367313.051
      3037.414        2366.803
 -19557227.574 6 -15233322.068 5  24040699.990    24040712.701    24040710.842
       205.312         160.001
         0.018 7         0.001 7  22042470.145    22042485.165    22042483.186
      -838.887        -653.713
